<?xml version="1.0" encoding="UTF-8" standalone="no" ?>
<gpx xmlns="http://www.topografix.com/GPX/1/1" xmlns:xsi="http://www.w3.org/2001/XMLSchema-instance" xsi:schemaLocation="http://www.topografix.com/GPX/1/1 http://www.topografix.com/GPX/1/1/gpx.xsd" version="1.1" creator="VisuGPX - https://www.visugpx.com">
  <metadata>
    <name>EnduRide in Luberon_Etap1</name>
    <desc><![CDATA[1ere Etape d'un petit Trip dans le Luberon]]></desc>
  </metadata>
  <trk>
    <name><![CDATA[EndurideLuberon1 on GPSies.com]]></name>
    <trkseg>
      <trkpt lat="43.82834" lon="5.40321">
        <ele>562.3</ele>
        <time>2012-03-19T13:31:29Z</time>
      </trkpt>
      <trkpt lat="43.82823" lon="5.40326">
        <ele>563.1</ele>
        <time>2012-03-19T13:31:34Z</time>
      </trkpt>
      <trkpt lat="43.82814" lon="5.40329">
        <ele>564.3</ele>
        <time>2012-03-19T13:31:38Z</time>
      </trkpt>
      <trkpt lat="43.82804" lon="5.40336">
        <ele>565.6</ele>
        <time>2012-03-19T13:31:42Z</time>
      </trkpt>
      <trkpt lat="43.82796" lon="5.40354">
        <ele>564.8</ele>
        <time>2012-03-19T13:31:48Z</time>
      </trkpt>
      <trkpt lat="43.82786" lon="5.40372">
        <ele>566.4</ele>
        <time>2012-03-19T13:31:55Z</time>
      </trkpt>
      <trkpt lat="43.82776" lon="5.40387">
        <ele>569</ele>
        <time>2012-03-19T13:32:01Z</time>
      </trkpt>
      <trkpt lat="43.82769" lon="5.40402">
        <ele>569.4</ele>
        <time>2012-03-19T13:32:06Z</time>
      </trkpt>
      <trkpt lat="43.82765" lon="5.4041">
        <ele>569.7</ele>
        <time>2012-03-19T13:32:09Z</time>
      </trkpt>
      <trkpt lat="43.82759" lon="5.40419">
        <ele>570</ele>
        <time>2012-03-19T13:32:12Z</time>
      </trkpt>
      <trkpt lat="43.82751" lon="5.40425">
        <ele>569.5</ele>
        <time>2012-03-19T13:32:16Z</time>
      </trkpt>
      <trkpt lat="43.82732" lon="5.40433">
        <ele>570.4</ele>
        <time>2012-03-19T13:32:24Z</time>
      </trkpt>
      <trkpt lat="43.82712" lon="5.4045">
        <ele>572.3</ele>
        <time>2012-03-19T13:32:33Z</time>
      </trkpt>
      <trkpt lat="43.82701" lon="5.40462">
        <ele>574.1</ele>
        <time>2012-03-19T13:32:39Z</time>
      </trkpt>
      <trkpt lat="43.82684" lon="5.40485">
        <ele>576.3</ele>
        <time>2012-03-19T13:32:49Z</time>
      </trkpt>
      <trkpt lat="43.8267" lon="5.40498">
        <ele>578.3</ele>
        <time>2012-03-19T13:32:55Z</time>
      </trkpt>
      <trkpt lat="43.82659" lon="5.40513">
        <ele>580.9</ele>
        <time>2012-03-19T13:33:01Z</time>
      </trkpt>
      <trkpt lat="43.82656" lon="5.40517">
        <ele>581.6</ele>
        <time>2012-03-19T13:33:03Z</time>
      </trkpt>
      <trkpt lat="43.82654" lon="5.4052">
        <ele>582.3</ele>
        <time>2012-03-19T13:33:04Z</time>
      </trkpt>
      <trkpt lat="43.82643" lon="5.40536">
        <ele>584.6</ele>
        <time>2012-03-19T13:33:11Z</time>
      </trkpt>
      <trkpt lat="43.82632" lon="5.40589">
        <ele>590.4</ele>
        <time>2012-03-19T13:33:27Z</time>
      </trkpt>
      <trkpt lat="43.82626" lon="5.40615">
        <ele>592.3</ele>
        <time>2012-03-19T13:33:34Z</time>
      </trkpt>
      <trkpt lat="43.82619" lon="5.40674">
        <ele>596</ele>
        <time>2012-03-19T13:33:52Z</time>
      </trkpt>
      <trkpt lat="43.82618" lon="5.40768">
        <ele>603.8</ele>
        <time>2012-03-19T13:34:19Z</time>
      </trkpt>
      <trkpt lat="43.82621" lon="5.40824">
        <ele>606.7</ele>
        <time>2012-03-19T13:34:35Z</time>
      </trkpt>
      <trkpt lat="43.82623" lon="5.40868">
        <ele>609.5</ele>
        <time>2012-03-19T13:34:48Z</time>
      </trkpt>
      <trkpt lat="43.82619" lon="5.40912">
        <ele>611.9</ele>
        <time>2012-03-19T13:35:01Z</time>
      </trkpt>
      <trkpt lat="43.82608" lon="5.4096">
        <ele>616.8</ele>
        <time>2012-03-19T13:35:15Z</time>
      </trkpt>
      <trkpt lat="43.82601" lon="5.40976">
        <ele>617.2</ele>
        <time>2012-03-19T13:35:21Z</time>
      </trkpt>
      <trkpt lat="43.82588" lon="5.40997">
        <ele>617.5</ele>
        <time>2012-03-19T13:35:28Z</time>
      </trkpt>
      <trkpt lat="43.82578" lon="5.4101">
        <ele>618.7</ele>
        <time>2012-03-19T13:35:34Z</time>
      </trkpt>
      <trkpt lat="43.8256" lon="5.41025">
        <ele>621.5</ele>
        <time>2012-03-19T13:35:42Z</time>
      </trkpt>
      <trkpt lat="43.82551" lon="5.41031">
        <ele>622.6</ele>
        <time>2012-03-19T13:35:46Z</time>
      </trkpt>
      <trkpt lat="43.82546" lon="5.41034">
        <ele>623.4</ele>
        <time>2012-03-19T13:35:49Z</time>
      </trkpt>
      <trkpt lat="43.82532" lon="5.41045">
        <ele>626.8</ele>
        <time>2012-03-19T13:35:55Z</time>
      </trkpt>
      <trkpt lat="43.82523" lon="5.41051">
        <ele>628.9</ele>
        <time>2012-03-19T13:35:59Z</time>
      </trkpt>
      <trkpt lat="43.825" lon="5.41062">
        <ele>629.7</ele>
        <time>2012-03-19T13:36:09Z</time>
      </trkpt>
      <trkpt lat="43.82488" lon="5.41078">
        <ele>631.8</ele>
        <time>2012-03-19T13:36:15Z</time>
      </trkpt>
      <trkpt lat="43.82455" lon="5.41116">
        <ele>636.6</ele>
        <time>2012-03-19T13:36:33Z</time>
      </trkpt>
      <trkpt lat="43.82428" lon="5.41135">
        <ele>639.1</ele>
        <time>2012-03-19T13:36:45Z</time>
      </trkpt>
      <trkpt lat="43.82414" lon="5.4114">
        <ele>639.5</ele>
        <time>2012-03-19T13:36:51Z</time>
      </trkpt>
      <trkpt lat="43.82397" lon="5.41142">
        <ele>641.5</ele>
        <time>2012-03-19T13:36:57Z</time>
      </trkpt>
      <trkpt lat="43.8237" lon="5.41147">
        <ele>643.3</ele>
        <time>2012-03-19T13:37:08Z</time>
      </trkpt>
      <trkpt lat="43.82338" lon="5.41152">
        <ele>644.5</ele>
        <time>2012-03-19T13:37:21Z</time>
      </trkpt>
      <trkpt lat="43.82314" lon="5.41155">
        <ele>643.3</ele>
        <time>2012-03-19T13:37:31Z</time>
      </trkpt>
      <trkpt lat="43.82292" lon="5.41154">
        <ele>643.1</ele>
        <time>2012-03-19T13:37:39Z</time>
      </trkpt>
      <trkpt lat="43.8227" lon="5.41153">
        <ele>642.6</ele>
        <time>2012-03-19T13:37:48Z</time>
      </trkpt>
      <trkpt lat="43.82242" lon="5.41142">
        <ele>643.7</ele>
        <time>2012-03-19T13:38:00Z</time>
      </trkpt>
      <trkpt lat="43.82219" lon="5.4113">
        <ele>645.4</ele>
        <time>2012-03-19T13:38:10Z</time>
      </trkpt>
      <trkpt lat="43.82191" lon="5.41105">
        <ele>649.9</ele>
        <time>2012-03-19T13:38:23Z</time>
      </trkpt>
      <trkpt lat="43.82184" lon="5.41095">
        <ele>651.6</ele>
        <time>2012-03-19T13:38:27Z</time>
      </trkpt>
      <trkpt lat="43.82154" lon="5.41064">
        <ele>656.6</ele>
        <time>2012-03-19T13:38:42Z</time>
      </trkpt>
      <trkpt lat="43.82117" lon="5.41038">
        <ele>660.9</ele>
        <time>2012-03-19T13:38:59Z</time>
      </trkpt>
      <trkpt lat="43.82095" lon="5.41024">
        <ele>664.6</ele>
        <time>2012-03-19T13:39:09Z</time>
      </trkpt>
      <trkpt lat="43.82081" lon="5.41011">
        <ele>667</ele>
        <time>2012-03-19T13:39:15Z</time>
      </trkpt>
      <trkpt lat="43.8206" lon="5.40986">
        <ele>670.9</ele>
        <time>2012-03-19T13:39:27Z</time>
      </trkpt>
      <trkpt lat="43.82049" lon="5.40979">
        <ele>673</ele>
        <time>2012-03-19T13:39:31Z</time>
      </trkpt>
      <trkpt lat="43.82011" lon="5.40919">
        <ele>676.8</ele>
        <time>2012-03-19T13:39:54Z</time>
      </trkpt>
      <trkpt lat="43.81986" lon="5.40859">
        <ele>679.1</ele>
        <time>2012-03-19T13:40:14Z</time>
      </trkpt>
      <trkpt lat="43.81969" lon="5.40811">
        <ele>681.5</ele>
        <time>2012-03-19T13:40:30Z</time>
      </trkpt>
      <trkpt lat="43.81961" lon="5.40787">
        <ele>683.2</ele>
        <time>2012-03-19T13:40:38Z</time>
      </trkpt>
      <trkpt lat="43.81948" lon="5.40765">
        <ele>686.9</ele>
        <time>2012-03-19T13:40:45Z</time>
      </trkpt>
      <trkpt lat="43.81936" lon="5.40746">
        <ele>689.2</ele>
        <time>2012-03-19T13:40:53Z</time>
      </trkpt>
      <trkpt lat="43.81922" lon="5.40732">
        <ele>690.8</ele>
        <time>2012-03-19T13:41:00Z</time>
      </trkpt>
      <trkpt lat="43.81911" lon="5.40723">
        <ele>689.9</ele>
        <time>2012-03-19T13:41:05Z</time>
      </trkpt>
      <trkpt lat="43.819" lon="5.40717">
        <ele>686.3</ele>
        <time>2012-03-19T13:41:10Z</time>
      </trkpt>
      <trkpt lat="43.81893" lon="5.40721">
        <ele>687.7</ele>
        <time>2012-03-19T13:41:13Z</time>
      </trkpt>
      <trkpt lat="43.8189" lon="5.40725">
        <ele>689.6</ele>
        <time>2012-03-19T13:41:14Z</time>
      </trkpt>
      <trkpt lat="43.81881" lon="5.40729">
        <ele>690.8</ele>
        <time>2012-03-19T13:41:18Z</time>
      </trkpt>
      <trkpt lat="43.81874" lon="5.40729">
        <ele>689.7</ele>
        <time>2012-03-19T13:41:21Z</time>
      </trkpt>
      <trkpt lat="43.81865" lon="5.40725">
        <ele>686</ele>
        <time>2012-03-19T13:41:24Z</time>
      </trkpt>
      <trkpt lat="43.81861" lon="5.40722">
        <ele>682.9</ele>
        <time>2012-03-19T13:41:26Z</time>
      </trkpt>
      <trkpt lat="43.81853" lon="5.4072">
        <ele>682</ele>
        <time>2012-03-19T13:41:30Z</time>
      </trkpt>
      <trkpt lat="43.81848" lon="5.40719">
        <ele>682.4</ele>
        <time>2012-03-19T13:41:32Z</time>
      </trkpt>
      <trkpt lat="43.81837" lon="5.40722">
        <ele>685.3</ele>
        <time>2012-03-19T13:41:36Z</time>
      </trkpt>
      <trkpt lat="43.81818" lon="5.40733">
        <ele>691</ele>
        <time>2012-03-19T13:41:45Z</time>
      </trkpt>
      <trkpt lat="43.81813" lon="5.40734">
        <ele>691</ele>
        <time>2012-03-19T13:41:47Z</time>
      </trkpt>
      <trkpt lat="43.81805" lon="5.40731">
        <ele>688.9</ele>
        <time>2012-03-19T13:41:50Z</time>
      </trkpt>
      <trkpt lat="43.818" lon="5.4073">
        <ele>689.3</ele>
        <time>2012-03-19T13:41:52Z</time>
      </trkpt>
      <trkpt lat="43.81791" lon="5.40739">
        <ele>691.7</ele>
        <time>2012-03-19T13:41:56Z</time>
      </trkpt>
      <trkpt lat="43.81785" lon="5.40759">
        <ele>691.2</ele>
        <time>2012-03-19T13:42:02Z</time>
      </trkpt>
      <trkpt lat="43.81782" lon="5.40766">
        <ele>689.8</ele>
        <time>2012-03-19T13:42:05Z</time>
      </trkpt>
      <trkpt lat="43.81772" lon="5.40777">
        <ele>689.3</ele>
        <time>2012-03-19T13:42:10Z</time>
      </trkpt>
      <trkpt lat="43.81765" lon="5.40782">
        <ele>691.1</ele>
        <time>2012-03-19T13:42:13Z</time>
      </trkpt>
      <trkpt lat="43.81752" lon="5.40792">
        <ele>692.3</ele>
        <time>2012-03-19T13:42:19Z</time>
      </trkpt>
      <trkpt lat="43.8175" lon="5.40795">
        <ele>692.1</ele>
        <time>2012-03-19T13:42:20Z</time>
      </trkpt>
      <trkpt lat="43.81735" lon="5.40814">
        <ele>694</ele>
        <time>2012-03-19T13:42:28Z</time>
      </trkpt>
      <trkpt lat="43.81725" lon="5.40824">
        <ele>694.6</ele>
        <time>2012-03-19T13:42:33Z</time>
      </trkpt>
      <trkpt lat="43.8171" lon="5.40841">
        <ele>696.7</ele>
        <time>2012-03-19T13:42:41Z</time>
      </trkpt>
      <trkpt lat="43.81686" lon="5.40858">
        <ele>698.7</ele>
        <time>2012-03-19T13:42:52Z</time>
      </trkpt>
      <trkpt lat="43.81675" lon="5.40863">
        <ele>700.3</ele>
        <time>2012-03-19T13:42:57Z</time>
      </trkpt>
      <trkpt lat="43.81664" lon="5.40867">
        <ele>702.5</ele>
        <time>2012-03-19T13:43:01Z</time>
      </trkpt>
      <trkpt lat="43.81651" lon="5.40872">
        <ele>704.6</ele>
        <time>2012-03-19T13:43:06Z</time>
      </trkpt>
      <trkpt lat="43.81646" lon="5.40874">
        <ele>705.3</ele>
        <time>2012-03-19T13:43:08Z</time>
      </trkpt>
      <trkpt lat="43.81642" lon="5.40878">
        <ele>705.7</ele>
        <time>2012-03-19T13:43:10Z</time>
      </trkpt>
      <trkpt lat="43.81634" lon="5.40887">
        <ele>706.4</ele>
        <time>2012-03-19T13:43:14Z</time>
      </trkpt>
      <trkpt lat="43.81629" lon="5.40893">
        <ele>708</ele>
        <time>2012-03-19T13:43:17Z</time>
      </trkpt>
      <trkpt lat="43.81619" lon="5.40903">
        <ele>710.9</ele>
        <time>2012-03-19T13:43:22Z</time>
      </trkpt>
      <trkpt lat="43.81613" lon="5.40909">
        <ele>711.7</ele>
        <time>2012-03-19T13:43:25Z</time>
      </trkpt>
      <trkpt lat="43.81588" lon="5.40918">
        <ele>714</ele>
        <time>2012-03-19T13:43:35Z</time>
      </trkpt>
      <trkpt lat="43.81585" lon="5.40923">
        <ele>714.7</ele>
        <time>2012-03-19T13:43:37Z</time>
      </trkpt>
      <trkpt lat="43.81559" lon="5.40939">
        <ele>718.5</ele>
        <time>2012-03-19T13:43:49Z</time>
      </trkpt>
      <trkpt lat="43.81542" lon="5.4095">
        <ele>723</ele>
        <time>2012-03-19T13:43:56Z</time>
      </trkpt>
      <trkpt lat="43.81526" lon="5.40961">
        <ele>726.2</ele>
        <time>2012-03-19T13:44:03Z</time>
      </trkpt>
      <trkpt lat="43.81509" lon="5.40976">
        <ele>729</ele>
        <time>2012-03-19T13:44:11Z</time>
      </trkpt>
      <trkpt lat="43.81503" lon="5.40979">
        <ele>730.4</ele>
        <time>2012-03-19T13:44:14Z</time>
      </trkpt>
      <trkpt lat="43.81497" lon="5.40985">
        <ele>731.9</ele>
        <time>2012-03-19T13:44:17Z</time>
      </trkpt>
      <trkpt lat="43.8149" lon="5.4099">
        <ele>733.7</ele>
        <time>2012-03-19T13:44:20Z</time>
      </trkpt>
      <trkpt lat="43.81481" lon="5.40992">
        <ele>735.1</ele>
        <time>2012-03-19T13:44:24Z</time>
      </trkpt>
      <trkpt lat="43.81472" lon="5.40997">
        <ele>735.6</ele>
        <time>2012-03-19T13:44:28Z</time>
      </trkpt>
      <trkpt lat="43.81467" lon="5.41004">
        <ele>737.3</ele>
        <time>2012-03-19T13:44:31Z</time>
      </trkpt>
      <trkpt lat="43.81461" lon="5.41012">
        <ele>740</ele>
        <time>2012-03-19T13:44:34Z</time>
      </trkpt>
      <trkpt lat="43.81458" lon="5.41015">
        <ele>741</ele>
        <time>2012-03-19T13:44:35Z</time>
      </trkpt>
      <trkpt lat="43.8145" lon="5.41017">
        <ele>742.1</ele>
        <time>2012-03-19T13:44:39Z</time>
      </trkpt>
      <trkpt lat="43.81444" lon="5.41018">
        <ele>742.7</ele>
        <time>2012-03-19T13:44:41Z</time>
      </trkpt>
      <trkpt lat="43.81441" lon="5.41019">
        <ele>743.4</ele>
        <time>2012-03-19T13:44:42Z</time>
      </trkpt>
      <trkpt lat="43.81439" lon="5.4102">
        <ele>743.7</ele>
        <time>2012-03-19T13:44:43Z</time>
      </trkpt>
      <trkpt lat="43.81426" lon="5.41026">
        <ele>745.8</ele>
        <time>2012-03-19T13:44:49Z</time>
      </trkpt>
      <trkpt lat="43.81418" lon="5.41028">
        <ele>746.8</ele>
        <time>2012-03-19T13:44:52Z</time>
      </trkpt>
      <trkpt lat="43.81399" lon="5.41032">
        <ele>751.1</ele>
        <time>2012-03-19T13:44:59Z</time>
      </trkpt>
      <trkpt lat="43.81387" lon="5.41036">
        <ele>754</ele>
        <time>2012-03-19T13:45:05Z</time>
      </trkpt>
      <trkpt lat="43.81372" lon="5.41044">
        <ele>757.9</ele>
        <time>2012-03-19T13:45:11Z</time>
      </trkpt>
      <trkpt lat="43.81365" lon="5.4105">
        <ele>759.4</ele>
        <time>2012-03-19T13:45:14Z</time>
      </trkpt>
      <trkpt lat="43.81358" lon="5.41056">
        <ele>760.7</ele>
        <time>2012-03-19T13:45:17Z</time>
      </trkpt>
      <trkpt lat="43.81346" lon="5.41058">
        <ele>764.1</ele>
        <time>2012-03-19T13:45:23Z</time>
      </trkpt>
      <trkpt lat="43.81332" lon="5.41059">
        <ele>767.3</ele>
        <time>2012-03-19T13:45:28Z</time>
      </trkpt>
      <trkpt lat="43.81323" lon="5.4106">
        <ele>769.8</ele>
        <time>2012-03-19T13:45:31Z</time>
      </trkpt>
      <trkpt lat="43.81319" lon="5.41062">
        <ele>771.3</ele>
        <time>2012-03-19T13:45:33Z</time>
      </trkpt>
      <trkpt lat="43.8131" lon="5.41063">
        <ele>773.8</ele>
        <time>2012-03-19T13:45:37Z</time>
      </trkpt>
      <trkpt lat="43.81306" lon="5.41063">
        <ele>775.1</ele>
        <time>2012-03-19T13:45:39Z</time>
      </trkpt>
      <trkpt lat="43.81294" lon="5.41062">
        <ele>777.9</ele>
        <time>2012-03-19T13:45:43Z</time>
      </trkpt>
      <trkpt lat="43.81293" lon="5.41062">
        <ele>778.3</ele>
        <time>2012-03-19T13:45:44Z</time>
      </trkpt>
      <trkpt lat="43.8128" lon="5.41054">
        <ele>780.7</ele>
        <time>2012-03-19T13:45:49Z</time>
      </trkpt>
      <trkpt lat="43.81278" lon="5.41053">
        <ele>781.4</ele>
        <time>2012-03-19T13:45:50Z</time>
      </trkpt>
      <trkpt lat="43.81275" lon="5.41054">
        <ele>782</ele>
        <time>2012-03-19T13:45:51Z</time>
      </trkpt>
      <trkpt lat="43.81274" lon="5.41056">
        <ele>782</ele>
        <time>2012-03-19T13:45:52Z</time>
      </trkpt>
      <trkpt lat="43.81272" lon="5.41059">
        <ele>783</ele>
        <time>2012-03-19T13:45:53Z</time>
      </trkpt>
      <trkpt lat="43.81272" lon="5.41061">
        <ele>783.5</ele>
        <time>2012-03-19T13:45:54Z</time>
      </trkpt>
      <trkpt lat="43.81272" lon="5.41065">
        <ele>784.2</ele>
        <time>2012-03-19T13:45:55Z</time>
      </trkpt>
      <trkpt lat="43.81277" lon="5.4107">
        <ele>783.7</ele>
        <time>2012-03-19T13:45:57Z</time>
      </trkpt>
      <trkpt lat="43.81283" lon="5.41078">
        <ele>783.5</ele>
        <time>2012-03-19T13:46:01Z</time>
      </trkpt>
      <trkpt lat="43.81288" lon="5.41085">
        <ele>783.7</ele>
        <time>2012-03-19T13:46:03Z</time>
      </trkpt>
      <trkpt lat="43.81285" lon="5.41087">
        <ele>785.3</ele>
        <time>2012-03-19T13:46:04Z</time>
      </trkpt>
      <trkpt lat="43.81282" lon="5.41087">
        <ele>786.3</ele>
        <time>2012-03-19T13:46:06Z</time>
      </trkpt>
      <trkpt lat="43.8128" lon="5.41086">
        <ele>786.5</ele>
        <time>2012-03-19T13:46:07Z</time>
      </trkpt>
      <trkpt lat="43.81267" lon="5.41081">
        <ele>788.8</ele>
        <time>2012-03-19T13:46:12Z</time>
      </trkpt>
      <trkpt lat="43.81254" lon="5.4108">
        <ele>792</ele>
        <time>2012-03-19T13:46:17Z</time>
      </trkpt>
      <trkpt lat="43.81246" lon="5.41081">
        <ele>795</ele>
        <time>2012-03-19T13:46:21Z</time>
      </trkpt>
      <trkpt lat="43.81242" lon="5.4108">
        <ele>796.2</ele>
        <time>2012-03-19T13:46:22Z</time>
      </trkpt>
      <trkpt lat="43.8124" lon="5.4108">
        <ele>797</ele>
        <time>2012-03-19T13:46:23Z</time>
      </trkpt>
      <trkpt lat="43.81238" lon="5.41081">
        <ele>797.8</ele>
        <time>2012-03-19T13:46:24Z</time>
      </trkpt>
      <trkpt lat="43.81238" lon="5.41084">
        <ele>798.6</ele>
        <time>2012-03-19T13:46:25Z</time>
      </trkpt>
      <trkpt lat="43.81241" lon="5.41088">
        <ele>799.2</ele>
        <time>2012-03-19T13:46:26Z</time>
      </trkpt>
      <trkpt lat="43.81244" lon="5.41093">
        <ele>800.1</ele>
        <time>2012-03-19T13:46:28Z</time>
      </trkpt>
      <trkpt lat="43.81247" lon="5.41098">
        <ele>801</ele>
        <time>2012-03-19T13:46:30Z</time>
      </trkpt>
      <trkpt lat="43.81251" lon="5.41104">
        <ele>802.6</ele>
        <time>2012-03-19T13:46:32Z</time>
      </trkpt>
      <trkpt lat="43.81252" lon="5.41107">
        <ele>803.7</ele>
        <time>2012-03-19T13:46:33Z</time>
      </trkpt>
      <trkpt lat="43.81252" lon="5.4111">
        <ele>805.2</ele>
        <time>2012-03-19T13:46:34Z</time>
      </trkpt>
      <trkpt lat="43.81251" lon="5.41112">
        <ele>806.2</ele>
        <time>2012-03-19T13:46:35Z</time>
      </trkpt>
      <trkpt lat="43.81248" lon="5.41113">
        <ele>807.3</ele>
        <time>2012-03-19T13:46:36Z</time>
      </trkpt>
      <trkpt lat="43.81241" lon="5.41109">
        <ele>807.5</ele>
        <time>2012-03-19T13:46:39Z</time>
      </trkpt>
      <trkpt lat="43.81229" lon="5.411">
        <ele>807.5</ele>
        <time>2012-03-19T13:46:45Z</time>
      </trkpt>
      <trkpt lat="43.81223" lon="5.41098">
        <ele>808.7</ele>
        <time>2012-03-19T13:46:47Z</time>
      </trkpt>
      <trkpt lat="43.8122" lon="5.41098">
        <ele>809.4</ele>
        <time>2012-03-19T13:46:48Z</time>
      </trkpt>
      <trkpt lat="43.81205" lon="5.41093">
        <ele>813.8</ele>
        <time>2012-03-19T13:46:54Z</time>
      </trkpt>
      <trkpt lat="43.81197" lon="5.41087">
        <ele>815.1</ele>
        <time>2012-03-19T13:46:58Z</time>
      </trkpt>
      <trkpt lat="43.81185" lon="5.4108">
        <ele>817.4</ele>
        <time>2012-03-19T13:47:03Z</time>
      </trkpt>
      <trkpt lat="43.81182" lon="5.41078">
        <ele>818.3</ele>
        <time>2012-03-19T13:47:04Z</time>
      </trkpt>
      <trkpt lat="43.81177" lon="5.41081">
        <ele>820.8</ele>
        <time>2012-03-19T13:47:07Z</time>
      </trkpt>
      <trkpt lat="43.81175" lon="5.41084">
        <ele>822.3</ele>
        <time>2012-03-19T13:47:08Z</time>
      </trkpt>
      <trkpt lat="43.81177" lon="5.41092">
        <ele>823.7</ele>
        <time>2012-03-19T13:47:10Z</time>
      </trkpt>
      <trkpt lat="43.81182" lon="5.41104">
        <ele>825.1</ele>
        <time>2012-03-19T13:47:14Z</time>
      </trkpt>
      <trkpt lat="43.81185" lon="5.41114">
        <ele>827</ele>
        <time>2012-03-19T13:47:17Z</time>
      </trkpt>
      <trkpt lat="43.81189" lon="5.41121">
        <ele>828.1</ele>
        <time>2012-03-19T13:47:20Z</time>
      </trkpt>
      <trkpt lat="43.81192" lon="5.41124">
        <ele>828.6</ele>
        <time>2012-03-19T13:47:21Z</time>
      </trkpt>
      <trkpt lat="43.81192" lon="5.41126">
        <ele>829.2</ele>
        <time>2012-03-19T13:47:22Z</time>
      </trkpt>
      <trkpt lat="43.81188" lon="5.41128">
        <ele>830.8</ele>
        <time>2012-03-19T13:47:24Z</time>
      </trkpt>
      <trkpt lat="43.81184" lon="5.41127">
        <ele>831.9</ele>
        <time>2012-03-19T13:47:25Z</time>
      </trkpt>
      <trkpt lat="43.81179" lon="5.41125">
        <ele>832.7</ele>
        <time>2012-03-19T13:47:27Z</time>
      </trkpt>
      <trkpt lat="43.81172" lon="5.41123">
        <ele>833.9</ele>
        <time>2012-03-19T13:47:30Z</time>
      </trkpt>
      <trkpt lat="43.81158" lon="5.41119">
        <ele>836.6</ele>
        <time>2012-03-19T13:47:36Z</time>
      </trkpt>
      <trkpt lat="43.81148" lon="5.41113">
        <ele>838.5</ele>
        <time>2012-03-19T13:47:40Z</time>
      </trkpt>
      <trkpt lat="43.81131" lon="5.41103">
        <ele>841.6</ele>
        <time>2012-03-19T13:47:47Z</time>
      </trkpt>
      <trkpt lat="43.81118" lon="5.41102">
        <ele>845</ele>
        <time>2012-03-19T13:47:53Z</time>
      </trkpt>
      <trkpt lat="43.81114" lon="5.41104">
        <ele>846</ele>
        <time>2012-03-19T13:47:54Z</time>
      </trkpt>
      <trkpt lat="43.81111" lon="5.41108">
        <ele>846.8</ele>
        <time>2012-03-19T13:47:56Z</time>
      </trkpt>
      <trkpt lat="43.81109" lon="5.41119">
        <ele>848.4</ele>
        <time>2012-03-19T13:48:00Z</time>
      </trkpt>
      <trkpt lat="43.81103" lon="5.41133">
        <ele>850.7</ele>
        <time>2012-03-19T13:48:04Z</time>
      </trkpt>
      <trkpt lat="43.81098" lon="5.41144">
        <ele>852.3</ele>
        <time>2012-03-19T13:48:08Z</time>
      </trkpt>
      <trkpt lat="43.81095" lon="5.41151">
        <ele>853.2</ele>
        <time>2012-03-19T13:48:10Z</time>
      </trkpt>
      <trkpt lat="43.81094" lon="5.41159">
        <ele>853.8</ele>
        <time>2012-03-19T13:48:13Z</time>
      </trkpt>
      <trkpt lat="43.81093" lon="5.41168">
        <ele>854.2</ele>
        <time>2012-03-19T13:48:15Z</time>
      </trkpt>
      <trkpt lat="43.81096" lon="5.41176">
        <ele>854</ele>
        <time>2012-03-19T13:48:18Z</time>
      </trkpt>
      <trkpt lat="43.811" lon="5.41183">
        <ele>854</ele>
        <time>2012-03-19T13:48:20Z</time>
      </trkpt>
      <trkpt lat="43.81106" lon="5.4119">
        <ele>854.5</ele>
        <time>2012-03-19T13:48:24Z</time>
      </trkpt>
      <trkpt lat="43.81122" lon="5.41206">
        <ele>855.2</ele>
        <time>2012-03-19T13:48:31Z</time>
      </trkpt>
      <trkpt lat="43.81128" lon="5.41213">
        <ele>856</ele>
        <time>2012-03-19T13:48:35Z</time>
      </trkpt>
      <trkpt lat="43.8113" lon="5.41215">
        <ele>856.3</ele>
        <time>2012-03-19T13:48:35Z</time>
      </trkpt>
      <trkpt lat="43.81141" lon="5.4123">
        <ele>858.2</ele>
        <time>2012-03-19T13:48:42Z</time>
      </trkpt>
      <trkpt lat="43.81149" lon="5.41258">
        <ele>859.5</ele>
        <time>2012-03-19T13:48:50Z</time>
      </trkpt>
      <trkpt lat="43.81156" lon="5.41291">
        <ele>860.1</ele>
        <time>2012-03-19T13:49:00Z</time>
      </trkpt>
      <trkpt lat="43.81158" lon="5.41317">
        <ele>860.2</ele>
        <time>2012-03-19T13:49:08Z</time>
      </trkpt>
      <trkpt lat="43.81157" lon="5.41337">
        <ele>859.9</ele>
        <time>2012-03-19T13:49:14Z</time>
      </trkpt>
      <trkpt lat="43.81156" lon="5.41354">
        <ele>859.6</ele>
        <time>2012-03-19T13:49:18Z</time>
      </trkpt>
      <trkpt lat="43.81154" lon="5.41371">
        <ele>859.4</ele>
        <time>2012-03-19T13:49:24Z</time>
      </trkpt>
      <trkpt lat="43.81153" lon="5.41395">
        <ele>859</ele>
        <time>2012-03-19T13:49:30Z</time>
      </trkpt>
      <trkpt lat="43.81157" lon="5.41411">
        <ele>858.8</ele>
        <time>2012-03-19T13:49:35Z</time>
      </trkpt>
      <trkpt lat="43.81164" lon="5.41417">
        <ele>860.1</ele>
        <time>2012-03-19T13:49:38Z</time>
      </trkpt>
      <trkpt lat="43.81169" lon="5.41425">
        <ele>860.1</ele>
        <time>2012-03-19T13:49:42Z</time>
      </trkpt>
      <trkpt lat="43.81177" lon="5.41436">
        <ele>859.9</ele>
        <time>2012-03-19T13:49:46Z</time>
      </trkpt>
      <trkpt lat="43.81199" lon="5.41462">
        <ele>860.6</ele>
        <time>2012-03-19T13:49:58Z</time>
      </trkpt>
      <trkpt lat="43.81206" lon="5.41471">
        <ele>860.7</ele>
        <time>2012-03-19T13:50:02Z</time>
      </trkpt>
      <trkpt lat="43.8122" lon="5.41501">
        <ele>860.4</ele>
        <time>2012-03-19T13:50:12Z</time>
      </trkpt>
      <trkpt lat="43.81235" lon="5.41549">
        <ele>859.1</ele>
        <time>2012-03-19T13:50:27Z</time>
      </trkpt>
      <trkpt lat="43.81246" lon="5.41567">
        <ele>860.9</ele>
        <time>2012-03-19T13:50:34Z</time>
      </trkpt>
      <trkpt lat="43.81252" lon="5.41573">
        <ele>861.8</ele>
        <time>2012-03-19T13:50:37Z</time>
      </trkpt>
      <trkpt lat="43.81267" lon="5.41588">
        <ele>861.3</ele>
        <time>2012-03-19T13:50:44Z</time>
      </trkpt>
      <trkpt lat="43.81278" lon="5.41601">
        <ele>861.4</ele>
        <time>2012-03-19T13:50:50Z</time>
      </trkpt>
      <trkpt lat="43.8128" lon="5.41609">
        <ele>861.1</ele>
        <time>2012-03-19T13:50:53Z</time>
      </trkpt>
      <trkpt lat="43.81281" lon="5.41631">
        <ele>862.4</ele>
        <time>2012-03-19T13:50:59Z</time>
      </trkpt>
      <trkpt lat="43.81281" lon="5.41653">
        <ele>864.1</ele>
        <time>2012-03-19T13:51:05Z</time>
      </trkpt>
      <trkpt lat="43.8128" lon="5.41675">
        <ele>865.7</ele>
        <time>2012-03-19T13:51:12Z</time>
      </trkpt>
      <trkpt lat="43.8128" lon="5.41693">
        <ele>867.1</ele>
        <time>2012-03-19T13:51:17Z</time>
      </trkpt>
      <trkpt lat="43.8128" lon="5.41698">
        <ele>867.4</ele>
        <time>2012-03-19T13:51:18Z</time>
      </trkpt>
      <trkpt lat="43.81275" lon="5.41734">
        <ele>869.7</ele>
        <time>2012-03-19T13:51:29Z</time>
      </trkpt>
      <trkpt lat="43.81275" lon="5.41735">
        <ele>869.8</ele>
        <time>2012-03-19T13:51:29Z</time>
      </trkpt>
      <trkpt lat="43.81267" lon="5.41758">
        <ele>870.9</ele>
        <time>2012-03-19T13:51:36Z</time>
      </trkpt>
      <trkpt lat="43.8126" lon="5.41784">
        <ele>873</ele>
        <time>2012-03-19T13:51:44Z</time>
      </trkpt>
      <trkpt lat="43.81257" lon="5.41799">
        <ele>873.9</ele>
        <time>2012-03-19T13:51:49Z</time>
      </trkpt>
      <trkpt lat="43.81254" lon="5.41811">
        <ele>874.5</ele>
        <time>2012-03-19T13:51:52Z</time>
      </trkpt>
      <trkpt lat="43.81254" lon="5.4182">
        <ele>875</ele>
        <time>2012-03-19T13:51:55Z</time>
      </trkpt>
      <trkpt lat="43.81253" lon="5.41827">
        <ele>875.4</ele>
        <time>2012-03-19T13:51:57Z</time>
      </trkpt>
      <trkpt lat="43.81255" lon="5.41846">
        <ele>875.3</ele>
        <time>2012-03-19T13:52:03Z</time>
      </trkpt>
      <trkpt lat="43.81255" lon="5.41848">
        <ele>875.3</ele>
        <time>2012-03-19T13:52:03Z</time>
      </trkpt>
      <trkpt lat="43.81265" lon="5.4188">
        <ele>876.9</ele>
        <time>2012-03-19T13:52:13Z</time>
      </trkpt>
      <trkpt lat="43.81296" lon="5.41929">
        <ele>884.6</ele>
        <time>2012-03-19T13:52:32Z</time>
      </trkpt>
      <trkpt lat="43.81302" lon="5.41947">
        <ele>885.5</ele>
        <time>2012-03-19T13:52:38Z</time>
      </trkpt>
      <trkpt lat="43.81304" lon="5.41955">
        <ele>886</ele>
        <time>2012-03-19T13:52:40Z</time>
      </trkpt>
      <trkpt lat="43.81307" lon="5.41988">
        <ele>886.8</ele>
        <time>2012-03-19T13:52:50Z</time>
      </trkpt>
      <trkpt lat="43.81308" lon="5.41992">
        <ele>887</ele>
        <time>2012-03-19T13:52:51Z</time>
      </trkpt>
      <trkpt lat="43.81314" lon="5.42038">
        <ele>889.6</ele>
        <time>2012-03-19T13:53:05Z</time>
      </trkpt>
      <trkpt lat="43.81318" lon="5.42059">
        <ele>890.7</ele>
        <time>2012-03-19T13:53:11Z</time>
      </trkpt>
      <trkpt lat="43.8132" lon="5.42078">
        <ele>891.8</ele>
        <time>2012-03-19T13:53:16Z</time>
      </trkpt>
      <trkpt lat="43.81324" lon="5.42097">
        <ele>893.5</ele>
        <time>2012-03-19T13:53:22Z</time>
      </trkpt>
      <trkpt lat="43.81327" lon="5.42122">
        <ele>894.1</ele>
        <time>2012-03-19T13:53:29Z</time>
      </trkpt>
      <trkpt lat="43.81329" lon="5.42138">
        <ele>894.5</ele>
        <time>2012-03-19T13:53:34Z</time>
      </trkpt>
      <trkpt lat="43.81329" lon="5.42162">
        <ele>894.7</ele>
        <time>2012-03-19T13:53:41Z</time>
      </trkpt>
      <trkpt lat="43.81329" lon="5.42171">
        <ele>895.1</ele>
        <time>2012-03-19T13:53:44Z</time>
      </trkpt>
      <trkpt lat="43.81328" lon="5.42185">
        <ele>895.8</ele>
        <time>2012-03-19T13:53:48Z</time>
      </trkpt>
      <trkpt lat="43.81331" lon="5.42198">
        <ele>896.8</ele>
        <time>2012-03-19T13:53:52Z</time>
      </trkpt>
      <trkpt lat="43.81332" lon="5.42211">
        <ele>897.5</ele>
        <time>2012-03-19T13:53:55Z</time>
      </trkpt>
      <trkpt lat="43.81339" lon="5.42236">
        <ele>898.1</ele>
        <time>2012-03-19T13:54:03Z</time>
      </trkpt>
      <trkpt lat="43.81346" lon="5.42258">
        <ele>898.9</ele>
        <time>2012-03-19T13:54:10Z</time>
      </trkpt>
      <trkpt lat="43.81356" lon="5.4228">
        <ele>899.7</ele>
        <time>2012-03-19T13:54:18Z</time>
      </trkpt>
      <trkpt lat="43.81363" lon="5.42302">
        <ele>900.9</ele>
        <time>2012-03-19T13:54:25Z</time>
      </trkpt>
      <trkpt lat="43.81371" lon="5.42315">
        <ele>900.4</ele>
        <time>2012-03-19T13:54:30Z</time>
      </trkpt>
      <trkpt lat="43.81374" lon="5.42332">
        <ele>902</ele>
        <time>2012-03-19T13:54:35Z</time>
      </trkpt>
      <trkpt lat="43.81374" lon="5.42363">
        <ele>902.3</ele>
        <time>2012-03-19T13:54:44Z</time>
      </trkpt>
      <trkpt lat="43.8137" lon="5.42391">
        <ele>901.6</ele>
        <time>2012-03-19T13:54:52Z</time>
      </trkpt>
      <trkpt lat="43.81359" lon="5.42416">
        <ele>902.9</ele>
        <time>2012-03-19T13:55:00Z</time>
      </trkpt>
      <trkpt lat="43.81352" lon="5.42432">
        <ele>903.3</ele>
        <time>2012-03-19T13:55:06Z</time>
      </trkpt>
      <trkpt lat="43.81341" lon="5.42457">
        <ele>903.8</ele>
        <time>2012-03-19T13:55:14Z</time>
      </trkpt>
      <trkpt lat="43.81338" lon="5.42469">
        <ele>903.4</ele>
        <time>2012-03-19T13:55:18Z</time>
      </trkpt>
      <trkpt lat="43.81337" lon="5.42473">
        <ele>903.5</ele>
        <time>2012-03-19T13:55:19Z</time>
      </trkpt>
      <trkpt lat="43.81331" lon="5.42492">
        <ele>904.5</ele>
        <time>2012-03-19T13:55:25Z</time>
      </trkpt>
      <trkpt lat="43.8133" lon="5.42502">
        <ele>904.9</ele>
        <time>2012-03-19T13:55:28Z</time>
      </trkpt>
      <trkpt lat="43.81329" lon="5.42516">
        <ele>906.2</ele>
        <time>2012-03-19T13:55:32Z</time>
      </trkpt>
      <trkpt lat="43.8133" lon="5.42526">
        <ele>906.1</ele>
        <time>2012-03-19T13:55:35Z</time>
      </trkpt>
      <trkpt lat="43.81335" lon="5.42535">
        <ele>905.4</ele>
        <time>2012-03-19T13:55:38Z</time>
      </trkpt>
      <trkpt lat="43.81341" lon="5.42552">
        <ele>905.5</ele>
        <time>2012-03-19T13:55:43Z</time>
      </trkpt>
      <trkpt lat="43.81347" lon="5.42567">
        <ele>906.1</ele>
        <time>2012-03-19T13:55:49Z</time>
      </trkpt>
      <trkpt lat="43.81364" lon="5.42602">
        <ele>907.4</ele>
        <time>2012-03-19T13:56:01Z</time>
      </trkpt>
      <trkpt lat="43.81374" lon="5.42631">
        <ele>908.8</ele>
        <time>2012-03-19T13:56:10Z</time>
      </trkpt>
      <trkpt lat="43.81375" lon="5.4266">
        <ele>909.4</ele>
        <time>2012-03-19T13:56:18Z</time>
      </trkpt>
      <trkpt lat="43.81374" lon="5.42683">
        <ele>908.8</ele>
        <time>2012-03-19T13:56:25Z</time>
      </trkpt>
      <trkpt lat="43.81373" lon="5.42706">
        <ele>908.5</ele>
        <time>2012-03-19T13:56:32Z</time>
      </trkpt>
      <trkpt lat="43.81367" lon="5.42738">
        <ele>910.1</ele>
        <time>2012-03-19T13:56:41Z</time>
      </trkpt>
      <trkpt lat="43.81363" lon="5.42754">
        <ele>910.8</ele>
        <time>2012-03-19T13:56:46Z</time>
      </trkpt>
      <trkpt lat="43.81358" lon="5.42766">
        <ele>911.5</ele>
        <time>2012-03-19T13:56:50Z</time>
      </trkpt>
      <trkpt lat="43.81352" lon="5.4278">
        <ele>912.1</ele>
        <time>2012-03-19T13:56:55Z</time>
      </trkpt>
      <trkpt lat="43.81347" lon="5.42793">
        <ele>912.2</ele>
        <time>2012-03-19T13:56:59Z</time>
      </trkpt>
      <trkpt lat="43.81341" lon="5.42801">
        <ele>912.9</ele>
        <time>2012-03-19T13:57:02Z</time>
      </trkpt>
      <trkpt lat="43.81334" lon="5.42816">
        <ele>913.1</ele>
        <time>2012-03-19T13:57:08Z</time>
      </trkpt>
      <trkpt lat="43.81325" lon="5.42825">
        <ele>914</ele>
        <time>2012-03-19T13:57:12Z</time>
      </trkpt>
      <trkpt lat="43.8132" lon="5.42829">
        <ele>914.8</ele>
        <time>2012-03-19T13:57:14Z</time>
      </trkpt>
      <trkpt lat="43.81316" lon="5.42834">
        <ele>915</ele>
        <time>2012-03-19T13:57:17Z</time>
      </trkpt>
      <trkpt lat="43.8131" lon="5.4284">
        <ele>914.8</ele>
        <time>2012-03-19T13:57:19Z</time>
      </trkpt>
      <trkpt lat="43.81299" lon="5.42851">
        <ele>915</ele>
        <time>2012-03-19T13:57:25Z</time>
      </trkpt>
      <trkpt lat="43.81295" lon="5.42854">
        <ele>915</ele>
        <time>2012-03-19T13:57:27Z</time>
      </trkpt>
      <trkpt lat="43.81295" lon="5.42855">
        <ele>914.9</ele>
        <time>2012-03-19T13:57:27Z</time>
      </trkpt>
      <trkpt lat="43.8128" lon="5.42864">
        <ele>915.9</ele>
        <time>2012-03-19T13:57:33Z</time>
      </trkpt>
      <trkpt lat="43.81253" lon="5.42874">
        <ele>917.7</ele>
        <time>2012-03-19T13:57:45Z</time>
      </trkpt>
      <trkpt lat="43.81238" lon="5.42874">
        <ele>920.4</ele>
        <time>2012-03-19T13:57:51Z</time>
      </trkpt>
      <trkpt lat="43.81226" lon="5.42877">
        <ele>921.2</ele>
        <time>2012-03-19T13:57:56Z</time>
      </trkpt>
      <trkpt lat="43.81208" lon="5.42883">
        <ele>921.6</ele>
        <time>2012-03-19T13:58:03Z</time>
      </trkpt>
      <trkpt lat="43.81187" lon="5.42895">
        <ele>922.5</ele>
        <time>2012-03-19T13:58:12Z</time>
      </trkpt>
      <trkpt lat="43.81172" lon="5.42912">
        <ele>922.6</ele>
        <time>2012-03-19T13:58:20Z</time>
      </trkpt>
      <trkpt lat="43.81165" lon="5.42928">
        <ele>921.5</ele>
        <time>2012-03-19T13:58:25Z</time>
      </trkpt>
      <trkpt lat="43.81157" lon="5.42942">
        <ele>922</ele>
        <time>2012-03-19T13:58:30Z</time>
      </trkpt>
      <trkpt lat="43.81147" lon="5.42962">
        <ele>923</ele>
        <time>2012-03-19T13:58:37Z</time>
      </trkpt>
      <trkpt lat="43.81141" lon="5.42979">
        <ele>923.5</ele>
        <time>2012-03-19T13:58:43Z</time>
      </trkpt>
      <trkpt lat="43.81141" lon="5.42981">
        <ele>923.4</ele>
        <time>2012-03-19T13:58:43Z</time>
      </trkpt>
      <trkpt lat="43.81131" lon="5.43016">
        <ele>924.4</ele>
        <time>2012-03-19T13:58:54Z</time>
      </trkpt>
      <trkpt lat="43.81127" lon="5.43027">
        <ele>924.8</ele>
        <time>2012-03-19T13:58:58Z</time>
      </trkpt>
      <trkpt lat="43.81118" lon="5.43048">
        <ele>926.4</ele>
        <time>2012-03-19T13:59:05Z</time>
      </trkpt>
      <trkpt lat="43.81111" lon="5.43064">
        <ele>927.2</ele>
        <time>2012-03-19T13:59:10Z</time>
      </trkpt>
      <trkpt lat="43.81104" lon="5.43073">
        <ele>927.1</ele>
        <time>2012-03-19T13:59:14Z</time>
      </trkpt>
      <trkpt lat="43.81099" lon="5.43077">
        <ele>927.4</ele>
        <time>2012-03-19T13:59:16Z</time>
      </trkpt>
      <trkpt lat="43.81089" lon="5.43083">
        <ele>928.2</ele>
        <time>2012-03-19T13:59:21Z</time>
      </trkpt>
      <trkpt lat="43.81078" lon="5.43088">
        <ele>928.7</ele>
        <time>2012-03-19T13:59:25Z</time>
      </trkpt>
      <trkpt lat="43.81072" lon="5.4309">
        <ele>928.7</ele>
        <time>2012-03-19T13:59:28Z</time>
      </trkpt>
      <trkpt lat="43.81067" lon="5.43093">
        <ele>928.7</ele>
        <time>2012-03-19T13:59:30Z</time>
      </trkpt>
      <trkpt lat="43.81054" lon="5.431">
        <ele>928.9</ele>
        <time>2012-03-19T13:59:36Z</time>
      </trkpt>
      <trkpt lat="43.81051" lon="5.43103">
        <ele>928.8</ele>
        <time>2012-03-19T13:59:37Z</time>
      </trkpt>
      <trkpt lat="43.81044" lon="5.43117">
        <ele>928.6</ele>
        <time>2012-03-19T13:59:42Z</time>
      </trkpt>
      <trkpt lat="43.81039" lon="5.4313">
        <ele>929</ele>
        <time>2012-03-19T13:59:46Z</time>
      </trkpt>
      <trkpt lat="43.81031" lon="5.43154">
        <ele>930.7</ele>
        <time>2012-03-19T13:59:54Z</time>
      </trkpt>
      <trkpt lat="43.8103" lon="5.43165">
        <ele>931.6</ele>
        <time>2012-03-19T13:59:57Z</time>
      </trkpt>
      <trkpt lat="43.81029" lon="5.43174">
        <ele>932.2</ele>
        <time>2012-03-19T14:00:00Z</time>
      </trkpt>
      <trkpt lat="43.81029" lon="5.43191">
        <ele>932.7</ele>
        <time>2012-03-19T14:00:05Z</time>
      </trkpt>
      <trkpt lat="43.8103" lon="5.43212">
        <ele>933.3</ele>
        <time>2012-03-19T14:00:11Z</time>
      </trkpt>
      <trkpt lat="43.81031" lon="5.43228">
        <ele>933.6</ele>
        <time>2012-03-19T14:00:16Z</time>
      </trkpt>
      <trkpt lat="43.81032" lon="5.43236">
        <ele>934</ele>
        <time>2012-03-19T14:00:18Z</time>
      </trkpt>
      <trkpt lat="43.81031" lon="5.43279">
        <ele>936.2</ele>
        <time>2012-03-19T14:00:30Z</time>
      </trkpt>
      <trkpt lat="43.8103" lon="5.43286">
        <ele>936.8</ele>
        <time>2012-03-19T14:00:32Z</time>
      </trkpt>
      <trkpt lat="43.8103" lon="5.43346">
        <ele>938</ele>
        <time>2012-03-19T14:00:50Z</time>
      </trkpt>
      <trkpt lat="43.81032" lon="5.43409">
        <ele>939.5</ele>
        <time>2012-03-19T14:01:08Z</time>
      </trkpt>
      <trkpt lat="43.81035" lon="5.43447">
        <ele>940.7</ele>
        <time>2012-03-19T14:01:19Z</time>
      </trkpt>
      <trkpt lat="43.81039" lon="5.43455">
        <ele>940.7</ele>
        <time>2012-03-19T14:01:22Z</time>
      </trkpt>
      <trkpt lat="43.81046" lon="5.43465">
        <ele>941</ele>
        <time>2012-03-19T14:01:26Z</time>
      </trkpt>
      <trkpt lat="43.8106" lon="5.4348">
        <ele>942.9</ele>
        <time>2012-03-19T14:01:33Z</time>
      </trkpt>
      <trkpt lat="43.81069" lon="5.43491">
        <ele>944.7</ele>
        <time>2012-03-19T14:01:38Z</time>
      </trkpt>
      <trkpt lat="43.8108" lon="5.43517">
        <ele>947.1</ele>
        <time>2012-03-19T14:01:47Z</time>
      </trkpt>
      <trkpt lat="43.81083" lon="5.43528">
        <ele>948</ele>
        <time>2012-03-19T14:01:50Z</time>
      </trkpt>
      <trkpt lat="43.81086" lon="5.43538">
        <ele>948</ele>
        <time>2012-03-19T14:01:53Z</time>
      </trkpt>
      <trkpt lat="43.81087" lon="5.4354">
        <ele>948.1</ele>
        <time>2012-03-19T14:01:54Z</time>
      </trkpt>
      <trkpt lat="43.81103" lon="5.43564">
        <ele>950.1</ele>
        <time>2012-03-19T14:02:03Z</time>
      </trkpt>
      <trkpt lat="43.8113" lon="5.43601">
        <ele>952.8</ele>
        <time>2012-03-19T14:02:18Z</time>
      </trkpt>
      <trkpt lat="43.81142" lon="5.43625">
        <ele>954.2</ele>
        <time>2012-03-19T14:02:27Z</time>
      </trkpt>
      <trkpt lat="43.81151" lon="5.43647">
        <ele>955.5</ele>
        <time>2012-03-19T14:02:34Z</time>
      </trkpt>
      <trkpt lat="43.81157" lon="5.43674">
        <ele>956.7</ele>
        <time>2012-03-19T14:02:42Z</time>
      </trkpt>
      <trkpt lat="43.81166" lon="5.4371">
        <ele>959.6</ele>
        <time>2012-03-19T14:02:53Z</time>
      </trkpt>
      <trkpt lat="43.8117" lon="5.43727">
        <ele>960.1</ele>
        <time>2012-03-19T14:02:58Z</time>
      </trkpt>
      <trkpt lat="43.81168" lon="5.43742">
        <ele>961.3</ele>
        <time>2012-03-19T14:03:03Z</time>
      </trkpt>
      <trkpt lat="43.81164" lon="5.43749">
        <ele>961.9</ele>
        <time>2012-03-19T14:03:05Z</time>
      </trkpt>
      <trkpt lat="43.81154" lon="5.43763">
        <ele>963.2</ele>
        <time>2012-03-19T14:03:11Z</time>
      </trkpt>
      <trkpt lat="43.81142" lon="5.43773">
        <ele>964.4</ele>
        <time>2012-03-19T14:03:17Z</time>
      </trkpt>
      <trkpt lat="43.81131" lon="5.43778">
        <ele>964.5</ele>
        <time>2012-03-19T14:03:21Z</time>
      </trkpt>
      <trkpt lat="43.81114" lon="5.43786">
        <ele>964.5</ele>
        <time>2012-03-19T14:03:28Z</time>
      </trkpt>
      <trkpt lat="43.81103" lon="5.43798">
        <ele>965.5</ele>
        <time>2012-03-19T14:03:34Z</time>
      </trkpt>
      <trkpt lat="43.81091" lon="5.43807">
        <ele>966.5</ele>
        <time>2012-03-19T14:03:40Z</time>
      </trkpt>
      <trkpt lat="43.81075" lon="5.43822">
        <ele>967.1</ele>
        <time>2012-03-19T14:03:47Z</time>
      </trkpt>
      <trkpt lat="43.81065" lon="5.43833">
        <ele>967.6</ele>
        <time>2012-03-19T14:03:52Z</time>
      </trkpt>
      <trkpt lat="43.81056" lon="5.43842">
        <ele>967.7</ele>
        <time>2012-03-19T14:03:57Z</time>
      </trkpt>
      <trkpt lat="43.8105" lon="5.43851">
        <ele>967.9</ele>
        <time>2012-03-19T14:04:00Z</time>
      </trkpt>
      <trkpt lat="43.81045" lon="5.43856">
        <ele>967.9</ele>
        <time>2012-03-19T14:04:03Z</time>
      </trkpt>
      <trkpt lat="43.81042" lon="5.43869">
        <ele>968.1</ele>
        <time>2012-03-19T14:04:07Z</time>
      </trkpt>
      <trkpt lat="43.81044" lon="5.43879">
        <ele>968.1</ele>
        <time>2012-03-19T14:04:10Z</time>
      </trkpt>
      <trkpt lat="43.81051" lon="5.43893">
        <ele>968.2</ele>
        <time>2012-03-19T14:04:15Z</time>
      </trkpt>
      <trkpt lat="43.81058" lon="5.43908">
        <ele>967.1</ele>
        <time>2012-03-19T14:04:20Z</time>
      </trkpt>
      <trkpt lat="43.81084" lon="5.43934">
        <ele>965.5</ele>
        <time>2012-03-19T14:04:32Z</time>
      </trkpt>
      <trkpt lat="43.81099" lon="5.43943">
        <ele>965.8</ele>
        <time>2012-03-19T14:04:39Z</time>
      </trkpt>
      <trkpt lat="43.81117" lon="5.43957">
        <ele>964.9</ele>
        <time>2012-03-19T14:04:47Z</time>
      </trkpt>
      <trkpt lat="43.81126" lon="5.43962">
        <ele>964.3</ele>
        <time>2012-03-19T14:04:51Z</time>
      </trkpt>
      <trkpt lat="43.81129" lon="5.43964">
        <ele>964.1</ele>
        <time>2012-03-19T14:04:53Z</time>
      </trkpt>
      <trkpt lat="43.81162" lon="5.43984">
        <ele>961</ele>
        <time>2012-03-19T14:05:07Z</time>
      </trkpt>
      <trkpt lat="43.81169" lon="5.43986">
        <ele>960.4</ele>
        <time>2012-03-19T14:05:10Z</time>
      </trkpt>
      <trkpt lat="43.81185" lon="5.43989">
        <ele>958.7</ele>
        <time>2012-03-19T14:05:16Z</time>
      </trkpt>
      <trkpt lat="43.81201" lon="5.43993">
        <ele>956.7</ele>
        <time>2012-03-19T14:05:23Z</time>
      </trkpt>
      <trkpt lat="43.81236" lon="5.43995">
        <ele>953.9</ele>
        <time>2012-03-19T14:05:37Z</time>
      </trkpt>
      <trkpt lat="43.81239" lon="5.43995">
        <ele>953.7</ele>
        <time>2012-03-19T14:05:38Z</time>
      </trkpt>
      <trkpt lat="43.8126" lon="5.44">
        <ele>952.6</ele>
        <time>2012-03-19T14:05:47Z</time>
      </trkpt>
      <trkpt lat="43.81273" lon="5.44016">
        <ele>952.4</ele>
        <time>2012-03-19T14:05:54Z</time>
      </trkpt>
      <trkpt lat="43.8128" lon="5.44034">
        <ele>952.6</ele>
        <time>2012-03-19T14:05:59Z</time>
      </trkpt>
      <trkpt lat="43.81288" lon="5.44056">
        <ele>951.7</ele>
        <time>2012-03-19T14:06:07Z</time>
      </trkpt>
      <trkpt lat="43.81295" lon="5.44075">
        <ele>951.5</ele>
        <time>2012-03-19T14:06:13Z</time>
      </trkpt>
      <trkpt lat="43.81318" lon="5.44099">
        <ele>953.3</ele>
        <time>2012-03-19T14:06:24Z</time>
      </trkpt>
      <trkpt lat="43.81327" lon="5.44105">
        <ele>954.4</ele>
        <time>2012-03-19T14:06:28Z</time>
      </trkpt>
      <trkpt lat="43.8135" lon="5.44119">
        <ele>955.9</ele>
        <time>2012-03-19T14:06:38Z</time>
      </trkpt>
      <trkpt lat="43.81365" lon="5.44124">
        <ele>956.5</ele>
        <time>2012-03-19T14:06:44Z</time>
      </trkpt>
      <trkpt lat="43.81374" lon="5.44125">
        <ele>956.2</ele>
        <time>2012-03-19T14:06:48Z</time>
      </trkpt>
      <trkpt lat="43.81377" lon="5.44125">
        <ele>956.2</ele>
        <time>2012-03-19T14:06:49Z</time>
      </trkpt>
      <trkpt lat="43.81425" lon="5.4411">
        <ele>957</ele>
        <time>2012-03-19T14:07:09Z</time>
      </trkpt>
      <trkpt lat="43.81475" lon="5.44104">
        <ele>955.6</ele>
        <time>2012-03-19T14:07:29Z</time>
      </trkpt>
      <trkpt lat="43.81501" lon="5.44103">
        <ele>954.5</ele>
        <time>2012-03-19T14:07:40Z</time>
      </trkpt>
      <trkpt lat="43.81527" lon="5.44108">
        <ele>953.8</ele>
        <time>2012-03-19T14:07:50Z</time>
      </trkpt>
      <trkpt lat="43.81544" lon="5.44125">
        <ele>953.8</ele>
        <time>2012-03-19T14:07:59Z</time>
      </trkpt>
      <trkpt lat="43.81559" lon="5.44149">
        <ele>955</ele>
        <time>2012-03-19T14:08:08Z</time>
      </trkpt>
      <trkpt lat="43.81568" lon="5.44168">
        <ele>955.5</ele>
        <time>2012-03-19T14:08:14Z</time>
      </trkpt>
      <trkpt lat="43.81572" lon="5.4419">
        <ele>955.8</ele>
        <time>2012-03-19T14:08:21Z</time>
      </trkpt>
      <trkpt lat="43.81574" lon="5.44217">
        <ele>956</ele>
        <time>2012-03-19T14:08:29Z</time>
      </trkpt>
      <trkpt lat="43.81576" lon="5.44244">
        <ele>956.8</ele>
        <time>2012-03-19T14:08:36Z</time>
      </trkpt>
      <trkpt lat="43.81579" lon="5.44277">
        <ele>958.1</ele>
        <time>2012-03-19T14:08:46Z</time>
      </trkpt>
      <trkpt lat="43.81583" lon="5.44309">
        <ele>957.9</ele>
        <time>2012-03-19T14:08:55Z</time>
      </trkpt>
      <trkpt lat="43.81589" lon="5.44335">
        <ele>958.9</ele>
        <time>2012-03-19T14:09:03Z</time>
      </trkpt>
      <trkpt lat="43.81598" lon="5.44367">
        <ele>958.5</ele>
        <time>2012-03-19T14:09:13Z</time>
      </trkpt>
      <trkpt lat="43.81602" lon="5.44376">
        <ele>958.8</ele>
        <time>2012-03-19T14:09:16Z</time>
      </trkpt>
      <trkpt lat="43.81616" lon="5.44407">
        <ele>959.3</ele>
        <time>2012-03-19T14:09:27Z</time>
      </trkpt>
      <trkpt lat="43.81625" lon="5.44427">
        <ele>960.1</ele>
        <time>2012-03-19T14:09:33Z</time>
      </trkpt>
      <trkpt lat="43.81631" lon="5.44437">
        <ele>961</ele>
        <time>2012-03-19T14:09:37Z</time>
      </trkpt>
      <trkpt lat="43.81633" lon="5.44454">
        <ele>961.2</ele>
        <time>2012-03-19T14:09:42Z</time>
      </trkpt>
      <trkpt lat="43.81632" lon="5.44465">
        <ele>961</ele>
        <time>2012-03-19T14:09:46Z</time>
      </trkpt>
      <trkpt lat="43.81629" lon="5.44479">
        <ele>960.6</ele>
        <time>2012-03-19T14:09:50Z</time>
      </trkpt>
      <trkpt lat="43.81624" lon="5.44494">
        <ele>960.2</ele>
        <time>2012-03-19T14:09:54Z</time>
      </trkpt>
      <trkpt lat="43.81619" lon="5.44515">
        <ele>959.9</ele>
        <time>2012-03-19T14:10:01Z</time>
      </trkpt>
      <trkpt lat="43.81617" lon="5.44532">
        <ele>960.2</ele>
        <time>2012-03-19T14:10:06Z</time>
      </trkpt>
      <trkpt lat="43.81614" lon="5.44545">
        <ele>960.2</ele>
        <time>2012-03-19T14:10:10Z</time>
      </trkpt>
      <trkpt lat="43.81612" lon="5.44567">
        <ele>960.2</ele>
        <time>2012-03-19T14:10:16Z</time>
      </trkpt>
      <trkpt lat="43.81613" lon="5.44582">
        <ele>960.4</ele>
        <time>2012-03-19T14:10:20Z</time>
      </trkpt>
      <trkpt lat="43.81617" lon="5.44598">
        <ele>960.2</ele>
        <time>2012-03-19T14:10:25Z</time>
      </trkpt>
      <trkpt lat="43.8162" lon="5.44607">
        <ele>960.2</ele>
        <time>2012-03-19T14:10:28Z</time>
      </trkpt>
      <trkpt lat="43.81622" lon="5.4461">
        <ele>960.3</ele>
        <time>2012-03-19T14:10:29Z</time>
      </trkpt>
      <trkpt lat="43.81625" lon="5.44616">
        <ele>960.3</ele>
        <time>2012-03-19T14:10:32Z</time>
      </trkpt>
      <trkpt lat="43.81634" lon="5.44627">
        <ele>960.9</ele>
        <time>2012-03-19T14:10:36Z</time>
      </trkpt>
      <trkpt lat="43.81641" lon="5.44637">
        <ele>961</ele>
        <time>2012-03-19T14:10:40Z</time>
      </trkpt>
      <trkpt lat="43.81648" lon="5.44644">
        <ele>961</ele>
        <time>2012-03-19T14:10:44Z</time>
      </trkpt>
      <trkpt lat="43.81651" lon="5.44648">
        <ele>960.7</ele>
        <time>2012-03-19T14:10:45Z</time>
      </trkpt>
      <trkpt lat="43.81674" lon="5.44666">
        <ele>960.6</ele>
        <time>2012-03-19T14:10:56Z</time>
      </trkpt>
      <trkpt lat="43.81683" lon="5.44667">
        <ele>961.1</ele>
        <time>2012-03-19T14:11:00Z</time>
      </trkpt>
      <trkpt lat="43.81716" lon="5.4467">
        <ele>961</ele>
        <time>2012-03-19T14:11:13Z</time>
      </trkpt>
      <trkpt lat="43.81721" lon="5.44671">
        <ele>960.8</ele>
        <time>2012-03-19T14:11:15Z</time>
      </trkpt>
      <trkpt lat="43.81754" lon="5.44671">
        <ele>961.7</ele>
        <time>2012-03-19T14:11:28Z</time>
      </trkpt>
      <trkpt lat="43.81775" lon="5.44672">
        <ele>962.3</ele>
        <time>2012-03-19T14:11:36Z</time>
      </trkpt>
      <trkpt lat="43.81787" lon="5.44677">
        <ele>962.8</ele>
        <time>2012-03-19T14:11:42Z</time>
      </trkpt>
      <trkpt lat="43.81796" lon="5.44688">
        <ele>962.2</ele>
        <time>2012-03-19T14:11:46Z</time>
      </trkpt>
      <trkpt lat="43.81807" lon="5.44703">
        <ele>961.7</ele>
        <time>2012-03-19T14:11:53Z</time>
      </trkpt>
      <trkpt lat="43.81821" lon="5.44746">
        <ele>956.6</ele>
        <time>2012-03-19T14:12:06Z</time>
      </trkpt>
      <trkpt lat="43.81823" lon="5.44756">
        <ele>955.6</ele>
        <time>2012-03-19T14:12:09Z</time>
      </trkpt>
      <trkpt lat="43.81834" lon="5.44783">
        <ele>955.4</ele>
        <time>2012-03-19T14:12:18Z</time>
      </trkpt>
      <trkpt lat="43.81838" lon="5.44799">
        <ele>953.1</ele>
        <time>2012-03-19T14:12:23Z</time>
      </trkpt>
      <trkpt lat="43.81846" lon="5.44819">
        <ele>951.1</ele>
        <time>2012-03-19T14:12:30Z</time>
      </trkpt>
      <trkpt lat="43.81848" lon="5.44835">
        <ele>951.1</ele>
        <time>2012-03-19T14:12:34Z</time>
      </trkpt>
      <trkpt lat="43.81849" lon="5.44846">
        <ele>951.5</ele>
        <time>2012-03-19T14:12:37Z</time>
      </trkpt>
      <trkpt lat="43.81846" lon="5.4486">
        <ele>951.7</ele>
        <time>2012-03-19T14:12:42Z</time>
      </trkpt>
      <trkpt lat="43.81842" lon="5.44872">
        <ele>952.4</ele>
        <time>2012-03-19T14:12:45Z</time>
      </trkpt>
      <trkpt lat="43.81836" lon="5.44903">
        <ele>954.9</ele>
        <time>2012-03-19T14:12:55Z</time>
      </trkpt>
      <trkpt lat="43.81832" lon="5.44915">
        <ele>955.3</ele>
        <time>2012-03-19T14:12:59Z</time>
      </trkpt>
      <trkpt lat="43.81828" lon="5.44928">
        <ele>955.5</ele>
        <time>2012-03-19T14:13:03Z</time>
      </trkpt>
      <trkpt lat="43.81823" lon="5.44948">
        <ele>956.4</ele>
        <time>2012-03-19T14:13:09Z</time>
      </trkpt>
      <trkpt lat="43.8182" lon="5.44969">
        <ele>958.3</ele>
        <time>2012-03-19T14:13:15Z</time>
      </trkpt>
      <trkpt lat="43.81818" lon="5.44978">
        <ele>958.4</ele>
        <time>2012-03-19T14:13:18Z</time>
      </trkpt>
      <trkpt lat="43.81817" lon="5.44989">
        <ele>958.6</ele>
        <time>2012-03-19T14:13:21Z</time>
      </trkpt>
      <trkpt lat="43.81817" lon="5.45002">
        <ele>958.8</ele>
        <time>2012-03-19T14:13:25Z</time>
      </trkpt>
      <trkpt lat="43.81821" lon="5.45016">
        <ele>958.6</ele>
        <time>2012-03-19T14:13:29Z</time>
      </trkpt>
      <trkpt lat="43.81825" lon="5.45025">
        <ele>958.7</ele>
        <time>2012-03-19T14:13:32Z</time>
      </trkpt>
      <trkpt lat="43.81828" lon="5.45031">
        <ele>958.8</ele>
        <time>2012-03-19T14:13:34Z</time>
      </trkpt>
      <trkpt lat="43.81854" lon="5.45054">
        <ele>962.9</ele>
        <time>2012-03-19T14:13:47Z</time>
      </trkpt>
      <trkpt lat="43.81882" lon="5.45098">
        <ele>965.9</ele>
        <time>2012-03-19T14:14:03Z</time>
      </trkpt>
      <trkpt lat="43.81893" lon="5.45129">
        <ele>968.1</ele>
        <time>2012-03-19T14:14:13Z</time>
      </trkpt>
      <trkpt lat="43.81901" lon="5.45156">
        <ele>969.4</ele>
        <time>2012-03-19T14:14:22Z</time>
      </trkpt>
      <trkpt lat="43.81903" lon="5.45178">
        <ele>968.6</ele>
        <time>2012-03-19T14:14:28Z</time>
      </trkpt>
      <trkpt lat="43.81905" lon="5.45209">
        <ele>968.2</ele>
        <time>2012-03-19T14:14:37Z</time>
      </trkpt>
      <trkpt lat="43.81908" lon="5.4525">
        <ele>968.7</ele>
        <time>2012-03-19T14:14:49Z</time>
      </trkpt>
      <trkpt lat="43.81912" lon="5.45291">
        <ele>970</ele>
        <time>2012-03-19T14:15:01Z</time>
      </trkpt>
      <trkpt lat="43.81915" lon="5.45312">
        <ele>970.2</ele>
        <time>2012-03-19T14:15:07Z</time>
      </trkpt>
      <trkpt lat="43.81932" lon="5.45375">
        <ele>972.6</ele>
        <time>2012-03-19T14:15:27Z</time>
      </trkpt>
      <trkpt lat="43.81934" lon="5.45386">
        <ele>973.1</ele>
        <time>2012-03-19T14:15:30Z</time>
      </trkpt>
      <trkpt lat="43.81937" lon="5.4541">
        <ele>974.6</ele>
        <time>2012-03-19T14:15:37Z</time>
      </trkpt>
      <trkpt lat="43.81941" lon="5.45425">
        <ele>976.1</ele>
        <time>2012-03-19T14:15:42Z</time>
      </trkpt>
      <trkpt lat="43.81945" lon="5.4545">
        <ele>977.4</ele>
        <time>2012-03-19T14:15:49Z</time>
      </trkpt>
      <trkpt lat="43.81946" lon="5.45468">
        <ele>978.7</ele>
        <time>2012-03-19T14:15:54Z</time>
      </trkpt>
      <trkpt lat="43.81943" lon="5.45491">
        <ele>979.2</ele>
        <time>2012-03-19T14:16:01Z</time>
      </trkpt>
      <trkpt lat="43.81942" lon="5.45514">
        <ele>979.9</ele>
        <time>2012-03-19T14:16:08Z</time>
      </trkpt>
      <trkpt lat="43.81942" lon="5.45539">
        <ele>981.8</ele>
        <time>2012-03-19T14:16:15Z</time>
      </trkpt>
      <trkpt lat="43.81943" lon="5.45557">
        <ele>983.6</ele>
        <time>2012-03-19T14:16:20Z</time>
      </trkpt>
      <trkpt lat="43.81943" lon="5.45562">
        <ele>984</ele>
        <time>2012-03-19T14:16:21Z</time>
      </trkpt>
      <trkpt lat="43.81946" lon="5.45602">
        <ele>985</ele>
        <time>2012-03-19T14:16:33Z</time>
      </trkpt>
      <trkpt lat="43.81954" lon="5.45628">
        <ele>987.3</ele>
        <time>2012-03-19T14:16:41Z</time>
      </trkpt>
      <trkpt lat="43.81959" lon="5.45649">
        <ele>989.6</ele>
        <time>2012-03-19T14:16:48Z</time>
      </trkpt>
      <trkpt lat="43.81959" lon="5.45659">
        <ele>990.3</ele>
        <time>2012-03-19T14:16:51Z</time>
      </trkpt>
      <trkpt lat="43.81953" lon="5.45685">
        <ele>990.9</ele>
        <time>2012-03-19T14:16:59Z</time>
      </trkpt>
      <trkpt lat="43.81944" lon="5.45716">
        <ele>993.8</ele>
        <time>2012-03-19T14:17:08Z</time>
      </trkpt>
      <trkpt lat="43.81938" lon="5.45735">
        <ele>995</ele>
        <time>2012-03-19T14:17:14Z</time>
      </trkpt>
      <trkpt lat="43.8193" lon="5.45752">
        <ele>995.6</ele>
        <time>2012-03-19T14:17:20Z</time>
      </trkpt>
      <trkpt lat="43.81919" lon="5.45778">
        <ele>997.5</ele>
        <time>2012-03-19T14:17:29Z</time>
      </trkpt>
      <trkpt lat="43.81911" lon="5.45795">
        <ele>998.6</ele>
        <time>2012-03-19T14:17:34Z</time>
      </trkpt>
      <trkpt lat="43.81903" lon="5.45812">
        <ele>999.6</ele>
        <time>2012-03-19T14:17:40Z</time>
      </trkpt>
      <trkpt lat="43.81898" lon="5.45822">
        <ele>1000</ele>
        <time>2012-03-19T14:17:44Z</time>
      </trkpt>
      <trkpt lat="43.81896" lon="5.45828">
        <ele>1000.3</ele>
        <time>2012-03-19T14:17:46Z</time>
      </trkpt>
      <trkpt lat="43.81892" lon="5.45849">
        <ele>1000.7</ele>
        <time>2012-03-19T14:17:52Z</time>
      </trkpt>
      <trkpt lat="43.81893" lon="5.45872">
        <ele>1002</ele>
        <time>2012-03-19T14:17:59Z</time>
      </trkpt>
      <trkpt lat="43.81896" lon="5.4592">
        <ele>1002.7</ele>
        <time>2012-03-19T14:18:13Z</time>
      </trkpt>
      <trkpt lat="43.81912" lon="5.45972">
        <ele>1004.4</ele>
        <time>2012-03-19T14:18:29Z</time>
      </trkpt>
      <trkpt lat="43.8192" lon="5.46">
        <ele>1004.8</ele>
        <time>2012-03-19T14:18:38Z</time>
      </trkpt>
      <trkpt lat="43.81932" lon="5.46034">
        <ele>1004.6</ele>
        <time>2012-03-19T14:18:49Z</time>
      </trkpt>
      <trkpt lat="43.81937" lon="5.46042">
        <ele>1005.1</ele>
        <time>2012-03-19T14:18:52Z</time>
      </trkpt>
      <trkpt lat="43.81947" lon="5.46074">
        <ele>1005</ele>
        <time>2012-03-19T14:19:02Z</time>
      </trkpt>
      <trkpt lat="43.81951" lon="5.46093">
        <ele>1004.1</ele>
        <time>2012-03-19T14:19:07Z</time>
      </trkpt>
      <trkpt lat="43.81951" lon="5.46116">
        <ele>1004.2</ele>
        <time>2012-03-19T14:19:14Z</time>
      </trkpt>
      <trkpt lat="43.8195" lon="5.46138">
        <ele>1004.9</ele>
        <time>2012-03-19T14:19:20Z</time>
      </trkpt>
      <trkpt lat="43.8195" lon="5.46151">
        <ele>1006.3</ele>
        <time>2012-03-19T14:19:24Z</time>
      </trkpt>
      <trkpt lat="43.81954" lon="5.46177">
        <ele>1008.1</ele>
        <time>2012-03-19T14:19:32Z</time>
      </trkpt>
      <trkpt lat="43.81957" lon="5.46198">
        <ele>1009.9</ele>
        <time>2012-03-19T14:19:38Z</time>
      </trkpt>
      <trkpt lat="43.81973" lon="5.46245">
        <ele>1014</ele>
        <time>2012-03-19T14:19:53Z</time>
      </trkpt>
      <trkpt lat="43.81982" lon="5.46271">
        <ele>1016.3</ele>
        <time>2012-03-19T14:20:02Z</time>
      </trkpt>
      <trkpt lat="43.81987" lon="5.46296">
        <ele>1018.8</ele>
        <time>2012-03-19T14:20:09Z</time>
      </trkpt>
      <trkpt lat="43.81992" lon="5.46323">
        <ele>1020</ele>
        <time>2012-03-19T14:20:17Z</time>
      </trkpt>
      <trkpt lat="43.81992" lon="5.46328">
        <ele>1020.4</ele>
        <time>2012-03-19T14:20:18Z</time>
      </trkpt>
      <trkpt lat="43.8199" lon="5.46352">
        <ele>1021.5</ele>
        <time>2012-03-19T14:20:25Z</time>
      </trkpt>
      <trkpt lat="43.81984" lon="5.46371">
        <ele>1023.5</ele>
        <time>2012-03-19T14:20:31Z</time>
      </trkpt>
      <trkpt lat="43.81979" lon="5.46391">
        <ele>1024.3</ele>
        <time>2012-03-19T14:20:37Z</time>
      </trkpt>
      <trkpt lat="43.81975" lon="5.46406">
        <ele>1024.9</ele>
        <time>2012-03-19T14:20:42Z</time>
      </trkpt>
      <trkpt lat="43.81967" lon="5.46432">
        <ele>1026</ele>
        <time>2012-03-19T14:20:50Z</time>
      </trkpt>
      <trkpt lat="43.81963" lon="5.46453">
        <ele>1026.2</ele>
        <time>2012-03-19T14:20:57Z</time>
      </trkpt>
      <trkpt lat="43.81957" lon="5.46477">
        <ele>1027.7</ele>
        <time>2012-03-19T14:21:04Z</time>
      </trkpt>
      <trkpt lat="43.81955" lon="5.46493">
        <ele>1029.2</ele>
        <time>2012-03-19T14:21:09Z</time>
      </trkpt>
      <trkpt lat="43.81952" lon="5.46508">
        <ele>1031.6</ele>
        <time>2012-03-19T14:21:13Z</time>
      </trkpt>
      <trkpt lat="43.81951" lon="5.4652">
        <ele>1033.5</ele>
        <time>2012-03-19T14:21:17Z</time>
      </trkpt>
      <trkpt lat="43.8195" lon="5.46534">
        <ele>1035.2</ele>
        <time>2012-03-19T14:21:21Z</time>
      </trkpt>
      <trkpt lat="43.81954" lon="5.46553">
        <ele>1036</ele>
        <time>2012-03-19T14:21:26Z</time>
      </trkpt>
      <trkpt lat="43.81964" lon="5.46592">
        <ele>1040.7</ele>
        <time>2012-03-19T14:21:38Z</time>
      </trkpt>
      <trkpt lat="43.81966" lon="5.46596">
        <ele>1041</ele>
        <time>2012-03-19T14:21:40Z</time>
      </trkpt>
      <trkpt lat="43.81974" lon="5.46642">
        <ele>1044.7</ele>
        <time>2012-03-19T14:21:53Z</time>
      </trkpt>
      <trkpt lat="43.81979" lon="5.46661">
        <ele>1045.3</ele>
        <time>2012-03-19T14:21:59Z</time>
      </trkpt>
      <trkpt lat="43.81979" lon="5.46677">
        <ele>1045.5</ele>
        <time>2012-03-19T14:22:04Z</time>
      </trkpt>
      <trkpt lat="43.81975" lon="5.46692">
        <ele>1046.1</ele>
        <time>2012-03-19T14:22:08Z</time>
      </trkpt>
      <trkpt lat="43.81965" lon="5.46708">
        <ele>1047.4</ele>
        <time>2012-03-19T14:22:14Z</time>
      </trkpt>
      <trkpt lat="43.81958" lon="5.46719">
        <ele>1048.4</ele>
        <time>2012-03-19T14:22:19Z</time>
      </trkpt>
      <trkpt lat="43.81951" lon="5.46726">
        <ele>1049.7</ele>
        <time>2012-03-19T14:22:22Z</time>
      </trkpt>
      <trkpt lat="43.81938" lon="5.46737">
        <ele>1051.2</ele>
        <time>2012-03-19T14:22:28Z</time>
      </trkpt>
      <trkpt lat="43.81923" lon="5.46749">
        <ele>1053.4</ele>
        <time>2012-03-19T14:22:35Z</time>
      </trkpt>
      <trkpt lat="43.81901" lon="5.46761">
        <ele>1055.9</ele>
        <time>2012-03-19T14:22:44Z</time>
      </trkpt>
      <trkpt lat="43.81892" lon="5.46764">
        <ele>1057.5</ele>
        <time>2012-03-19T14:22:48Z</time>
      </trkpt>
      <trkpt lat="43.8189" lon="5.46766">
        <ele>1057.7</ele>
        <time>2012-03-19T14:22:49Z</time>
      </trkpt>
      <trkpt lat="43.81861" lon="5.46783">
        <ele>1059.1</ele>
        <time>2012-03-19T14:23:02Z</time>
      </trkpt>
      <trkpt lat="43.81814" lon="5.46788">
        <ele>1064.5</ele>
        <time>2012-03-19T14:23:21Z</time>
      </trkpt>
      <trkpt lat="43.81769" lon="5.46799">
        <ele>1069.2</ele>
        <time>2012-03-19T14:23:39Z</time>
      </trkpt>
      <trkpt lat="43.81724" lon="5.46819">
        <ele>1073.8</ele>
        <time>2012-03-19T14:23:58Z</time>
      </trkpt>
      <trkpt lat="43.81692" lon="5.46834">
        <ele>1077.7</ele>
        <time>2012-03-19T14:24:12Z</time>
      </trkpt>
      <trkpt lat="43.8166" lon="5.46857">
        <ele>1081.8</ele>
        <time>2012-03-19T14:24:26Z</time>
      </trkpt>
      <trkpt lat="43.81636" lon="5.46879">
        <ele>1084.3</ele>
        <time>2012-03-19T14:24:38Z</time>
      </trkpt>
      <trkpt lat="43.81613" lon="5.46903">
        <ele>1087.1</ele>
        <time>2012-03-19T14:24:49Z</time>
      </trkpt>
      <trkpt lat="43.81604" lon="5.46912">
        <ele>1087.9</ele>
        <time>2012-03-19T14:24:54Z</time>
      </trkpt>
      <trkpt lat="43.81582" lon="5.46931">
        <ele>1090.2</ele>
        <time>2012-03-19T14:25:04Z</time>
      </trkpt>
      <trkpt lat="43.8156" lon="5.46946">
        <ele>1090.8</ele>
        <time>2012-03-19T14:25:14Z</time>
      </trkpt>
      <trkpt lat="43.81539" lon="5.46952">
        <ele>1091.8</ele>
        <time>2012-03-19T14:25:22Z</time>
      </trkpt>
      <trkpt lat="43.8153" lon="5.4696">
        <ele>1092</ele>
        <time>2012-03-19T14:25:26Z</time>
      </trkpt>
      <trkpt lat="43.81523" lon="5.46965">
        <ele>1091.5</ele>
        <time>2012-03-19T14:25:30Z</time>
      </trkpt>
      <trkpt lat="43.81508" lon="5.4698">
        <ele>1090.3</ele>
        <time>2012-03-19T14:25:37Z</time>
      </trkpt>
      <trkpt lat="43.81502" lon="5.46988">
        <ele>1089.9</ele>
        <time>2012-03-19T14:25:40Z</time>
      </trkpt>
      <trkpt lat="43.81487" lon="5.47018">
        <ele>1088</ele>
        <time>2012-03-19T14:25:51Z</time>
      </trkpt>
      <trkpt lat="43.81484" lon="5.47039">
        <ele>1086.5</ele>
        <time>2012-03-19T14:25:57Z</time>
      </trkpt>
      <trkpt lat="43.81492" lon="5.47074">
        <ele>1085.9</ele>
        <time>2012-03-19T14:26:08Z</time>
      </trkpt>
      <trkpt lat="43.81501" lon="5.47098">
        <ele>1085.6</ele>
        <time>2012-03-19T14:26:16Z</time>
      </trkpt>
      <trkpt lat="43.81503" lon="5.47105">
        <ele>1085.2</ele>
        <time>2012-03-19T14:26:18Z</time>
      </trkpt>
      <trkpt lat="43.81522" lon="5.47161">
        <ele>1083.6</ele>
        <time>2012-03-19T14:26:36Z</time>
      </trkpt>
      <trkpt lat="43.81528" lon="5.47184">
        <ele>1083.4</ele>
        <time>2012-03-19T14:26:43Z</time>
      </trkpt>
      <trkpt lat="43.8153" lon="5.47198">
        <ele>1083</ele>
        <time>2012-03-19T14:26:47Z</time>
      </trkpt>
      <trkpt lat="43.81533" lon="5.4722">
        <ele>1082.3</ele>
        <time>2012-03-19T14:26:53Z</time>
      </trkpt>
      <trkpt lat="43.81535" lon="5.4724">
        <ele>1081.4</ele>
        <time>2012-03-19T14:26:59Z</time>
      </trkpt>
      <trkpt lat="43.81536" lon="5.47262">
        <ele>1080.9</ele>
        <time>2012-03-19T14:27:05Z</time>
      </trkpt>
      <trkpt lat="43.81541" lon="5.47314">
        <ele>1080.3</ele>
        <time>2012-03-19T14:27:20Z</time>
      </trkpt>
      <trkpt lat="43.81546" lon="5.47349">
        <ele>1081.8</ele>
        <time>2012-03-19T14:27:31Z</time>
      </trkpt>
      <trkpt lat="43.81547" lon="5.47359">
        <ele>1082.3</ele>
        <time>2012-03-19T14:27:34Z</time>
      </trkpt>
      <trkpt lat="43.81554" lon="5.47401">
        <ele>1086.2</ele>
        <time>2012-03-19T14:27:46Z</time>
      </trkpt>
      <trkpt lat="43.81565" lon="5.47418">
        <ele>1088.1</ele>
        <time>2012-03-19T14:27:53Z</time>
      </trkpt>
      <trkpt lat="43.81594" lon="5.47444">
        <ele>1092.1</ele>
        <time>2012-03-19T14:28:06Z</time>
      </trkpt>
      <trkpt lat="43.81625" lon="5.47476">
        <ele>1094.3</ele>
        <time>2012-03-19T14:28:22Z</time>
      </trkpt>
      <trkpt lat="43.81664" lon="5.47521">
        <ele>1092.8</ele>
        <time>2012-03-19T14:28:42Z</time>
      </trkpt>
      <trkpt lat="43.81672" lon="5.47534">
        <ele>1091</ele>
        <time>2012-03-19T14:28:47Z</time>
      </trkpt>
      <trkpt lat="43.81663" lon="5.47572">
        <ele>1085.1</ele>
        <time>2012-03-19T14:28:59Z</time>
      </trkpt>
      <trkpt lat="43.81655" lon="5.47598">
        <ele>1080.7</ele>
        <time>2012-03-19T14:29:07Z</time>
      </trkpt>
      <trkpt lat="43.81646" lon="5.47627">
        <ele>1075.3</ele>
        <time>2012-03-19T14:29:16Z</time>
      </trkpt>
      <trkpt lat="43.81638" lon="5.47652">
        <ele>1070.1</ele>
        <time>2012-03-19T14:29:24Z</time>
      </trkpt>
      <trkpt lat="43.81638" lon="5.47691">
        <ele>1062.6</ele>
        <time>2012-03-19T14:29:35Z</time>
      </trkpt>
      <trkpt lat="43.81637" lon="5.47699">
        <ele>1061.3</ele>
        <time>2012-03-19T14:29:38Z</time>
      </trkpt>
      <trkpt lat="43.81641" lon="5.47739">
        <ele>1056.1</ele>
        <time>2012-03-19T14:29:49Z</time>
      </trkpt>
      <trkpt lat="43.81655" lon="5.47773">
        <ele>1051.4</ele>
        <time>2012-03-19T14:30:01Z</time>
      </trkpt>
      <trkpt lat="43.81674" lon="5.47824">
        <ele>1044.1</ele>
        <time>2012-03-19T14:30:17Z</time>
      </trkpt>
      <trkpt lat="43.81686" lon="5.47875">
        <ele>1039.6</ele>
        <time>2012-03-19T14:30:33Z</time>
      </trkpt>
      <trkpt lat="43.81703" lon="5.47912">
        <ele>1037.7</ele>
        <time>2012-03-19T14:30:45Z</time>
      </trkpt>
      <trkpt lat="43.81724" lon="5.4796">
        <ele>1035.6</ele>
        <time>2012-03-19T14:31:01Z</time>
      </trkpt>
      <trkpt lat="43.81737" lon="5.48006">
        <ele>1031.2</ele>
        <time>2012-03-19T14:31:16Z</time>
      </trkpt>
      <trkpt lat="43.81751" lon="5.48041">
        <ele>1027.3</ele>
        <time>2012-03-19T14:31:27Z</time>
      </trkpt>
      <trkpt lat="43.81757" lon="5.48067">
        <ele>1026</ele>
        <time>2012-03-19T14:31:35Z</time>
      </trkpt>
      <trkpt lat="43.81756" lon="5.48097">
        <ele>1027.5</ele>
        <time>2012-03-19T14:31:44Z</time>
      </trkpt>
      <trkpt lat="43.81757" lon="5.4811">
        <ele>1028.4</ele>
        <time>2012-03-19T14:31:48Z</time>
      </trkpt>
      <trkpt lat="43.81755" lon="5.48154">
        <ele>1034.5</ele>
        <time>2012-03-19T14:32:00Z</time>
      </trkpt>
      <trkpt lat="43.81757" lon="5.48207">
        <ele>1042.5</ele>
        <time>2012-03-19T14:32:16Z</time>
      </trkpt>
      <trkpt lat="43.81769" lon="5.48266">
        <ele>1051.7</ele>
        <time>2012-03-19T14:32:33Z</time>
      </trkpt>
      <trkpt lat="43.81773" lon="5.48302">
        <ele>1052.1</ele>
        <time>2012-03-19T14:32:44Z</time>
      </trkpt>
      <trkpt lat="43.81778" lon="5.48335">
        <ele>1048.9</ele>
        <time>2012-03-19T14:32:53Z</time>
      </trkpt>
      <trkpt lat="43.8179" lon="5.48385">
        <ele>1044.6</ele>
        <time>2012-03-19T14:33:09Z</time>
      </trkpt>
      <trkpt lat="43.81813" lon="5.48455">
        <ele>1049.8</ele>
        <time>2012-03-19T14:33:31Z</time>
      </trkpt>
      <trkpt lat="43.81814" lon="5.48465">
        <ele>1051</ele>
        <time>2012-03-19T14:33:34Z</time>
      </trkpt>
      <trkpt lat="43.81826" lon="5.4852">
        <ele>1055.9</ele>
        <time>2012-03-19T14:33:51Z</time>
      </trkpt>
      <trkpt lat="43.81825" lon="5.48571">
        <ele>1056.6</ele>
        <time>2012-03-19T14:34:05Z</time>
      </trkpt>
      <trkpt lat="43.81821" lon="5.48607">
        <ele>1056</ele>
        <time>2012-03-19T14:34:16Z</time>
      </trkpt>
      <trkpt lat="43.81816" lon="5.48638">
        <ele>1055.1</ele>
        <time>2012-03-19T14:34:25Z</time>
      </trkpt>
      <trkpt lat="43.81814" lon="5.48673">
        <ele>1053.9</ele>
        <time>2012-03-19T14:34:35Z</time>
      </trkpt>
      <trkpt lat="43.81811" lon="5.48719">
        <ele>1052.2</ele>
        <time>2012-03-19T14:34:49Z</time>
      </trkpt>
      <trkpt lat="43.81813" lon="5.48746">
        <ele>1052.2</ele>
        <time>2012-03-19T14:34:56Z</time>
      </trkpt>
      <trkpt lat="43.81816" lon="5.48831">
        <ele>1062.2</ele>
        <time>2012-03-19T14:35:21Z</time>
      </trkpt>
      <trkpt lat="43.81824" lon="5.48866">
        <ele>1066.5</ele>
        <time>2012-03-19T14:35:31Z</time>
      </trkpt>
      <trkpt lat="43.81822" lon="5.48883">
        <ele>1068.7</ele>
        <time>2012-03-19T14:35:36Z</time>
      </trkpt>
      <trkpt lat="43.81822" lon="5.48913">
        <ele>1069.8</ele>
        <time>2012-03-19T14:35:45Z</time>
      </trkpt>
      <trkpt lat="43.81824" lon="5.48947">
        <ele>1067</ele>
        <time>2012-03-19T14:35:55Z</time>
      </trkpt>
      <trkpt lat="43.81826" lon="5.48958">
        <ele>1065.3</ele>
        <time>2012-03-19T14:35:58Z</time>
      </trkpt>
      <trkpt lat="43.81835" lon="5.49054">
        <ele>1051.1</ele>
        <time>2012-03-19T14:36:26Z</time>
      </trkpt>
      <trkpt lat="43.81838" lon="5.49127">
        <ele>1045.8</ele>
        <time>2012-03-19T14:36:47Z</time>
      </trkpt>
      <trkpt lat="43.8184" lon="5.49233">
        <ele>1038</ele>
        <time>2012-03-19T14:37:18Z</time>
      </trkpt>
      <trkpt lat="43.81847" lon="5.49305">
        <ele>1027.1</ele>
        <time>2012-03-19T14:37:39Z</time>
      </trkpt>
      <trkpt lat="43.81851" lon="5.4936">
        <ele>1031.9</ele>
        <time>2012-03-19T14:37:55Z</time>
      </trkpt>
      <trkpt lat="43.81852" lon="5.494">
        <ele>1037.5</ele>
        <time>2012-03-19T14:38:06Z</time>
      </trkpt>
      <trkpt lat="43.81845" lon="5.4942">
        <ele>1039.6</ele>
        <time>2012-03-19T14:38:13Z</time>
      </trkpt>
      <trkpt lat="43.81842" lon="5.49453">
        <ele>1040.8</ele>
        <time>2012-03-19T14:38:22Z</time>
      </trkpt>
      <trkpt lat="43.81844" lon="5.49473">
        <ele>1040.3</ele>
        <time>2012-03-19T14:38:28Z</time>
      </trkpt>
      <trkpt lat="43.81844" lon="5.49498">
        <ele>1038.9</ele>
        <time>2012-03-19T14:38:35Z</time>
      </trkpt>
      <trkpt lat="43.81843" lon="5.49515">
        <ele>1037.6</ele>
        <time>2012-03-19T14:38:40Z</time>
      </trkpt>
      <trkpt lat="43.81836" lon="5.49556">
        <ele>1033.2</ele>
        <time>2012-03-19T14:38:52Z</time>
      </trkpt>
      <trkpt lat="43.81825" lon="5.49603">
        <ele>1030.9</ele>
        <time>2012-03-19T14:39:07Z</time>
      </trkpt>
      <trkpt lat="43.81817" lon="5.49631">
        <ele>1033.1</ele>
        <time>2012-03-19T14:39:16Z</time>
      </trkpt>
      <trkpt lat="43.81812" lon="5.49647">
        <ele>1034.2</ele>
        <time>2012-03-19T14:39:21Z</time>
      </trkpt>
      <trkpt lat="43.81807" lon="5.49675">
        <ele>1033.8</ele>
        <time>2012-03-19T14:39:29Z</time>
      </trkpt>
      <trkpt lat="43.81806" lon="5.49701">
        <ele>1031.3</ele>
        <time>2012-03-19T14:39:36Z</time>
      </trkpt>
      <trkpt lat="43.81808" lon="5.49739">
        <ele>1026.2</ele>
        <time>2012-03-19T14:39:48Z</time>
      </trkpt>
      <trkpt lat="43.81812" lon="5.49772">
        <ele>1021.3</ele>
        <time>2012-03-19T14:39:57Z</time>
      </trkpt>
      <trkpt lat="43.81818" lon="5.49817">
        <ele>1018.5</ele>
        <time>2012-03-19T14:40:10Z</time>
      </trkpt>
      <trkpt lat="43.81819" lon="5.49832">
        <ele>1019</ele>
        <time>2012-03-19T14:40:15Z</time>
      </trkpt>
      <trkpt lat="43.81834" lon="5.49882">
        <ele>1020.6</ele>
        <time>2012-03-19T14:40:30Z</time>
      </trkpt>
      <trkpt lat="43.81834" lon="5.49904">
        <ele>1020.9</ele>
        <time>2012-03-19T14:40:37Z</time>
      </trkpt>
      <trkpt lat="43.81834" lon="5.49948">
        <ele>1020.8</ele>
        <time>2012-03-19T14:40:49Z</time>
      </trkpt>
      <trkpt lat="43.81837" lon="5.49967">
        <ele>1020.1</ele>
        <time>2012-03-19T14:40:55Z</time>
      </trkpt>
      <trkpt lat="43.81842" lon="5.49982">
        <ele>1020.2</ele>
        <time>2012-03-19T14:41:00Z</time>
      </trkpt>
      <trkpt lat="43.81848" lon="5.50001">
        <ele>1020.9</ele>
        <time>2012-03-19T14:41:06Z</time>
      </trkpt>
      <trkpt lat="43.8186" lon="5.5002">
        <ele>1021</ele>
        <time>2012-03-19T14:41:13Z</time>
      </trkpt>
      <trkpt lat="43.81874" lon="5.50038">
        <ele>1020.6</ele>
        <time>2012-03-19T14:41:20Z</time>
      </trkpt>
      <trkpt lat="43.81894" lon="5.50061">
        <ele>1019.7</ele>
        <time>2012-03-19T14:41:31Z</time>
      </trkpt>
      <trkpt lat="43.81917" lon="5.50089">
        <ele>1020</ele>
        <time>2012-03-19T14:41:43Z</time>
      </trkpt>
      <trkpt lat="43.81938" lon="5.50123">
        <ele>1020.9</ele>
        <time>2012-03-19T14:41:56Z</time>
      </trkpt>
      <trkpt lat="43.81954" lon="5.5015">
        <ele>1022</ele>
        <time>2012-03-19T14:42:06Z</time>
      </trkpt>
      <trkpt lat="43.81977" lon="5.50192">
        <ele>1023.5</ele>
        <time>2012-03-19T14:42:22Z</time>
      </trkpt>
      <trkpt lat="43.81988" lon="5.50218">
        <ele>1023.8</ele>
        <time>2012-03-19T14:42:30Z</time>
      </trkpt>
      <trkpt lat="43.81989" lon="5.5024">
        <ele>1022.9</ele>
        <time>2012-03-19T14:42:37Z</time>
      </trkpt>
      <trkpt lat="43.81985" lon="5.50261">
        <ele>1021.4</ele>
        <time>2012-03-19T14:42:43Z</time>
      </trkpt>
      <trkpt lat="43.81975" lon="5.50276">
        <ele>1020.8</ele>
        <time>2012-03-19T14:42:49Z</time>
      </trkpt>
      <trkpt lat="43.81954" lon="5.50294">
        <ele>1021.3</ele>
        <time>2012-03-19T14:42:59Z</time>
      </trkpt>
      <trkpt lat="43.81946" lon="5.503">
        <ele>1021.7</ele>
        <time>2012-03-19T14:43:02Z</time>
      </trkpt>
      <trkpt lat="43.81929" lon="5.50323">
        <ele>1019.2</ele>
        <time>2012-03-19T14:43:12Z</time>
      </trkpt>
      <trkpt lat="43.81912" lon="5.50346">
        <ele>1016.7</ele>
        <time>2012-03-19T14:43:21Z</time>
      </trkpt>
      <trkpt lat="43.81899" lon="5.50362">
        <ele>1015.3</ele>
        <time>2012-03-19T14:43:28Z</time>
      </trkpt>
      <trkpt lat="43.81885" lon="5.50383">
        <ele>1014.5</ele>
        <time>2012-03-19T14:43:37Z</time>
      </trkpt>
      <trkpt lat="43.81876" lon="5.50412">
        <ele>1012</ele>
        <time>2012-03-19T14:43:46Z</time>
      </trkpt>
      <trkpt lat="43.81869" lon="5.50435">
        <ele>1013</ele>
        <time>2012-03-19T14:43:53Z</time>
      </trkpt>
      <trkpt lat="43.81862" lon="5.50462">
        <ele>1015.7</ele>
        <time>2012-03-19T14:44:01Z</time>
      </trkpt>
      <trkpt lat="43.81856" lon="5.50487">
        <ele>1017.7</ele>
        <time>2012-03-19T14:44:09Z</time>
      </trkpt>
      <trkpt lat="43.81849" lon="5.5052">
        <ele>1019.4</ele>
        <time>2012-03-19T14:44:19Z</time>
      </trkpt>
      <trkpt lat="43.81847" lon="5.50535">
        <ele>1020</ele>
        <time>2012-03-19T14:44:23Z</time>
      </trkpt>
      <trkpt lat="43.81851" lon="5.50593">
        <ele>1024.5</ele>
        <time>2012-03-19T14:44:40Z</time>
      </trkpt>
      <trkpt lat="43.81851" lon="5.50625">
        <ele>1024</ele>
        <time>2012-03-19T14:44:49Z</time>
      </trkpt>
      <trkpt lat="43.81859" lon="5.50731">
        <ele>1027.5</ele>
        <time>2012-03-19T14:45:20Z</time>
      </trkpt>
      <trkpt lat="43.81868" lon="5.50786">
        <ele>1030.9</ele>
        <time>2012-03-19T14:45:36Z</time>
      </trkpt>
      <trkpt lat="43.81875" lon="5.50806">
        <ele>1032</ele>
        <time>2012-03-19T14:45:43Z</time>
      </trkpt>
      <trkpt lat="43.8188" lon="5.50816">
        <ele>1032.5</ele>
        <time>2012-03-19T14:45:46Z</time>
      </trkpt>
      <trkpt lat="43.81883" lon="5.50819">
        <ele>1032.9</ele>
        <time>2012-03-19T14:45:48Z</time>
      </trkpt>
      <trkpt lat="43.81934" lon="5.50832">
        <ele>1035.5</ele>
        <time>2012-03-19T14:46:08Z</time>
      </trkpt>
      <trkpt lat="43.81955" lon="5.5084">
        <ele>1037</ele>
        <time>2012-03-19T14:46:17Z</time>
      </trkpt>
      <trkpt lat="43.81995" lon="5.50854">
        <ele>1036.2</ele>
        <time>2012-03-19T14:46:34Z</time>
      </trkpt>
      <trkpt lat="43.82007" lon="5.50864">
        <ele>1036.4</ele>
        <time>2012-03-19T14:46:39Z</time>
      </trkpt>
      <trkpt lat="43.82056" lon="5.50898">
        <ele>1036.1</ele>
        <time>2012-03-19T14:47:01Z</time>
      </trkpt>
      <trkpt lat="43.82064" lon="5.50902">
        <ele>1035.9</ele>
        <time>2012-03-19T14:47:04Z</time>
      </trkpt>
      <trkpt lat="43.82104" lon="5.50932">
        <ele>1038.2</ele>
        <time>2012-03-19T14:47:23Z</time>
      </trkpt>
      <trkpt lat="43.82139" lon="5.50954">
        <ele>1038.3</ele>
        <time>2012-03-19T14:47:38Z</time>
      </trkpt>
      <trkpt lat="43.82145" lon="5.50978">
        <ele>1038.7</ele>
        <time>2012-03-19T14:47:45Z</time>
      </trkpt>
      <trkpt lat="43.82147" lon="5.50998">
        <ele>1037.4</ele>
        <time>2012-03-19T14:47:51Z</time>
      </trkpt>
      <trkpt lat="43.82143" lon="5.51026">
        <ele>1035.7</ele>
        <time>2012-03-19T14:48:00Z</time>
      </trkpt>
      <trkpt lat="43.82136" lon="5.51046">
        <ele>1033.8</ele>
        <time>2012-03-19T14:48:06Z</time>
      </trkpt>
      <trkpt lat="43.82122" lon="5.51067">
        <ele>1033</ele>
        <time>2012-03-19T14:48:14Z</time>
      </trkpt>
      <trkpt lat="43.82099" lon="5.51084">
        <ele>1035.7</ele>
        <time>2012-03-19T14:48:25Z</time>
      </trkpt>
      <trkpt lat="43.8206" lon="5.51111">
        <ele>1038.9</ele>
        <time>2012-03-19T14:48:42Z</time>
      </trkpt>
      <trkpt lat="43.82033" lon="5.5113">
        <ele>1039.1</ele>
        <time>2012-03-19T14:48:54Z</time>
      </trkpt>
      <trkpt lat="43.82009" lon="5.51145">
        <ele>1039.5</ele>
        <time>2012-03-19T14:49:05Z</time>
      </trkpt>
      <trkpt lat="43.81976" lon="5.51167">
        <ele>1038.5</ele>
        <time>2012-03-19T14:49:20Z</time>
      </trkpt>
      <trkpt lat="43.81942" lon="5.51184">
        <ele>1039.1</ele>
        <time>2012-03-19T14:49:34Z</time>
      </trkpt>
      <trkpt lat="43.81932" lon="5.51193">
        <ele>1038.7</ele>
        <time>2012-03-19T14:49:39Z</time>
      </trkpt>
      <trkpt lat="43.81916" lon="5.51213">
        <ele>1038.8</ele>
        <time>2012-03-19T14:49:47Z</time>
      </trkpt>
      <trkpt lat="43.81905" lon="5.51241">
        <ele>1040.3</ele>
        <time>2012-03-19T14:49:57Z</time>
      </trkpt>
      <trkpt lat="43.81906" lon="5.51268">
        <ele>1040</ele>
        <time>2012-03-19T14:50:04Z</time>
      </trkpt>
      <trkpt lat="43.81906" lon="5.51303">
        <ele>1039.9</ele>
        <time>2012-03-19T14:50:14Z</time>
      </trkpt>
      <trkpt lat="43.81906" lon="5.51326">
        <ele>1039.2</ele>
        <time>2012-03-19T14:50:21Z</time>
      </trkpt>
      <trkpt lat="43.819" lon="5.51351">
        <ele>1038.7</ele>
        <time>2012-03-19T14:50:29Z</time>
      </trkpt>
      <trkpt lat="43.81893" lon="5.51381">
        <ele>1037.4</ele>
        <time>2012-03-19T14:50:38Z</time>
      </trkpt>
      <trkpt lat="43.81897" lon="5.51392">
        <ele>1036.5</ele>
        <time>2012-03-19T14:50:41Z</time>
      </trkpt>
      <trkpt lat="43.81907" lon="5.51403">
        <ele>1036.3</ele>
        <time>2012-03-19T14:50:46Z</time>
      </trkpt>
      <trkpt lat="43.81943" lon="5.5141">
        <ele>1036.1</ele>
        <time>2012-03-19T14:51:01Z</time>
      </trkpt>
      <trkpt lat="43.81996" lon="5.51431">
        <ele>1031.8</ele>
        <time>2012-03-19T14:51:23Z</time>
      </trkpt>
      <trkpt lat="43.82039" lon="5.51479">
        <ele>1030.1</ele>
        <time>2012-03-19T14:51:45Z</time>
      </trkpt>
      <trkpt lat="43.8205" lon="5.51519">
        <ele>1028.9</ele>
        <time>2012-03-19T14:51:57Z</time>
      </trkpt>
      <trkpt lat="43.82046" lon="5.51559">
        <ele>1027.7</ele>
        <time>2012-03-19T14:52:09Z</time>
      </trkpt>
      <trkpt lat="43.82039" lon="5.5159">
        <ele>1026.5</ele>
        <time>2012-03-19T14:52:18Z</time>
      </trkpt>
      <trkpt lat="43.82028" lon="5.51633">
        <ele>1026.3</ele>
        <time>2012-03-19T14:52:32Z</time>
      </trkpt>
      <trkpt lat="43.8203" lon="5.51657">
        <ele>1026.8</ele>
        <time>2012-03-19T14:52:39Z</time>
      </trkpt>
      <trkpt lat="43.8204" lon="5.51668">
        <ele>1026</ele>
        <time>2012-03-19T14:52:44Z</time>
      </trkpt>
      <trkpt lat="43.82061" lon="5.51685">
        <ele>1025.2</ele>
        <time>2012-03-19T14:52:54Z</time>
      </trkpt>
      <trkpt lat="43.82094" lon="5.51715">
        <ele>1022</ele>
        <time>2012-03-19T14:53:09Z</time>
      </trkpt>
      <trkpt lat="43.82113" lon="5.51748">
        <ele>1021.9</ele>
        <time>2012-03-19T14:53:22Z</time>
      </trkpt>
      <trkpt lat="43.8212" lon="5.51775">
        <ele>1021.8</ele>
        <time>2012-03-19T14:53:30Z</time>
      </trkpt>
      <trkpt lat="43.82125" lon="5.51807">
        <ele>1020.4</ele>
        <time>2012-03-19T14:53:39Z</time>
      </trkpt>
      <trkpt lat="43.82128" lon="5.51849">
        <ele>1017</ele>
        <time>2012-03-19T14:53:52Z</time>
      </trkpt>
      <trkpt lat="43.82121" lon="5.51894">
        <ele>1014.6</ele>
        <time>2012-03-19T14:54:05Z</time>
      </trkpt>
      <trkpt lat="43.82105" lon="5.51933">
        <ele>1013.4</ele>
        <time>2012-03-19T14:54:18Z</time>
      </trkpt>
      <trkpt lat="43.8209" lon="5.51965">
        <ele>1010.8</ele>
        <time>2012-03-19T14:54:29Z</time>
      </trkpt>
      <trkpt lat="43.82069" lon="5.5199">
        <ele>1009.6</ele>
        <time>2012-03-19T14:54:40Z</time>
      </trkpt>
      <trkpt lat="43.82046" lon="5.52006">
        <ele>1009</ele>
        <time>2012-03-19T14:54:50Z</time>
      </trkpt>
      <trkpt lat="43.82025" lon="5.52022">
        <ele>1007</ele>
        <time>2012-03-19T14:55:00Z</time>
      </trkpt>
      <trkpt lat="43.82019" lon="5.52029">
        <ele>1006</ele>
        <time>2012-03-19T14:55:03Z</time>
      </trkpt>
      <trkpt lat="43.82017" lon="5.52038">
        <ele>1005.6</ele>
        <time>2012-03-19T14:55:06Z</time>
      </trkpt>
      <trkpt lat="43.82017" lon="5.52049">
        <ele>1005.3</ele>
        <time>2012-03-19T14:55:09Z</time>
      </trkpt>
      <trkpt lat="43.82019" lon="5.52063">
        <ele>1005.9</ele>
        <time>2012-03-19T14:55:13Z</time>
      </trkpt>
      <trkpt lat="43.82031" lon="5.52074">
        <ele>1007.3</ele>
        <time>2012-03-19T14:55:19Z</time>
      </trkpt>
      <trkpt lat="43.82055" lon="5.52088">
        <ele>1005.7</ele>
        <time>2012-03-19T14:55:29Z</time>
      </trkpt>
      <trkpt lat="43.82062" lon="5.52108">
        <ele>1006.3</ele>
        <time>2012-03-19T14:55:36Z</time>
      </trkpt>
      <trkpt lat="43.82069" lon="5.52133">
        <ele>1006.8</ele>
        <time>2012-03-19T14:55:43Z</time>
      </trkpt>
      <trkpt lat="43.82085" lon="5.52184">
        <ele>1007.1</ele>
        <time>2012-03-19T14:55:59Z</time>
      </trkpt>
      <trkpt lat="43.82104" lon="5.52228">
        <ele>1006.9</ele>
        <time>2012-03-19T14:56:14Z</time>
      </trkpt>
      <trkpt lat="43.82108" lon="5.52233">
        <ele>1006.7</ele>
        <time>2012-03-19T14:56:16Z</time>
      </trkpt>
      <trkpt lat="43.82139" lon="5.52261">
        <ele>1006.4</ele>
        <time>2012-03-19T14:56:31Z</time>
      </trkpt>
      <trkpt lat="43.82152" lon="5.52269">
        <ele>1006.2</ele>
        <time>2012-03-19T14:56:37Z</time>
      </trkpt>
      <trkpt lat="43.82178" lon="5.52284">
        <ele>1005.8</ele>
        <time>2012-03-19T14:56:48Z</time>
      </trkpt>
      <trkpt lat="43.82198" lon="5.52309">
        <ele>1005.7</ele>
        <time>2012-03-19T14:56:59Z</time>
      </trkpt>
      <trkpt lat="43.8221" lon="5.52339">
        <ele>1005.9</ele>
        <time>2012-03-19T14:57:09Z</time>
      </trkpt>
      <trkpt lat="43.82213" lon="5.52367">
        <ele>1006.1</ele>
        <time>2012-03-19T14:57:17Z</time>
      </trkpt>
      <trkpt lat="43.82212" lon="5.52395">
        <ele>1006.1</ele>
        <time>2012-03-19T14:57:25Z</time>
      </trkpt>
      <trkpt lat="43.82199" lon="5.52439">
        <ele>1006.5</ele>
        <time>2012-03-19T14:57:39Z</time>
      </trkpt>
      <trkpt lat="43.82179" lon="5.52498">
        <ele>1005.3</ele>
        <time>2012-03-19T14:57:58Z</time>
      </trkpt>
      <trkpt lat="43.82166" lon="5.52538">
        <ele>1005.6</ele>
        <time>2012-03-19T14:58:10Z</time>
      </trkpt>
      <trkpt lat="43.82153" lon="5.52576">
        <ele>1005.9</ele>
        <time>2012-03-19T14:58:22Z</time>
      </trkpt>
      <trkpt lat="43.82138" lon="5.5261">
        <ele>1009.4</ele>
        <time>2012-03-19T14:58:34Z</time>
      </trkpt>
      <trkpt lat="43.82124" lon="5.52665">
        <ele>1008</ele>
        <time>2012-03-19T14:58:51Z</time>
      </trkpt>
      <trkpt lat="43.82111" lon="5.52722">
        <ele>1006.9</ele>
        <time>2012-03-19T14:59:08Z</time>
      </trkpt>
      <trkpt lat="43.82105" lon="5.52744">
        <ele>1006.7</ele>
        <time>2012-03-19T14:59:15Z</time>
      </trkpt>
      <trkpt lat="43.82091" lon="5.5279">
        <ele>1008</ele>
        <time>2012-03-19T14:59:29Z</time>
      </trkpt>
      <trkpt lat="43.82087" lon="5.52821">
        <ele>1007.7</ele>
        <time>2012-03-19T14:59:38Z</time>
      </trkpt>
      <trkpt lat="43.8208" lon="5.52844">
        <ele>1010.2</ele>
        <time>2012-03-19T14:59:46Z</time>
      </trkpt>
      <trkpt lat="43.8208" lon="5.52851">
        <ele>1010.5</ele>
        <time>2012-03-19T14:59:47Z</time>
      </trkpt>
      <trkpt lat="43.82089" lon="5.52882">
        <ele>1008.4</ele>
        <time>2012-03-19T14:59:57Z</time>
      </trkpt>
      <trkpt lat="43.82092" lon="5.52895">
        <ele>1009.1</ele>
        <time>2012-03-19T15:00:01Z</time>
      </trkpt>
      <trkpt lat="43.82109" lon="5.52947">
        <ele>1013</ele>
        <time>2012-03-19T15:00:18Z</time>
      </trkpt>
      <trkpt lat="43.82118" lon="5.52984">
        <ele>1012</ele>
        <time>2012-03-19T15:00:29Z</time>
      </trkpt>
      <trkpt lat="43.82121" lon="5.53018">
        <ele>1011.3</ele>
        <time>2012-03-19T15:00:39Z</time>
      </trkpt>
      <trkpt lat="43.82118" lon="5.53084">
        <ele>1010.5</ele>
        <time>2012-03-19T15:00:58Z</time>
      </trkpt>
      <trkpt lat="43.82112" lon="5.53128">
        <ele>1011</ele>
        <time>2012-03-19T15:01:11Z</time>
      </trkpt>
      <trkpt lat="43.82102" lon="5.53189">
        <ele>1011.1</ele>
        <time>2012-03-19T15:01:29Z</time>
      </trkpt>
      <trkpt lat="43.82091" lon="5.53223">
        <ele>1011</ele>
        <time>2012-03-19T15:01:40Z</time>
      </trkpt>
      <trkpt lat="43.82077" lon="5.53254">
        <ele>1008.9</ele>
        <time>2012-03-19T15:01:50Z</time>
      </trkpt>
      <trkpt lat="43.82055" lon="5.53277">
        <ele>1011.1</ele>
        <time>2012-03-19T15:02:01Z</time>
      </trkpt>
      <trkpt lat="43.82024" lon="5.53303">
        <ele>1011.4</ele>
        <time>2012-03-19T15:02:16Z</time>
      </trkpt>
      <trkpt lat="43.82008" lon="5.53312">
        <ele>1012.2</ele>
        <time>2012-03-19T15:02:23Z</time>
      </trkpt>
      <trkpt lat="43.81988" lon="5.53328">
        <ele>1011</ele>
        <time>2012-03-19T15:02:32Z</time>
      </trkpt>
      <trkpt lat="43.81982" lon="5.53331">
        <ele>1010.6</ele>
        <time>2012-03-19T15:02:34Z</time>
      </trkpt>
      <trkpt lat="43.81934" lon="5.53347">
        <ele>1011.1</ele>
        <time>2012-03-19T15:02:54Z</time>
      </trkpt>
      <trkpt lat="43.81896" lon="5.53357">
        <ele>1010.8</ele>
        <time>2012-03-19T15:03:10Z</time>
      </trkpt>
      <trkpt lat="43.8187" lon="5.53361">
        <ele>1010</ele>
        <time>2012-03-19T15:03:20Z</time>
      </trkpt>
      <trkpt lat="43.81858" lon="5.53365">
        <ele>1009.5</ele>
        <time>2012-03-19T15:03:25Z</time>
      </trkpt>
      <trkpt lat="43.81849" lon="5.53374">
        <ele>1008.4</ele>
        <time>2012-03-19T15:03:29Z</time>
      </trkpt>
      <trkpt lat="43.81826" lon="5.53386">
        <ele>1007.3</ele>
        <time>2012-03-19T15:03:39Z</time>
      </trkpt>
      <trkpt lat="43.81813" lon="5.53396">
        <ele>1007</ele>
        <time>2012-03-19T15:03:45Z</time>
      </trkpt>
      <trkpt lat="43.81805" lon="5.53408">
        <ele>1007</ele>
        <time>2012-03-19T15:03:50Z</time>
      </trkpt>
      <trkpt lat="43.81796" lon="5.53423">
        <ele>1006.7</ele>
        <time>2012-03-19T15:03:56Z</time>
      </trkpt>
      <trkpt lat="43.81794" lon="5.5343">
        <ele>1006.9</ele>
        <time>2012-03-19T15:03:58Z</time>
      </trkpt>
      <trkpt lat="43.81791" lon="5.53439">
        <ele>1007.2</ele>
        <time>2012-03-19T15:04:01Z</time>
      </trkpt>
      <trkpt lat="43.81784" lon="5.53486">
        <ele>1012.9</ele>
        <time>2012-03-19T15:04:14Z</time>
      </trkpt>
      <trkpt lat="43.81781" lon="5.53516">
        <ele>1017.3</ele>
        <time>2012-03-19T15:04:23Z</time>
      </trkpt>
      <trkpt lat="43.81775" lon="5.53556">
        <ele>1023.4</ele>
        <time>2012-03-19T15:04:35Z</time>
      </trkpt>
      <trkpt lat="43.81764" lon="5.53575">
        <ele>1024.5</ele>
        <time>2012-03-19T15:04:42Z</time>
      </trkpt>
      <trkpt lat="43.81761" lon="5.53588">
        <ele>1025.9</ele>
        <time>2012-03-19T15:04:46Z</time>
      </trkpt>
      <trkpt lat="43.81764" lon="5.53613">
        <ele>1029.7</ele>
        <time>2012-03-19T15:04:54Z</time>
      </trkpt>
      <trkpt lat="43.81769" lon="5.53636">
        <ele>1032.3</ele>
        <time>2012-03-19T15:05:00Z</time>
      </trkpt>
      <trkpt lat="43.81781" lon="5.53659">
        <ele>1033.6</ele>
        <time>2012-03-19T15:05:09Z</time>
      </trkpt>
      <trkpt lat="43.81804" lon="5.53675">
        <ele>1034.3</ele>
        <time>2012-03-19T15:05:19Z</time>
      </trkpt>
      <trkpt lat="43.81819" lon="5.53693">
        <ele>1034.1</ele>
        <time>2012-03-19T15:05:27Z</time>
      </trkpt>
      <trkpt lat="43.8183" lon="5.53713">
        <ele>1034</ele>
        <time>2012-03-19T15:05:34Z</time>
      </trkpt>
      <trkpt lat="43.81837" lon="5.53736">
        <ele>1033.3</ele>
        <time>2012-03-19T15:05:41Z</time>
      </trkpt>
      <trkpt lat="43.81844" lon="5.53768">
        <ele>1031.9</ele>
        <time>2012-03-19T15:05:51Z</time>
      </trkpt>
      <trkpt lat="43.81851" lon="5.53784">
        <ele>1031.3</ele>
        <time>2012-03-19T15:05:56Z</time>
      </trkpt>
      <trkpt lat="43.81858" lon="5.53797">
        <ele>1030.7</ele>
        <time>2012-03-19T15:06:01Z</time>
      </trkpt>
      <trkpt lat="43.81866" lon="5.53813">
        <ele>1028.6</ele>
        <time>2012-03-19T15:06:07Z</time>
      </trkpt>
      <trkpt lat="43.81874" lon="5.53854">
        <ele>1023.3</ele>
        <time>2012-03-19T15:06:19Z</time>
      </trkpt>
      <trkpt lat="43.81875" lon="5.53874">
        <ele>1020.9</ele>
        <time>2012-03-19T15:06:25Z</time>
      </trkpt>
      <trkpt lat="43.81873" lon="5.53898">
        <ele>1018</ele>
        <time>2012-03-19T15:06:32Z</time>
      </trkpt>
      <trkpt lat="43.81868" lon="5.5392">
        <ele>1015.9</ele>
        <time>2012-03-19T15:06:38Z</time>
      </trkpt>
      <trkpt lat="43.81854" lon="5.53953">
        <ele>1010.6</ele>
        <time>2012-03-19T15:06:49Z</time>
      </trkpt>
      <trkpt lat="43.81846" lon="5.53982">
        <ele>1005.1</ele>
        <time>2012-03-19T15:06:58Z</time>
      </trkpt>
      <trkpt lat="43.81844" lon="5.53991">
        <ele>1003.5</ele>
        <time>2012-03-19T15:07:01Z</time>
      </trkpt>
      <trkpt lat="43.81831" lon="5.54049">
        <ele>992.9</ele>
        <time>2012-03-19T15:07:19Z</time>
      </trkpt>
      <trkpt lat="43.81817" lon="5.5408">
        <ele>986.7</ele>
        <time>2012-03-19T15:07:29Z</time>
      </trkpt>
      <trkpt lat="43.81809" lon="5.54117">
        <ele>981.4</ele>
        <time>2012-03-19T15:07:40Z</time>
      </trkpt>
      <trkpt lat="43.81797" lon="5.54135">
        <ele>977.9</ele>
        <time>2012-03-19T15:07:47Z</time>
      </trkpt>
      <trkpt lat="43.81788" lon="5.54144">
        <ele>976.2</ele>
        <time>2012-03-19T15:07:52Z</time>
      </trkpt>
      <trkpt lat="43.81789" lon="5.54135">
        <ele>977.2</ele>
        <time>2012-03-19T15:07:54Z</time>
      </trkpt>
      <trkpt lat="43.81788" lon="5.54128">
        <ele>978</ele>
        <time>2012-03-19T15:07:56Z</time>
      </trkpt>
      <trkpt lat="43.81778" lon="5.54117">
        <ele>978.4</ele>
        <time>2012-03-19T15:08:02Z</time>
      </trkpt>
      <trkpt lat="43.81763" lon="5.54103">
        <ele>977.1</ele>
        <time>2012-03-19T15:08:09Z</time>
      </trkpt>
      <trkpt lat="43.8176" lon="5.54098">
        <ele>977</ele>
        <time>2012-03-19T15:08:10Z</time>
      </trkpt>
      <trkpt lat="43.81753" lon="5.54093">
        <ele>975.9</ele>
        <time>2012-03-19T15:08:14Z</time>
      </trkpt>
      <trkpt lat="43.81739" lon="5.54088">
        <ele>972.8</ele>
        <time>2012-03-19T15:08:20Z</time>
      </trkpt>
      <trkpt lat="43.81736" lon="5.54088">
        <ele>972.1</ele>
        <time>2012-03-19T15:08:21Z</time>
      </trkpt>
      <trkpt lat="43.81723" lon="5.54091">
        <ele>968.9</ele>
        <time>2012-03-19T15:08:26Z</time>
      </trkpt>
      <trkpt lat="43.81707" lon="5.54101">
        <ele>965</ele>
        <time>2012-03-19T15:08:33Z</time>
      </trkpt>
      <trkpt lat="43.81696" lon="5.54105">
        <ele>962.5</ele>
        <time>2012-03-19T15:08:37Z</time>
      </trkpt>
      <trkpt lat="43.81682" lon="5.54104">
        <ele>957.9</ele>
        <time>2012-03-19T15:08:43Z</time>
      </trkpt>
      <trkpt lat="43.81674" lon="5.54095">
        <ele>955</ele>
        <time>2012-03-19T15:08:47Z</time>
      </trkpt>
      <trkpt lat="43.81669" lon="5.54087">
        <ele>952.9</ele>
        <time>2012-03-19T15:08:50Z</time>
      </trkpt>
      <trkpt lat="43.81665" lon="5.54082">
        <ele>951.6</ele>
        <time>2012-03-19T15:08:52Z</time>
      </trkpt>
      <trkpt lat="43.81655" lon="5.5407">
        <ele>948.4</ele>
        <time>2012-03-19T15:08:58Z</time>
      </trkpt>
      <trkpt lat="43.81638" lon="5.54055">
        <ele>943.7</ele>
        <time>2012-03-19T15:09:06Z</time>
      </trkpt>
      <trkpt lat="43.8163" lon="5.54069">
        <ele>938.8</ele>
        <time>2012-03-19T15:09:11Z</time>
      </trkpt>
      <trkpt lat="43.81625" lon="5.54078">
        <ele>936</ele>
        <time>2012-03-19T15:09:14Z</time>
      </trkpt>
      <trkpt lat="43.81622" lon="5.54077">
        <ele>934.9</ele>
        <time>2012-03-19T15:09:15Z</time>
      </trkpt>
      <trkpt lat="43.81608" lon="5.54049">
        <ele>930.9</ele>
        <time>2012-03-19T15:09:25Z</time>
      </trkpt>
      <trkpt lat="43.81591" lon="5.5403">
        <ele>923.5</ele>
        <time>2012-03-19T15:09:34Z</time>
      </trkpt>
      <trkpt lat="43.81584" lon="5.54026">
        <ele>920.8</ele>
        <time>2012-03-19T15:09:37Z</time>
      </trkpt>
      <trkpt lat="43.81567" lon="5.53998">
        <ele>913.4</ele>
        <time>2012-03-19T15:09:47Z</time>
      </trkpt>
      <trkpt lat="43.81543" lon="5.5397">
        <ele>905.3</ele>
        <time>2012-03-19T15:10:00Z</time>
      </trkpt>
      <trkpt lat="43.81537" lon="5.53966">
        <ele>903.6</ele>
        <time>2012-03-19T15:10:03Z</time>
      </trkpt>
      <trkpt lat="43.81519" lon="5.53949">
        <ele>898.2</ele>
        <time>2012-03-19T15:10:12Z</time>
      </trkpt>
      <trkpt lat="43.81511" lon="5.53931">
        <ele>896.2</ele>
        <time>2012-03-19T15:10:18Z</time>
      </trkpt>
      <trkpt lat="43.81505" lon="5.53893">
        <ele>895.3</ele>
        <time>2012-03-19T15:10:29Z</time>
      </trkpt>
      <trkpt lat="43.81505" lon="5.53868">
        <ele>895.8</ele>
        <time>2012-03-19T15:10:36Z</time>
      </trkpt>
      <trkpt lat="43.81495" lon="5.53816">
        <ele>889.5</ele>
        <time>2012-03-19T15:10:52Z</time>
      </trkpt>
      <trkpt lat="43.81486" lon="5.53765">
        <ele>885.6</ele>
        <time>2012-03-19T15:11:07Z</time>
      </trkpt>
      <trkpt lat="43.81478" lon="5.53733">
        <ele>880.6</ele>
        <time>2012-03-19T15:11:17Z</time>
      </trkpt>
      <trkpt lat="43.81459" lon="5.53654">
        <ele>868.3</ele>
        <time>2012-03-19T15:11:41Z</time>
      </trkpt>
      <trkpt lat="43.81456" lon="5.53643">
        <ele>866.2</ele>
        <time>2012-03-19T15:11:44Z</time>
      </trkpt>
      <trkpt lat="43.81441" lon="5.53575">
        <ele>854.2</ele>
        <time>2012-03-19T15:12:04Z</time>
      </trkpt>
      <trkpt lat="43.81414" lon="5.53524">
        <ele>836.2</ele>
        <time>2012-03-19T15:12:23Z</time>
      </trkpt>
      <trkpt lat="43.814" lon="5.53466">
        <ele>826.3</ele>
        <time>2012-03-19T15:12:40Z</time>
      </trkpt>
      <trkpt lat="43.81387" lon="5.53396">
        <ele>814.2</ele>
        <time>2012-03-19T15:13:01Z</time>
      </trkpt>
      <trkpt lat="43.81371" lon="5.53355">
        <ele>803.2</ele>
        <time>2012-03-19T15:13:15Z</time>
      </trkpt>
      <trkpt lat="43.8138" lon="5.53332">
        <ele>800.7</ele>
        <time>2012-03-19T15:13:22Z</time>
      </trkpt>
      <trkpt lat="43.8138" lon="5.53292">
        <ele>791</ele>
        <time>2012-03-19T15:13:34Z</time>
      </trkpt>
      <trkpt lat="43.81386" lon="5.53271">
        <ele>789.2</ele>
        <time>2012-03-19T15:13:40Z</time>
      </trkpt>
      <trkpt lat="43.81382" lon="5.53239">
        <ele>783.4</ele>
        <time>2012-03-19T15:13:50Z</time>
      </trkpt>
      <trkpt lat="43.81376" lon="5.53219">
        <ele>779.4</ele>
        <time>2012-03-19T15:13:56Z</time>
      </trkpt>
      <trkpt lat="43.81371" lon="5.53203">
        <ele>775.7</ele>
        <time>2012-03-19T15:14:01Z</time>
      </trkpt>
      <trkpt lat="43.81365" lon="5.53186">
        <ele>771.4</ele>
        <time>2012-03-19T15:14:07Z</time>
      </trkpt>
      <trkpt lat="43.81364" lon="5.53171">
        <ele>768.2</ele>
        <time>2012-03-19T15:14:11Z</time>
      </trkpt>
      <trkpt lat="43.81363" lon="5.53155">
        <ele>766.3</ele>
        <time>2012-03-19T15:14:16Z</time>
      </trkpt>
      <trkpt lat="43.81351" lon="5.53121">
        <ele>759.3</ele>
        <time>2012-03-19T15:14:27Z</time>
      </trkpt>
      <trkpt lat="43.81345" lon="5.53102">
        <ele>754.8</ele>
        <time>2012-03-19T15:14:33Z</time>
      </trkpt>
      <trkpt lat="43.81336" lon="5.5305">
        <ele>745.9</ele>
        <time>2012-03-19T15:14:48Z</time>
      </trkpt>
      <trkpt lat="43.81329" lon="5.53032">
        <ele>742.2</ele>
        <time>2012-03-19T15:14:54Z</time>
      </trkpt>
      <trkpt lat="43.81314" lon="5.53008">
        <ele>737.2</ele>
        <time>2012-03-19T15:15:03Z</time>
      </trkpt>
      <trkpt lat="43.81304" lon="5.53018">
        <ele>735.1</ele>
        <time>2012-03-19T15:15:08Z</time>
      </trkpt>
      <trkpt lat="43.81291" lon="5.53056">
        <ele>731.3</ele>
        <time>2012-03-19T15:15:20Z</time>
      </trkpt>
      <trkpt lat="43.81278" lon="5.53099">
        <ele>729.2</ele>
        <time>2012-03-19T15:15:34Z</time>
      </trkpt>
      <trkpt lat="43.81275" lon="5.53107">
        <ele>728.9</ele>
        <time>2012-03-19T15:15:36Z</time>
      </trkpt>
      <trkpt lat="43.81258" lon="5.53133">
        <ele>725.3</ele>
        <time>2012-03-19T15:15:46Z</time>
      </trkpt>
      <trkpt lat="43.81254" lon="5.53135">
        <ele>724.1</ele>
        <time>2012-03-19T15:15:48Z</time>
      </trkpt>
      <trkpt lat="43.81242" lon="5.53151">
        <ele>721.9</ele>
        <time>2012-03-19T15:15:55Z</time>
      </trkpt>
      <trkpt lat="43.81234" lon="5.53162">
        <ele>720.2</ele>
        <time>2012-03-19T15:15:59Z</time>
      </trkpt>
      <trkpt lat="43.81227" lon="5.53176">
        <ele>718.1</ele>
        <time>2012-03-19T15:16:04Z</time>
      </trkpt>
      <trkpt lat="43.81214" lon="5.532">
        <ele>714.7</ele>
        <time>2012-03-19T15:16:13Z</time>
      </trkpt>
      <trkpt lat="43.81202" lon="5.53214">
        <ele>712.5</ele>
        <time>2012-03-19T15:16:19Z</time>
      </trkpt>
      <trkpt lat="43.81191" lon="5.53233">
        <ele>711.1</ele>
        <time>2012-03-19T15:16:26Z</time>
      </trkpt>
      <trkpt lat="43.81162" lon="5.53261">
        <ele>706.5</ele>
        <time>2012-03-19T15:16:40Z</time>
      </trkpt>
      <trkpt lat="43.8115" lon="5.53266">
        <ele>704.8</ele>
        <time>2012-03-19T15:16:45Z</time>
      </trkpt>
      <trkpt lat="43.81128" lon="5.53266">
        <ele>700.2</ele>
        <time>2012-03-19T15:16:54Z</time>
      </trkpt>
      <trkpt lat="43.81098" lon="5.53263">
        <ele>694.3</ele>
        <time>2012-03-19T15:17:06Z</time>
      </trkpt>
      <trkpt lat="43.81073" lon="5.53263">
        <ele>689.9</ele>
        <time>2012-03-19T15:17:16Z</time>
      </trkpt>
      <trkpt lat="43.8105" lon="5.53282">
        <ele>688.4</ele>
        <time>2012-03-19T15:17:27Z</time>
      </trkpt>
      <trkpt lat="43.81032" lon="5.53299">
        <ele>686.3</ele>
        <time>2012-03-19T15:17:36Z</time>
      </trkpt>
      <trkpt lat="43.81027" lon="5.53313">
        <ele>686.1</ele>
        <time>2012-03-19T15:17:40Z</time>
      </trkpt>
      <trkpt lat="43.81023" lon="5.53339">
        <ele>685.3</ele>
        <time>2012-03-19T15:17:48Z</time>
      </trkpt>
      <trkpt lat="43.81023" lon="5.53365">
        <ele>683.1</ele>
        <time>2012-03-19T15:17:55Z</time>
      </trkpt>
      <trkpt lat="43.81018" lon="5.53389">
        <ele>677.8</ele>
        <time>2012-03-19T15:18:03Z</time>
      </trkpt>
      <trkpt lat="43.81013" lon="5.53399">
        <ele>676.2</ele>
        <time>2012-03-19T15:18:06Z</time>
      </trkpt>
      <trkpt lat="43.81006" lon="5.53413">
        <ele>674.1</ele>
        <time>2012-03-19T15:18:11Z</time>
      </trkpt>
      <trkpt lat="43.81004" lon="5.53422">
        <ele>673.3</ele>
        <time>2012-03-19T15:18:14Z</time>
      </trkpt>
      <trkpt lat="43.81005" lon="5.53437">
        <ele>672.7</ele>
        <time>2012-03-19T15:18:18Z</time>
      </trkpt>
      <trkpt lat="43.81029" lon="5.53471">
        <ele>672.2</ele>
        <time>2012-03-19T15:18:32Z</time>
      </trkpt>
      <trkpt lat="43.81061" lon="5.5351">
        <ele>677</ele>
        <time>2012-03-19T15:18:49Z</time>
      </trkpt>
      <trkpt lat="43.81066" lon="5.53531">
        <ele>678.4</ele>
        <time>2012-03-19T15:18:55Z</time>
      </trkpt>
      <trkpt lat="43.81066" lon="5.53553">
        <ele>679</ele>
        <time>2012-03-19T15:19:02Z</time>
      </trkpt>
      <trkpt lat="43.81069" lon="5.53617">
        <ele>678.3</ele>
        <time>2012-03-19T15:19:20Z</time>
      </trkpt>
      <trkpt lat="43.81067" lon="5.53694">
        <ele>675.9</ele>
        <time>2012-03-19T15:19:43Z</time>
      </trkpt>
      <trkpt lat="43.81065" lon="5.53754">
        <ele>675.8</ele>
        <time>2012-03-19T15:20:00Z</time>
      </trkpt>
      <trkpt lat="43.81063" lon="5.53816">
        <ele>676.8</ele>
        <time>2012-03-19T15:20:18Z</time>
      </trkpt>
      <trkpt lat="43.81088" lon="5.53932">
        <ele>683.6</ele>
        <time>2012-03-19T15:20:53Z</time>
      </trkpt>
      <trkpt lat="43.81109" lon="5.5397">
        <ele>687.6</ele>
        <time>2012-03-19T15:21:07Z</time>
      </trkpt>
      <trkpt lat="43.81116" lon="5.53995">
        <ele>690.5</ele>
        <time>2012-03-19T15:21:14Z</time>
      </trkpt>
      <trkpt lat="43.81118" lon="5.54035">
        <ele>693.3</ele>
        <time>2012-03-19T15:21:26Z</time>
      </trkpt>
      <trkpt lat="43.81119" lon="5.54067">
        <ele>694.2</ele>
        <time>2012-03-19T15:21:35Z</time>
      </trkpt>
      <trkpt lat="43.81132" lon="5.54108">
        <ele>697.1</ele>
        <time>2012-03-19T15:21:48Z</time>
      </trkpt>
      <trkpt lat="43.81143" lon="5.54149">
        <ele>699.2</ele>
        <time>2012-03-19T15:22:01Z</time>
      </trkpt>
      <trkpt lat="43.81151" lon="5.54203">
        <ele>703.6</ele>
        <time>2012-03-19T15:22:17Z</time>
      </trkpt>
      <trkpt lat="43.81164" lon="5.54252">
        <ele>706</ele>
        <time>2012-03-19T15:22:32Z</time>
      </trkpt>
      <trkpt lat="43.81176" lon="5.54284">
        <ele>707.8</ele>
        <time>2012-03-19T15:22:42Z</time>
      </trkpt>
      <trkpt lat="43.81178" lon="5.54342">
        <ele>709.4</ele>
        <time>2012-03-19T15:22:59Z</time>
      </trkpt>
      <trkpt lat="43.81174" lon="5.54407">
        <ele>712.2</ele>
        <time>2012-03-19T15:23:18Z</time>
      </trkpt>
      <trkpt lat="43.81156" lon="5.54489">
        <ele>710.5</ele>
        <time>2012-03-19T15:23:42Z</time>
      </trkpt>
      <trkpt lat="43.81132" lon="5.54602">
        <ele>711.9</ele>
        <time>2012-03-19T15:24:16Z</time>
      </trkpt>
      <trkpt lat="43.81116" lon="5.54673">
        <ele>714.6</ele>
        <time>2012-03-19T15:24:38Z</time>
      </trkpt>
      <trkpt lat="43.81105" lon="5.54724">
        <ele>716.6</ele>
        <time>2012-03-19T15:24:53Z</time>
      </trkpt>
      <trkpt lat="43.8109" lon="5.54752">
        <ele>714.1</ele>
        <time>2012-03-19T15:25:03Z</time>
      </trkpt>
      <trkpt lat="43.81083" lon="5.54766">
        <ele>715.5</ele>
        <time>2012-03-19T15:25:08Z</time>
      </trkpt>
      <trkpt lat="43.81064" lon="5.54808">
        <ele>718</ele>
        <time>2012-03-19T15:25:23Z</time>
      </trkpt>
      <trkpt lat="43.8106" lon="5.54822">
        <ele>719.2</ele>
        <time>2012-03-19T15:25:27Z</time>
      </trkpt>
      <trkpt lat="43.81059" lon="5.5483">
        <ele>720.3</ele>
        <time>2012-03-19T15:25:29Z</time>
      </trkpt>
      <trkpt lat="43.81061" lon="5.5484">
        <ele>721.1</ele>
        <time>2012-03-19T15:25:32Z</time>
      </trkpt>
      <trkpt lat="43.81074" lon="5.54823">
        <ele>722.8</ele>
        <time>2012-03-19T15:25:39Z</time>
      </trkpt>
      <trkpt lat="43.81084" lon="5.54831">
        <ele>726</ele>
        <time>2012-03-19T15:25:44Z</time>
      </trkpt>
      <trkpt lat="43.81097" lon="5.5487">
        <ele>730.7</ele>
        <time>2012-03-19T15:25:57Z</time>
      </trkpt>
      <trkpt lat="43.8112" lon="5.54916">
        <ele>739</ele>
        <time>2012-03-19T15:26:13Z</time>
      </trkpt>
      <trkpt lat="43.81136" lon="5.5495">
        <ele>743.7</ele>
        <time>2012-03-19T15:26:24Z</time>
      </trkpt>
      <trkpt lat="43.81139" lon="5.54966">
        <ele>746.4</ele>
        <time>2012-03-19T15:26:29Z</time>
      </trkpt>
      <trkpt lat="43.81121" lon="5.54975">
        <ele>744.5</ele>
        <time>2012-03-19T15:26:37Z</time>
      </trkpt>
      <trkpt lat="43.81108" lon="5.54997">
        <ele>745.3</ele>
        <time>2012-03-19T15:26:45Z</time>
      </trkpt>
      <trkpt lat="43.811" lon="5.55027">
        <ele>747.8</ele>
        <time>2012-03-19T15:26:54Z</time>
      </trkpt>
      <trkpt lat="43.81096" lon="5.55068">
        <ele>751.6</ele>
        <time>2012-03-19T15:27:06Z</time>
      </trkpt>
      <trkpt lat="43.81092" lon="5.55098">
        <ele>753.3</ele>
        <time>2012-03-19T15:27:15Z</time>
      </trkpt>
      <trkpt lat="43.8109" lon="5.55134">
        <ele>756.7</ele>
        <time>2012-03-19T15:27:26Z</time>
      </trkpt>
      <trkpt lat="43.8109" lon="5.55157">
        <ele>759.1</ele>
        <time>2012-03-19T15:27:32Z</time>
      </trkpt>
      <trkpt lat="43.8109" lon="5.55206">
        <ele>764.1</ele>
        <time>2012-03-19T15:27:46Z</time>
      </trkpt>
      <trkpt lat="43.81104" lon="5.55324">
        <ele>775.2</ele>
        <time>2012-03-19T15:28:21Z</time>
      </trkpt>
      <trkpt lat="43.81099" lon="5.55356">
        <ele>778.3</ele>
        <time>2012-03-19T15:28:30Z</time>
      </trkpt>
      <trkpt lat="43.81092" lon="5.55395">
        <ele>780.8</ele>
        <time>2012-03-19T15:28:42Z</time>
      </trkpt>
      <trkpt lat="43.81081" lon="5.55441">
        <ele>783.2</ele>
        <time>2012-03-19T15:28:56Z</time>
      </trkpt>
      <trkpt lat="43.81065" lon="5.55504">
        <ele>787.3</ele>
        <time>2012-03-19T15:29:15Z</time>
      </trkpt>
      <trkpt lat="43.81044" lon="5.55598">
        <ele>797.3</ele>
        <time>2012-03-19T15:29:44Z</time>
      </trkpt>
      <trkpt lat="43.81032" lon="5.55627">
        <ele>797.2</ele>
        <time>2012-03-19T15:29:53Z</time>
      </trkpt>
      <trkpt lat="43.81022" lon="5.55663">
        <ele>801.7</ele>
        <time>2012-03-19T15:30:04Z</time>
      </trkpt>
      <trkpt lat="43.81011" lon="5.55717">
        <ele>809</ele>
        <time>2012-03-19T15:30:21Z</time>
      </trkpt>
      <trkpt lat="43.81001" lon="5.55764">
        <ele>811.1</ele>
        <time>2012-03-19T15:30:35Z</time>
      </trkpt>
      <trkpt lat="43.81" lon="5.55806">
        <ele>815</ele>
        <time>2012-03-19T15:30:47Z</time>
      </trkpt>
      <trkpt lat="43.80999" lon="5.55832">
        <ele>816.3</ele>
        <time>2012-03-19T15:30:54Z</time>
      </trkpt>
      <trkpt lat="43.80999" lon="5.55873">
        <ele>819.4</ele>
        <time>2012-03-19T15:31:06Z</time>
      </trkpt>
      <trkpt lat="43.81" lon="5.5588">
        <ele>820.2</ele>
        <time>2012-03-19T15:31:08Z</time>
      </trkpt>
      <trkpt lat="43.81005" lon="5.55928">
        <ele>818.4</ele>
        <time>2012-03-19T15:31:22Z</time>
      </trkpt>
      <trkpt lat="43.81019" lon="5.55937">
        <ele>821.8</ele>
        <time>2012-03-19T15:31:29Z</time>
      </trkpt>
      <trkpt lat="43.81039" lon="5.55955">
        <ele>825.6</ele>
        <time>2012-03-19T15:31:38Z</time>
      </trkpt>
      <trkpt lat="43.81068" lon="5.55981">
        <ele>833.3</ele>
        <time>2012-03-19T15:31:52Z</time>
      </trkpt>
      <trkpt lat="43.81085" lon="5.56003">
        <ele>837.4</ele>
        <time>2012-03-19T15:32:01Z</time>
      </trkpt>
      <trkpt lat="43.81098" lon="5.56029">
        <ele>841.3</ele>
        <time>2012-03-19T15:32:10Z</time>
      </trkpt>
      <trkpt lat="43.81104" lon="5.56052">
        <ele>841.8</ele>
        <time>2012-03-19T15:32:18Z</time>
      </trkpt>
      <trkpt lat="43.8111" lon="5.56081">
        <ele>841.5</ele>
        <time>2012-03-19T15:32:26Z</time>
      </trkpt>
      <trkpt lat="43.81114" lon="5.56111">
        <ele>840.2</ele>
        <time>2012-03-19T15:32:35Z</time>
      </trkpt>
      <trkpt lat="43.81116" lon="5.56133">
        <ele>841.5</ele>
        <time>2012-03-19T15:32:41Z</time>
      </trkpt>
      <trkpt lat="43.81133" lon="5.5616">
        <ele>846.2</ele>
        <time>2012-03-19T15:32:52Z</time>
      </trkpt>
      <trkpt lat="43.81149" lon="5.56168">
        <ele>849.3</ele>
        <time>2012-03-19T15:32:58Z</time>
      </trkpt>
      <trkpt lat="43.81159" lon="5.56179">
        <ele>850.5</ele>
        <time>2012-03-19T15:33:04Z</time>
      </trkpt>
      <trkpt lat="43.81164" lon="5.56191">
        <ele>851.5</ele>
        <time>2012-03-19T15:33:08Z</time>
      </trkpt>
      <trkpt lat="43.81164" lon="5.56217">
        <ele>851.6</ele>
        <time>2012-03-19T15:33:15Z</time>
      </trkpt>
      <trkpt lat="43.81167" lon="5.56251">
        <ele>852.1</ele>
        <time>2012-03-19T15:33:25Z</time>
      </trkpt>
      <trkpt lat="43.81183" lon="5.56293">
        <ele>854.6</ele>
        <time>2012-03-19T15:33:39Z</time>
      </trkpt>
      <trkpt lat="43.8119" lon="5.56299">
        <ele>855.6</ele>
        <time>2012-03-19T15:33:42Z</time>
      </trkpt>
      <trkpt lat="43.81218" lon="5.56316">
        <ele>857.7</ele>
        <time>2012-03-19T15:33:54Z</time>
      </trkpt>
      <trkpt lat="43.81233" lon="5.56325">
        <ele>858.1</ele>
        <time>2012-03-19T15:34:01Z</time>
      </trkpt>
      <trkpt lat="43.81238" lon="5.56344">
        <ele>856.4</ele>
        <time>2012-03-19T15:34:07Z</time>
      </trkpt>
      <trkpt lat="43.81255" lon="5.56352">
        <ele>856</ele>
        <time>2012-03-19T15:34:14Z</time>
      </trkpt>
      <trkpt lat="43.81273" lon="5.56355">
        <ele>855.7</ele>
        <time>2012-03-19T15:34:22Z</time>
      </trkpt>
      <trkpt lat="43.81345" lon="5.5636">
        <ele>849.9</ele>
        <time>2012-03-19T15:34:50Z</time>
      </trkpt>
      <trkpt lat="43.81369" lon="5.56355">
        <ele>847.9</ele>
        <time>2012-03-19T15:35:00Z</time>
      </trkpt>
      <trkpt lat="43.81428" lon="5.56351">
        <ele>840.1</ele>
        <time>2012-03-19T15:35:24Z</time>
      </trkpt>
      <trkpt lat="43.81496" lon="5.56352">
        <ele>835.8</ele>
        <time>2012-03-19T15:35:51Z</time>
      </trkpt>
      <trkpt lat="43.81601" lon="5.56367">
        <ele>828.2</ele>
        <time>2012-03-19T15:36:33Z</time>
      </trkpt>
      <trkpt lat="43.81675" lon="5.56337">
        <ele>812.8</ele>
        <time>2012-03-19T15:37:04Z</time>
      </trkpt>
      <trkpt lat="43.81687" lon="5.56328">
        <ele>811.2</ele>
        <time>2012-03-19T15:37:10Z</time>
      </trkpt>
      <trkpt lat="43.81719" lon="5.56309">
        <ele>806</ele>
        <time>2012-03-19T15:37:24Z</time>
      </trkpt>
      <trkpt lat="43.81725" lon="5.56305">
        <ele>805.6</ele>
        <time>2012-03-19T15:37:26Z</time>
      </trkpt>
      <trkpt lat="43.81796" lon="5.56237">
        <ele>801.4</ele>
        <time>2012-03-19T15:38:01Z</time>
      </trkpt>
      <trkpt lat="43.81804" lon="5.56234">
        <ele>799.9</ele>
        <time>2012-03-19T15:38:04Z</time>
      </trkpt>
      <trkpt lat="43.8182" lon="5.56229">
        <ele>801.4</ele>
        <time>2012-03-19T15:38:10Z</time>
      </trkpt>
      <trkpt lat="43.81824" lon="5.56228">
        <ele>802.1</ele>
        <time>2012-03-19T15:38:12Z</time>
      </trkpt>
      <trkpt lat="43.81863" lon="5.56212">
        <ele>806.7</ele>
        <time>2012-03-19T15:38:29Z</time>
      </trkpt>
      <trkpt lat="43.8187" lon="5.56221">
        <ele>807.6</ele>
        <time>2012-03-19T15:38:32Z</time>
      </trkpt>
      <trkpt lat="43.81872" lon="5.56275">
        <ele>811.2</ele>
        <time>2012-03-19T15:38:48Z</time>
      </trkpt>
      <trkpt lat="43.81872" lon="5.56311">
        <ele>813.1</ele>
        <time>2012-03-19T15:38:58Z</time>
      </trkpt>
      <trkpt lat="43.81871" lon="5.56361">
        <ele>817.1</ele>
        <time>2012-03-19T15:39:13Z</time>
      </trkpt>
      <trkpt lat="43.81867" lon="5.56408">
        <ele>819.6</ele>
        <time>2012-03-19T15:39:26Z</time>
      </trkpt>
      <trkpt lat="43.81861" lon="5.56435">
        <ele>820.4</ele>
        <time>2012-03-19T15:39:34Z</time>
      </trkpt>
      <trkpt lat="43.81851" lon="5.5649">
        <ele>821.3</ele>
        <time>2012-03-19T15:39:51Z</time>
      </trkpt>
      <trkpt lat="43.81857" lon="5.56548">
        <ele>824</ele>
        <time>2012-03-19T15:40:08Z</time>
      </trkpt>
      <trkpt lat="43.81865" lon="5.56581">
        <ele>824.5</ele>
        <time>2012-03-19T15:40:18Z</time>
      </trkpt>
      <trkpt lat="43.81883" lon="5.56606">
        <ele>825.5</ele>
        <time>2012-03-19T15:40:28Z</time>
      </trkpt>
      <trkpt lat="43.81903" lon="5.56623">
        <ele>826.6</ele>
        <time>2012-03-19T15:40:38Z</time>
      </trkpt>
      <trkpt lat="43.81923" lon="5.5664">
        <ele>826.9</ele>
        <time>2012-03-19T15:40:47Z</time>
      </trkpt>
      <trkpt lat="43.8195" lon="5.56678">
        <ele>825.6</ele>
        <time>2012-03-19T15:41:02Z</time>
      </trkpt>
      <trkpt lat="43.81962" lon="5.56704">
        <ele>825.2</ele>
        <time>2012-03-19T15:41:11Z</time>
      </trkpt>
      <trkpt lat="43.81969" lon="5.56735">
        <ele>826.4</ele>
        <time>2012-03-19T15:41:21Z</time>
      </trkpt>
      <trkpt lat="43.81965" lon="5.56754">
        <ele>827.1</ele>
        <time>2012-03-19T15:41:26Z</time>
      </trkpt>
      <trkpt lat="43.81941" lon="5.56794">
        <ele>828.3</ele>
        <time>2012-03-19T15:41:42Z</time>
      </trkpt>
      <trkpt lat="43.81929" lon="5.56818">
        <ele>828.8</ele>
        <time>2012-03-19T15:41:50Z</time>
      </trkpt>
      <trkpt lat="43.81919" lon="5.56843">
        <ele>829.9</ele>
        <time>2012-03-19T15:41:58Z</time>
      </trkpt>
      <trkpt lat="43.81912" lon="5.56875">
        <ele>831.6</ele>
        <time>2012-03-19T15:42:08Z</time>
      </trkpt>
      <trkpt lat="43.81907" lon="5.56904">
        <ele>832.3</ele>
        <time>2012-03-19T15:42:17Z</time>
      </trkpt>
      <trkpt lat="43.81901" lon="5.56943">
        <ele>832.4</ele>
        <time>2012-03-19T15:42:28Z</time>
      </trkpt>
      <trkpt lat="43.81898" lon="5.56974">
        <ele>831.3</ele>
        <time>2012-03-19T15:42:37Z</time>
      </trkpt>
      <trkpt lat="43.81907" lon="5.57009">
        <ele>830.4</ele>
        <time>2012-03-19T15:42:48Z</time>
      </trkpt>
      <trkpt lat="43.81934" lon="5.57039">
        <ele>829.4</ele>
        <time>2012-03-19T15:43:01Z</time>
      </trkpt>
      <trkpt lat="43.81971" lon="5.57093">
        <ele>823.4</ele>
        <time>2012-03-19T15:43:23Z</time>
      </trkpt>
      <trkpt lat="43.82008" lon="5.57131">
        <ele>816.8</ele>
        <time>2012-03-19T15:43:41Z</time>
      </trkpt>
      <trkpt lat="43.82029" lon="5.57138">
        <ele>814</ele>
        <time>2012-03-19T15:43:50Z</time>
      </trkpt>
      <trkpt lat="43.82076" lon="5.57152">
        <ele>807.8</ele>
        <time>2012-03-19T15:44:09Z</time>
      </trkpt>
      <trkpt lat="43.82103" lon="5.57162">
        <ele>804.8</ele>
        <time>2012-03-19T15:44:20Z</time>
      </trkpt>
      <trkpt lat="43.82171" lon="5.57184">
        <ele>798.1</ele>
        <time>2012-03-19T15:44:48Z</time>
      </trkpt>
      <trkpt lat="43.82221" lon="5.57207">
        <ele>794.6</ele>
        <time>2012-03-19T15:45:10Z</time>
      </trkpt>
      <trkpt lat="43.82268" lon="5.57231">
        <ele>791.3</ele>
        <time>2012-03-19T15:45:30Z</time>
      </trkpt>
      <trkpt lat="43.8227" lon="5.57248">
        <ele>791.3</ele>
        <time>2012-03-19T15:45:35Z</time>
      </trkpt>
      <trkpt lat="43.82263" lon="5.57273">
        <ele>790.3</ele>
        <time>2012-03-19T15:45:42Z</time>
      </trkpt>
      <trkpt lat="43.82253" lon="5.5729">
        <ele>789.6</ele>
        <time>2012-03-19T15:45:49Z</time>
      </trkpt>
      <trkpt lat="43.82231" lon="5.57325">
        <ele>788.3</ele>
        <time>2012-03-19T15:46:02Z</time>
      </trkpt>
      <trkpt lat="43.82215" lon="5.5733">
        <ele>788.1</ele>
        <time>2012-03-19T15:46:09Z</time>
      </trkpt>
      <trkpt lat="43.82208" lon="5.57332">
        <ele>788.1</ele>
        <time>2012-03-19T15:46:12Z</time>
      </trkpt>
      <trkpt lat="43.82198" lon="5.57333">
        <ele>788</ele>
        <time>2012-03-19T15:46:16Z</time>
      </trkpt>
      <trkpt lat="43.82194" lon="5.57334">
        <ele>787.9</ele>
        <time>2012-03-19T15:46:17Z</time>
      </trkpt>
      <trkpt lat="43.82186" lon="5.57338">
        <ele>787.4</ele>
        <time>2012-03-19T15:46:21Z</time>
      </trkpt>
      <trkpt lat="43.82173" lon="5.57359">
        <ele>784.5</ele>
        <time>2012-03-19T15:46:29Z</time>
      </trkpt>
      <trkpt lat="43.82167" lon="5.57375">
        <ele>780.6</ele>
        <time>2012-03-19T15:46:34Z</time>
      </trkpt>
      <trkpt lat="43.82161" lon="5.57389">
        <ele>776.7</ele>
        <time>2012-03-19T15:46:39Z</time>
      </trkpt>
      <trkpt lat="43.82156" lon="5.574">
        <ele>775.4</ele>
        <time>2012-03-19T15:46:42Z</time>
      </trkpt>
      <trkpt lat="43.82151" lon="5.57422">
        <ele>772.2</ele>
        <time>2012-03-19T15:46:49Z</time>
      </trkpt>
      <trkpt lat="43.82159" lon="5.57453">
        <ele>769</ele>
        <time>2012-03-19T15:46:58Z</time>
      </trkpt>
      <trkpt lat="43.82164" lon="5.57478">
        <ele>765.4</ele>
        <time>2012-03-19T15:47:06Z</time>
      </trkpt>
      <trkpt lat="43.82176" lon="5.57537">
        <ele>760.4</ele>
        <time>2012-03-19T15:47:24Z</time>
      </trkpt>
      <trkpt lat="43.8219" lon="5.57582">
        <ele>755.5</ele>
        <time>2012-03-19T15:47:38Z</time>
      </trkpt>
      <trkpt lat="43.822" lon="5.57616">
        <ele>750.7</ele>
        <time>2012-03-19T15:47:48Z</time>
      </trkpt>
      <trkpt lat="43.82219" lon="5.5768">
        <ele>743.3</ele>
        <time>2012-03-19T15:48:08Z</time>
      </trkpt>
      <trkpt lat="43.8223" lon="5.57709">
        <ele>740.9</ele>
        <time>2012-03-19T15:48:18Z</time>
      </trkpt>
      <trkpt lat="43.82236" lon="5.5775">
        <ele>737.5</ele>
        <time>2012-03-19T15:48:30Z</time>
      </trkpt>
      <trkpt lat="43.82236" lon="5.57781">
        <ele>734.2</ele>
        <time>2012-03-19T15:48:39Z</time>
      </trkpt>
      <trkpt lat="43.82236" lon="5.5784">
        <ele>729</ele>
        <time>2012-03-19T15:48:56Z</time>
      </trkpt>
      <trkpt lat="43.82234" lon="5.57911">
        <ele>722.9</ele>
        <time>2012-03-19T15:49:16Z</time>
      </trkpt>
      <trkpt lat="43.82232" lon="5.5795">
        <ele>719.2</ele>
        <time>2012-03-19T15:49:28Z</time>
      </trkpt>
      <trkpt lat="43.82237" lon="5.58011">
        <ele>715.4</ele>
        <time>2012-03-19T15:49:45Z</time>
      </trkpt>
      <trkpt lat="43.82246" lon="5.58089">
        <ele>705.5</ele>
        <time>2012-03-19T15:50:08Z</time>
      </trkpt>
      <trkpt lat="43.82262" lon="5.58158">
        <ele>699.4</ele>
        <time>2012-03-19T15:50:29Z</time>
      </trkpt>
      <trkpt lat="43.82273" lon="5.58185">
        <ele>695.8</ele>
        <time>2012-03-19T15:50:38Z</time>
      </trkpt>
      <trkpt lat="43.82277" lon="5.58213">
        <ele>689.3</ele>
        <time>2012-03-19T15:50:46Z</time>
      </trkpt>
      <trkpt lat="43.82278" lon="5.58224">
        <ele>686.4</ele>
        <time>2012-03-19T15:50:50Z</time>
      </trkpt>
      <trkpt lat="43.82279" lon="5.5823">
        <ele>684.6</ele>
        <time>2012-03-19T15:50:51Z</time>
      </trkpt>
      <trkpt lat="43.82295" lon="5.58277">
        <ele>675</ele>
        <time>2012-03-19T15:51:06Z</time>
      </trkpt>
      <trkpt lat="43.82314" lon="5.58322">
        <ele>669.3</ele>
        <time>2012-03-19T15:51:21Z</time>
      </trkpt>
      <trkpt lat="43.8234" lon="5.58384">
        <ele>658.8</ele>
        <time>2012-03-19T15:51:42Z</time>
      </trkpt>
      <trkpt lat="43.82348" lon="5.58445">
        <ele>648.4</ele>
        <time>2012-03-19T15:52:00Z</time>
      </trkpt>
      <trkpt lat="43.8235" lon="5.58478">
        <ele>642.4</ele>
        <time>2012-03-19T15:52:09Z</time>
      </trkpt>
      <trkpt lat="43.82355" lon="5.58514">
        <ele>634.6</ele>
        <time>2012-03-19T15:52:20Z</time>
      </trkpt>
      <trkpt lat="43.82367" lon="5.58562">
        <ele>628.6</ele>
        <time>2012-03-19T15:52:35Z</time>
      </trkpt>
      <trkpt lat="43.82399" lon="5.58561">
        <ele>631.9</ele>
        <time>2012-03-19T15:52:48Z</time>
      </trkpt>
      <trkpt lat="43.82439" lon="5.58546">
        <ele>636.6</ele>
        <time>2012-03-19T15:53:04Z</time>
      </trkpt>
      <trkpt lat="43.82481" lon="5.58518">
        <ele>644.1</ele>
        <time>2012-03-19T15:53:23Z</time>
      </trkpt>
      <trkpt lat="43.82499" lon="5.58487">
        <ele>644.7</ele>
        <time>2012-03-19T15:53:34Z</time>
      </trkpt>
      <trkpt lat="43.82514" lon="5.58466">
        <ele>647.7</ele>
        <time>2012-03-19T15:53:43Z</time>
      </trkpt>
      <trkpt lat="43.82607" lon="5.58324">
        <ele>661.9</ele>
        <time>2012-03-19T15:54:38Z</time>
      </trkpt>
      <trkpt lat="43.82673" lon="5.58217">
        <ele>668</ele>
        <time>2012-03-19T15:55:19Z</time>
      </trkpt>
      <trkpt lat="43.82761" lon="5.58098">
        <ele>676.2</ele>
        <time>2012-03-19T15:56:08Z</time>
      </trkpt>
      <trkpt lat="43.82802" lon="5.5805">
        <ele>678.8</ele>
        <time>2012-03-19T15:56:29Z</time>
      </trkpt>
      <trkpt lat="43.82806" lon="5.5801">
        <ele>682.2</ele>
        <time>2012-03-19T15:56:41Z</time>
      </trkpt>
      <trkpt lat="43.8285" lon="5.57949">
        <ele>685.2</ele>
        <time>2012-03-19T15:57:06Z</time>
      </trkpt>
      <trkpt lat="43.82909" lon="5.57858">
        <ele>689.8</ele>
        <time>2012-03-19T15:57:41Z</time>
      </trkpt>
      <trkpt lat="43.82921" lon="5.57863">
        <ele>689.8</ele>
        <time>2012-03-19T15:57:46Z</time>
      </trkpt>
      <trkpt lat="43.82928" lon="5.57876">
        <ele>691.6</ele>
        <time>2012-03-19T15:57:51Z</time>
      </trkpt>
      <trkpt lat="43.82927" lon="5.57903">
        <ele>693.2</ele>
        <time>2012-03-19T15:57:59Z</time>
      </trkpt>
      <trkpt lat="43.82917" lon="5.57947">
        <ele>694.2</ele>
        <time>2012-03-19T15:58:12Z</time>
      </trkpt>
      <trkpt lat="43.82909" lon="5.57991">
        <ele>694.9</ele>
        <time>2012-03-19T15:58:25Z</time>
      </trkpt>
      <trkpt lat="43.8291" lon="5.58022">
        <ele>695.8</ele>
        <time>2012-03-19T15:58:34Z</time>
      </trkpt>
      <trkpt lat="43.82919" lon="5.58034">
        <ele>695.3</ele>
        <time>2012-03-19T15:58:39Z</time>
      </trkpt>
      <trkpt lat="43.82928" lon="5.58039">
        <ele>693.3</ele>
        <time>2012-03-19T15:58:43Z</time>
      </trkpt>
      <trkpt lat="43.82933" lon="5.5804">
        <ele>692.5</ele>
        <time>2012-03-19T15:58:45Z</time>
      </trkpt>
      <trkpt lat="43.82938" lon="5.58041">
        <ele>691.4</ele>
        <time>2012-03-19T15:58:47Z</time>
      </trkpt>
      <trkpt lat="43.82947" lon="5.58042">
        <ele>689.3</ele>
        <time>2012-03-19T15:58:51Z</time>
      </trkpt>
      <trkpt lat="43.82955" lon="5.5804">
        <ele>687.2</ele>
        <time>2012-03-19T15:58:54Z</time>
      </trkpt>
      <trkpt lat="43.82964" lon="5.58032">
        <ele>685.6</ele>
        <time>2012-03-19T15:58:58Z</time>
      </trkpt>
      <trkpt lat="43.82982" lon="5.58022">
        <ele>682</ele>
        <time>2012-03-19T15:59:06Z</time>
      </trkpt>
      <trkpt lat="43.82993" lon="5.58015">
        <ele>680.2</ele>
        <time>2012-03-19T15:59:11Z</time>
      </trkpt>
      <trkpt lat="43.83004" lon="5.58009">
        <ele>678.5</ele>
        <time>2012-03-19T15:59:16Z</time>
      </trkpt>
      <trkpt lat="43.83008" lon="5.58004">
        <ele>678.7</ele>
        <time>2012-03-19T15:59:18Z</time>
      </trkpt>
      <trkpt lat="43.83035" lon="5.57996">
        <ele>673.1</ele>
        <time>2012-03-19T15:59:29Z</time>
      </trkpt>
      <trkpt lat="43.83044" lon="5.57989">
        <ele>672.4</ele>
        <time>2012-03-19T15:59:33Z</time>
      </trkpt>
      <trkpt lat="43.83077" lon="5.57969">
        <ele>669.5</ele>
        <time>2012-03-19T15:59:47Z</time>
      </trkpt>
      <trkpt lat="43.83087" lon="5.57968">
        <ele>667.5</ele>
        <time>2012-03-19T15:59:51Z</time>
      </trkpt>
      <trkpt lat="43.83106" lon="5.57968">
        <ele>663.3</ele>
        <time>2012-03-19T15:59:59Z</time>
      </trkpt>
      <trkpt lat="43.83113" lon="5.57966">
        <ele>661.9</ele>
        <time>2012-03-19T16:00:02Z</time>
      </trkpt>
      <trkpt lat="43.83146" lon="5.57959">
        <ele>655.7</ele>
        <time>2012-03-19T16:00:15Z</time>
      </trkpt>
      <trkpt lat="43.83173" lon="5.57948">
        <ele>650.4</ele>
        <time>2012-03-19T16:00:26Z</time>
      </trkpt>
      <trkpt lat="43.83193" lon="5.5793">
        <ele>648</ele>
        <time>2012-03-19T16:00:36Z</time>
      </trkpt>
      <trkpt lat="43.83204" lon="5.57918">
        <ele>646.6</ele>
        <time>2012-03-19T16:00:42Z</time>
      </trkpt>
      <trkpt lat="43.83241" lon="5.579">
        <ele>637.4</ele>
        <time>2012-03-19T16:00:57Z</time>
      </trkpt>
      <trkpt lat="43.83259" lon="5.5788">
        <ele>633.8</ele>
        <time>2012-03-19T16:01:07Z</time>
      </trkpt>
      <trkpt lat="43.83269" lon="5.57865">
        <ele>631</ele>
        <time>2012-03-19T16:01:13Z</time>
      </trkpt>
      <trkpt lat="43.8328" lon="5.5785">
        <ele>627.6</ele>
        <time>2012-03-19T16:01:19Z</time>
      </trkpt>
      <trkpt lat="43.83286" lon="5.5784">
        <ele>624.9</ele>
        <time>2012-03-19T16:01:22Z</time>
      </trkpt>
      <trkpt lat="43.83291" lon="5.57823">
        <ele>622</ele>
        <time>2012-03-19T16:01:28Z</time>
      </trkpt>
      <trkpt lat="43.83298" lon="5.57791">
        <ele>617.4</ele>
        <time>2012-03-19T16:01:37Z</time>
      </trkpt>
      <trkpt lat="43.83304" lon="5.57768">
        <ele>613.3</ele>
        <time>2012-03-19T16:01:44Z</time>
      </trkpt>
      <trkpt lat="43.83307" lon="5.57741">
        <ele>608.6</ele>
        <time>2012-03-19T16:01:52Z</time>
      </trkpt>
      <trkpt lat="43.83308" lon="5.57725">
        <ele>604.7</ele>
        <time>2012-03-19T16:01:57Z</time>
      </trkpt>
      <trkpt lat="43.83309" lon="5.57702">
        <ele>599.3</ele>
        <time>2012-03-19T16:02:04Z</time>
      </trkpt>
      <trkpt lat="43.83304" lon="5.57679">
        <ele>599.3</ele>
        <time>2012-03-19T16:02:11Z</time>
      </trkpt>
      <trkpt lat="43.83308" lon="5.57667">
        <ele>595.1</ele>
        <time>2012-03-19T16:02:15Z</time>
      </trkpt>
      <trkpt lat="43.83327" lon="5.57609">
        <ele>588.6</ele>
        <time>2012-03-19T16:02:33Z</time>
      </trkpt>
      <trkpt lat="43.83327" lon="5.57583">
        <ele>586.7</ele>
        <time>2012-03-19T16:02:40Z</time>
      </trkpt>
      <trkpt lat="43.8332" lon="5.57558">
        <ele>582.9</ele>
        <time>2012-03-19T16:02:48Z</time>
      </trkpt>
      <trkpt lat="43.83318" lon="5.57544">
        <ele>579.7</ele>
        <time>2012-03-19T16:02:52Z</time>
      </trkpt>
      <trkpt lat="43.83318" lon="5.5753">
        <ele>576</ele>
        <time>2012-03-19T16:02:56Z</time>
      </trkpt>
      <trkpt lat="43.8332" lon="5.57522">
        <ele>573.7</ele>
        <time>2012-03-19T16:02:59Z</time>
      </trkpt>
      <trkpt lat="43.8332" lon="5.57502">
        <ele>568.8</ele>
        <time>2012-03-19T16:03:04Z</time>
      </trkpt>
      <trkpt lat="43.83318" lon="5.57493">
        <ele>566.8</ele>
        <time>2012-03-19T16:03:07Z</time>
      </trkpt>
      <trkpt lat="43.83315" lon="5.57483">
        <ele>564.8</ele>
        <time>2012-03-19T16:03:10Z</time>
      </trkpt>
      <trkpt lat="43.83313" lon="5.57477">
        <ele>563.7</ele>
        <time>2012-03-19T16:03:12Z</time>
      </trkpt>
      <trkpt lat="43.83312" lon="5.57469">
        <ele>562.5</ele>
        <time>2012-03-19T16:03:15Z</time>
      </trkpt>
      <trkpt lat="43.83319" lon="5.57448">
        <ele>558.4</ele>
        <time>2012-03-19T16:03:21Z</time>
      </trkpt>
      <trkpt lat="43.83334" lon="5.57414">
        <ele>554.8</ele>
        <time>2012-03-19T16:03:33Z</time>
      </trkpt>
      <trkpt lat="43.83344" lon="5.57391">
        <ele>552.6</ele>
        <time>2012-03-19T16:03:40Z</time>
      </trkpt>
      <trkpt lat="43.83356" lon="5.57364">
        <ele>548</ele>
        <time>2012-03-19T16:03:50Z</time>
      </trkpt>
      <trkpt lat="43.83363" lon="5.57349">
        <ele>545.2</ele>
        <time>2012-03-19T16:03:55Z</time>
      </trkpt>
      <trkpt lat="43.83374" lon="5.5729">
        <ele>537.9</ele>
        <time>2012-03-19T16:04:12Z</time>
      </trkpt>
      <trkpt lat="43.83379" lon="5.57279">
        <ele>535.5</ele>
        <time>2012-03-19T16:04:16Z</time>
      </trkpt>
      <trkpt lat="43.83386" lon="5.5726">
        <ele>532.6</ele>
        <time>2012-03-19T16:04:22Z</time>
      </trkpt>
      <trkpt lat="43.83395" lon="5.5725">
        <ele>529.5</ele>
        <time>2012-03-19T16:04:27Z</time>
      </trkpt>
      <trkpt lat="43.83404" lon="5.57267">
        <ele>525.8</ele>
        <time>2012-03-19T16:04:33Z</time>
      </trkpt>
      <trkpt lat="43.83406" lon="5.57279">
        <ele>524.7</ele>
        <time>2012-03-19T16:04:36Z</time>
      </trkpt>
      <trkpt lat="43.83412" lon="5.57316">
        <ele>522.9</ele>
        <time>2012-03-19T16:04:47Z</time>
      </trkpt>
      <trkpt lat="43.83414" lon="5.57324">
        <ele>521.9</ele>
        <time>2012-03-19T16:04:50Z</time>
      </trkpt>
      <trkpt lat="43.83427" lon="5.57354">
        <ele>518.5</ele>
        <time>2012-03-19T16:05:00Z</time>
      </trkpt>
      <trkpt lat="43.83431" lon="5.57363">
        <ele>517.4</ele>
        <time>2012-03-19T16:05:03Z</time>
      </trkpt>
      <trkpt lat="43.83447" lon="5.57405">
        <ele>511.9</ele>
        <time>2012-03-19T16:05:16Z</time>
      </trkpt>
      <trkpt lat="43.83458" lon="5.57418">
        <ele>509.9</ele>
        <time>2012-03-19T16:05:22Z</time>
      </trkpt>
      <trkpt lat="43.83481" lon="5.57438">
        <ele>505.4</ele>
        <time>2012-03-19T16:05:33Z</time>
      </trkpt>
      <trkpt lat="43.83489" lon="5.57449">
        <ele>504.3</ele>
        <time>2012-03-19T16:05:38Z</time>
      </trkpt>
      <trkpt lat="43.83501" lon="5.57461">
        <ele>501.6</ele>
        <time>2012-03-19T16:05:44Z</time>
      </trkpt>
      <trkpt lat="43.83514" lon="5.5748">
        <ele>498.3</ele>
        <time>2012-03-19T16:05:51Z</time>
      </trkpt>
      <trkpt lat="43.83523" lon="5.57495">
        <ele>495.1</ele>
        <time>2012-03-19T16:05:57Z</time>
      </trkpt>
      <trkpt lat="43.83535" lon="5.57535">
        <ele>491.9</ele>
        <time>2012-03-19T16:06:10Z</time>
      </trkpt>
      <trkpt lat="43.83545" lon="5.5755">
        <ele>488.5</ele>
        <time>2012-03-19T16:06:15Z</time>
      </trkpt>
      <trkpt lat="43.83556" lon="5.57577">
        <ele>483.1</ele>
        <time>2012-03-19T16:06:24Z</time>
      </trkpt>
      <trkpt lat="43.83565" lon="5.57604">
        <ele>480.4</ele>
        <time>2012-03-19T16:06:33Z</time>
      </trkpt>
      <trkpt lat="43.83585" lon="5.5767">
        <ele>475.6</ele>
        <time>2012-03-19T16:06:54Z</time>
      </trkpt>
      <trkpt lat="43.83594" lon="5.57712">
        <ele>474</ele>
        <time>2012-03-19T16:07:06Z</time>
      </trkpt>
      <trkpt lat="43.83603" lon="5.57735">
        <ele>470.8</ele>
        <time>2012-03-19T16:07:14Z</time>
      </trkpt>
      <trkpt lat="43.83608" lon="5.57754">
        <ele>469.1</ele>
        <time>2012-03-19T16:07:20Z</time>
      </trkpt>
      <trkpt lat="43.83609" lon="5.57785">
        <ele>470.3</ele>
        <time>2012-03-19T16:07:29Z</time>
      </trkpt>
      <trkpt lat="43.83622" lon="5.57806">
        <ele>470</ele>
        <time>2012-03-19T16:07:37Z</time>
      </trkpt>
      <trkpt lat="43.83627" lon="5.57818">
        <ele>469.8</ele>
        <time>2012-03-19T16:07:41Z</time>
      </trkpt>
      <trkpt lat="43.83647" lon="5.57835">
        <ele>467.7</ele>
        <time>2012-03-19T16:07:50Z</time>
      </trkpt>
      <trkpt lat="43.8366" lon="5.57847">
        <ele>465.1</ele>
        <time>2012-03-19T16:07:56Z</time>
      </trkpt>
      <trkpt lat="43.83669" lon="5.57857">
        <ele>462.8</ele>
        <time>2012-03-19T16:08:01Z</time>
      </trkpt>
      <trkpt lat="43.83677" lon="5.57873">
        <ele>460.3</ele>
        <time>2012-03-19T16:08:07Z</time>
      </trkpt>
      <trkpt lat="43.83682" lon="5.57881">
        <ele>458.8</ele>
        <time>2012-03-19T16:08:10Z</time>
      </trkpt>
      <trkpt lat="43.83685" lon="5.57884">
        <ele>458</ele>
        <time>2012-03-19T16:08:11Z</time>
      </trkpt>
      <trkpt lat="43.83694" lon="5.57888">
        <ele>456.2</ele>
        <time>2012-03-19T16:08:15Z</time>
      </trkpt>
      <trkpt lat="43.83704" lon="5.57885">
        <ele>453.2</ele>
        <time>2012-03-19T16:08:19Z</time>
      </trkpt>
      <trkpt lat="43.83707" lon="5.57876">
        <ele>452.8</ele>
        <time>2012-03-19T16:08:22Z</time>
      </trkpt>
      <trkpt lat="43.8371" lon="5.57872">
        <ele>451.7</ele>
        <time>2012-03-19T16:08:24Z</time>
      </trkpt>
      <trkpt lat="43.83716" lon="5.57863">
        <ele>450.2</ele>
        <time>2012-03-19T16:08:27Z</time>
      </trkpt>
      <trkpt lat="43.8372" lon="5.57849">
        <ele>449.3</ele>
        <time>2012-03-19T16:08:31Z</time>
      </trkpt>
      <trkpt lat="43.83722" lon="5.57838">
        <ele>449.1</ele>
        <time>2012-03-19T16:08:35Z</time>
      </trkpt>
      <trkpt lat="43.83723" lon="5.57828">
        <ele>448.8</ele>
        <time>2012-03-19T16:08:38Z</time>
      </trkpt>
      <trkpt lat="43.83722" lon="5.57801">
        <ele>448</ele>
        <time>2012-03-19T16:08:46Z</time>
      </trkpt>
      <trkpt lat="43.83731" lon="5.57795">
        <ele>447.5</ele>
        <time>2012-03-19T16:08:50Z</time>
      </trkpt>
      <trkpt lat="43.8374" lon="5.57793">
        <ele>447.2</ele>
        <time>2012-03-19T16:08:53Z</time>
      </trkpt>
      <trkpt lat="43.8375" lon="5.57786">
        <ele>446.6</ele>
        <time>2012-03-19T16:08:58Z</time>
      </trkpt>
      <trkpt lat="43.83753" lon="5.57781">
        <ele>445.9</ele>
        <time>2012-03-19T16:09:00Z</time>
      </trkpt>
      <trkpt lat="43.83762" lon="5.57743">
        <ele>439.7</ele>
        <time>2012-03-19T16:09:11Z</time>
      </trkpt>
      <trkpt lat="43.8377" lon="5.57709">
        <ele>435.8</ele>
        <time>2012-03-19T16:09:22Z</time>
      </trkpt>
      <trkpt lat="43.83777" lon="5.57692">
        <ele>434.3</ele>
        <time>2012-03-19T16:09:27Z</time>
      </trkpt>
      <trkpt lat="43.83781" lon="5.5768">
        <ele>435.2</ele>
        <time>2012-03-19T16:09:31Z</time>
      </trkpt>
      <trkpt lat="43.83788" lon="5.57676">
        <ele>435.2</ele>
        <time>2012-03-19T16:09:34Z</time>
      </trkpt>
      <trkpt lat="43.83811" lon="5.57669">
        <ele>435.2</ele>
        <time>2012-03-19T16:09:43Z</time>
      </trkpt>
      <trkpt lat="43.83826" lon="5.57667">
        <ele>434.4</ele>
        <time>2012-03-19T16:09:49Z</time>
      </trkpt>
      <trkpt lat="43.83847" lon="5.57665">
        <ele>433.5</ele>
        <time>2012-03-19T16:09:58Z</time>
      </trkpt>
      <trkpt lat="43.83855" lon="5.57667">
        <ele>432.3</ele>
        <time>2012-03-19T16:10:01Z</time>
      </trkpt>
      <trkpt lat="43.8388" lon="5.5768">
        <ele>427.4</ele>
        <time>2012-03-19T16:10:12Z</time>
      </trkpt>
      <trkpt lat="43.83892" lon="5.57686">
        <ele>424.8</ele>
        <time>2012-03-19T16:10:17Z</time>
      </trkpt>
      <trkpt lat="43.83922" lon="5.57699">
        <ele>419.4</ele>
        <time>2012-03-19T16:10:29Z</time>
      </trkpt>
      <trkpt lat="43.83943" lon="5.57699">
        <ele>416.2</ele>
        <time>2012-03-19T16:10:38Z</time>
      </trkpt>
      <trkpt lat="43.83961" lon="5.57698">
        <ele>413.7</ele>
        <time>2012-03-19T16:10:45Z</time>
      </trkpt>
      <trkpt lat="43.83976" lon="5.57699">
        <ele>411.2</ele>
        <time>2012-03-19T16:10:51Z</time>
      </trkpt>
      <trkpt lat="43.84001" lon="5.57688">
        <ele>408.1</ele>
        <time>2012-03-19T16:11:02Z</time>
      </trkpt>
      <trkpt lat="43.84022" lon="5.57674">
        <ele>406.2</ele>
        <time>2012-03-19T16:11:11Z</time>
      </trkpt>
      <trkpt lat="43.84036" lon="5.57661">
        <ele>404.4</ele>
        <time>2012-03-19T16:11:18Z</time>
      </trkpt>
      <trkpt lat="43.84059" lon="5.57642">
        <ele>401.1</ele>
        <time>2012-03-19T16:11:28Z</time>
      </trkpt>
      <trkpt lat="43.84074" lon="5.57627">
        <ele>398.2</ele>
        <time>2012-03-19T16:11:36Z</time>
      </trkpt>
      <trkpt lat="43.84117" lon="5.57583">
        <ele>392.2</ele>
        <time>2012-03-19T16:11:57Z</time>
      </trkpt>
      <trkpt lat="43.84177" lon="5.57489">
        <ele>384.5</ele>
        <time>2012-03-19T16:12:33Z</time>
      </trkpt>
      <trkpt lat="43.84231" lon="5.57453">
        <ele>379.6</ele>
        <time>2012-03-19T16:12:57Z</time>
      </trkpt>
      <trkpt lat="43.84312" lon="5.57424">
        <ele>373.6</ele>
        <time>2012-03-19T16:13:31Z</time>
      </trkpt>
      <trkpt lat="43.84347" lon="5.57397">
        <ele>373.7</ele>
        <time>2012-03-19T16:13:47Z</time>
      </trkpt>
      <trkpt lat="43.84365" lon="5.57329">
        <ele>373.9</ele>
        <time>2012-03-19T16:14:08Z</time>
      </trkpt>
      <trkpt lat="43.84375" lon="5.57308">
        <ele>373.5</ele>
        <time>2012-03-19T16:14:15Z</time>
      </trkpt>
      <trkpt lat="43.84436" lon="5.57364">
        <ele>369.5</ele>
        <time>2012-03-19T16:14:45Z</time>
      </trkpt>
      <trkpt lat="43.84511" lon="5.57425">
        <ele>363.4</ele>
        <time>2012-03-19T16:15:19Z</time>
      </trkpt>
      <trkpt lat="43.84546" lon="5.57452">
        <ele>360.7</ele>
        <time>2012-03-19T16:15:35Z</time>
      </trkpt>
      <trkpt lat="43.84583" lon="5.57496">
        <ele>358.9</ele>
        <time>2012-03-19T16:15:55Z</time>
      </trkpt>
      <trkpt lat="43.8461" lon="5.57509">
        <ele>361.6</ele>
        <time>2012-03-19T16:16:06Z</time>
      </trkpt>
      <trkpt lat="43.84612" lon="5.57511">
        <ele>361.8</ele>
        <time>2012-03-19T16:16:07Z</time>
      </trkpt>
      <trkpt lat="43.84625" lon="5.57521">
        <ele>363.9</ele>
        <time>2012-03-19T16:16:13Z</time>
      </trkpt>
      <trkpt lat="43.84642" lon="5.57506">
        <ele>363.9</ele>
        <time>2012-03-19T16:16:21Z</time>
      </trkpt>
      <trkpt lat="43.84645" lon="5.57502">
        <ele>363.7</ele>
        <time>2012-03-19T16:16:23Z</time>
      </trkpt>
      <trkpt lat="43.84655" lon="5.57501">
        <ele>364.3</ele>
        <time>2012-03-19T16:16:27Z</time>
      </trkpt>
      <trkpt lat="43.84649" lon="5.5752">
        <ele>365.9</ele>
        <time>2012-03-19T16:16:33Z</time>
      </trkpt>
      <trkpt lat="43.84641" lon="5.57547">
        <ele>366.3</ele>
        <time>2012-03-19T16:16:41Z</time>
      </trkpt>
      <trkpt lat="43.84649" lon="5.57558">
        <ele>367.4</ele>
        <time>2012-03-19T16:16:46Z</time>
      </trkpt>
      <trkpt lat="43.8466" lon="5.57569">
        <ele>368.7</ele>
        <time>2012-03-19T16:16:51Z</time>
      </trkpt>
      <trkpt lat="43.84703" lon="5.57607">
        <ele>373.3</ele>
        <time>2012-03-19T16:17:12Z</time>
      </trkpt>
      <trkpt lat="43.84734" lon="5.57626">
        <ele>376.9</ele>
        <time>2012-03-19T16:17:25Z</time>
      </trkpt>
      <trkpt lat="43.84757" lon="5.57633">
        <ele>379.6</ele>
        <time>2012-03-19T16:17:35Z</time>
      </trkpt>
      <trkpt lat="43.84791" lon="5.57651">
        <ele>383.7</ele>
        <time>2012-03-19T16:17:49Z</time>
      </trkpt>
      <trkpt lat="43.84838" lon="5.57674">
        <ele>389.8</ele>
        <time>2012-03-19T16:18:09Z</time>
      </trkpt>
      <trkpt lat="43.84903" lon="5.57708">
        <ele>397</ele>
        <time>2012-03-19T16:18:37Z</time>
      </trkpt>
      <trkpt lat="43.8495" lon="5.5773">
        <ele>404</ele>
        <time>2012-03-19T16:18:57Z</time>
      </trkpt>
      <trkpt lat="43.84978" lon="5.57772">
        <ele>412.6</ele>
        <time>2012-03-19T16:19:13Z</time>
      </trkpt>
      <trkpt lat="43.85035" lon="5.57793">
        <ele>427.1</ele>
        <time>2012-03-19T16:19:37Z</time>
      </trkpt>
      <trkpt lat="43.85056" lon="5.57775">
        <ele>429.9</ele>
        <time>2012-03-19T16:19:47Z</time>
      </trkpt>
      <trkpt lat="43.85071" lon="5.57779">
        <ele>434.5</ele>
        <time>2012-03-19T16:19:53Z</time>
      </trkpt>
      <trkpt lat="43.85088" lon="5.57803">
        <ele>441.4</ele>
        <time>2012-03-19T16:20:02Z</time>
      </trkpt>
      <trkpt lat="43.85103" lon="5.57837">
        <ele>448.6</ele>
        <time>2012-03-19T16:20:14Z</time>
      </trkpt>
      <trkpt lat="43.85119" lon="5.57875">
        <ele>456.9</ele>
        <time>2012-03-19T16:20:27Z</time>
      </trkpt>
      <trkpt lat="43.85159" lon="5.57935">
        <ele>466.1</ele>
        <time>2012-03-19T16:20:50Z</time>
      </trkpt>
      <trkpt lat="43.85187" lon="5.58007">
        <ele>460.9</ele>
        <time>2012-03-19T16:21:14Z</time>
      </trkpt>
      <trkpt lat="43.8522" lon="5.58115">
        <ele>457.8</ele>
        <time>2012-03-19T16:21:48Z</time>
      </trkpt>
      <trkpt lat="43.85245" lon="5.58146">
        <ele>455.8</ele>
        <time>2012-03-19T16:22:01Z</time>
      </trkpt>
      <trkpt lat="43.85255" lon="5.58147">
        <ele>455.1</ele>
        <time>2012-03-19T16:22:05Z</time>
      </trkpt>
      <trkpt lat="43.85303" lon="5.58192">
        <ele>449.4</ele>
        <time>2012-03-19T16:22:28Z</time>
      </trkpt>
      <trkpt lat="43.8536" lon="5.58256">
        <ele>440.9</ele>
        <time>2012-03-19T16:22:57Z</time>
      </trkpt>
      <trkpt lat="43.85382" lon="5.58314">
        <ele>436.6</ele>
        <time>2012-03-19T16:23:16Z</time>
      </trkpt>
      <trkpt lat="43.85462" lon="5.58435">
        <ele>422.6</ele>
        <time>2012-03-19T16:24:04Z</time>
      </trkpt>
      <trkpt lat="43.85472" lon="5.58455">
        <ele>420.2</ele>
        <time>2012-03-19T16:24:11Z</time>
      </trkpt>
      <trkpt lat="43.85543" lon="5.58495">
        <ele>413.9</ele>
        <time>2012-03-19T16:24:41Z</time>
      </trkpt>
      <trkpt lat="43.85596" lon="5.58529">
        <ele>409.1</ele>
        <time>2012-03-19T16:25:05Z</time>
      </trkpt>
      <trkpt lat="43.8561" lon="5.58549">
        <ele>408</ele>
        <time>2012-03-19T16:25:13Z</time>
      </trkpt>
      <trkpt lat="43.85624" lon="5.58618">
        <ele>404.2</ele>
        <time>2012-03-19T16:25:34Z</time>
      </trkpt>
      <trkpt lat="43.85628" lon="5.58653">
        <ele>402.4</ele>
        <time>2012-03-19T16:25:44Z</time>
      </trkpt>
      <trkpt lat="43.85615" lon="5.58678">
        <ele>401.6</ele>
        <time>2012-03-19T16:25:53Z</time>
      </trkpt>
      <trkpt lat="43.85612" lon="5.58735">
        <ele>398.5</ele>
        <time>2012-03-19T16:26:09Z</time>
      </trkpt>
      <trkpt lat="43.85616" lon="5.58781">
        <ele>397.6</ele>
        <time>2012-03-19T16:26:23Z</time>
      </trkpt>
      <trkpt lat="43.85614" lon="5.58822">
        <ele>397.1</ele>
        <time>2012-03-19T16:26:35Z</time>
      </trkpt>
      <trkpt lat="43.85612" lon="5.58879">
        <ele>395.3</ele>
        <time>2012-03-19T16:26:51Z</time>
      </trkpt>
      <trkpt lat="43.85604" lon="5.58941">
        <ele>390</ele>
        <time>2012-03-19T16:27:09Z</time>
      </trkpt>
      <trkpt lat="43.85596" lon="5.58992">
        <ele>387.1</ele>
        <time>2012-03-19T16:27:24Z</time>
      </trkpt>
      <trkpt lat="43.85586" lon="5.59024">
        <ele>386</ele>
        <time>2012-03-19T16:27:34Z</time>
      </trkpt>
      <trkpt lat="43.85583" lon="5.59051">
        <ele>385.2</ele>
        <time>2012-03-19T16:27:42Z</time>
      </trkpt>
      <trkpt lat="43.85598" lon="5.59054">
        <ele>383.4</ele>
        <time>2012-03-19T16:27:48Z</time>
      </trkpt>
      <trkpt lat="43.85623" lon="5.59052">
        <ele>382.3</ele>
        <time>2012-03-19T16:27:58Z</time>
      </trkpt>
      <trkpt lat="43.85659" lon="5.59053">
        <ele>383.3</ele>
        <time>2012-03-19T16:28:13Z</time>
      </trkpt>
      <trkpt lat="43.85685" lon="5.59072">
        <ele>382</ele>
        <time>2012-03-19T16:28:24Z</time>
      </trkpt>
      <trkpt lat="43.85701" lon="5.5909">
        <ele>378.2</ele>
        <time>2012-03-19T16:28:33Z</time>
      </trkpt>
      <trkpt lat="43.85724" lon="5.591">
        <ele>375.4</ele>
        <time>2012-03-19T16:28:42Z</time>
      </trkpt>
      <trkpt lat="43.85742" lon="5.59097">
        <ele>373.1</ele>
        <time>2012-03-19T16:28:49Z</time>
      </trkpt>
      <trkpt lat="43.85764" lon="5.5907">
        <ele>371.1</ele>
        <time>2012-03-19T16:29:01Z</time>
      </trkpt>
      <trkpt lat="43.85765" lon="5.59068">
        <ele>370.9</ele>
        <time>2012-03-19T16:29:02Z</time>
      </trkpt>
      <trkpt lat="43.85791" lon="5.59019">
        <ele>372.9</ele>
        <time>2012-03-19T16:29:19Z</time>
      </trkpt>
      <trkpt lat="43.85805" lon="5.58983">
        <ele>374.1</ele>
        <time>2012-03-19T16:29:31Z</time>
      </trkpt>
      <trkpt lat="43.85802" lon="5.58957">
        <ele>373.1</ele>
        <time>2012-03-19T16:29:39Z</time>
      </trkpt>
      <trkpt lat="43.8578" lon="5.58911">
        <ele>368.2</ele>
        <time>2012-03-19T16:29:55Z</time>
      </trkpt>
      <trkpt lat="43.85761" lon="5.58863">
        <ele>362.9</ele>
        <time>2012-03-19T16:30:11Z</time>
      </trkpt>
      <trkpt lat="43.85761" lon="5.58822">
        <ele>362.7</ele>
        <time>2012-03-19T16:30:22Z</time>
      </trkpt>
      <trkpt lat="43.85766" lon="5.58817">
        <ele>361.3</ele>
        <time>2012-03-19T16:30:25Z</time>
      </trkpt>
      <trkpt lat="43.85785" lon="5.58789">
        <ele>357.3</ele>
        <time>2012-03-19T16:30:36Z</time>
      </trkpt>
      <trkpt lat="43.85812" lon="5.58748">
        <ele>356.7</ele>
        <time>2012-03-19T16:30:52Z</time>
      </trkpt>
      <trkpt lat="43.85919" lon="5.58647">
        <ele>353.7</ele>
        <time>2012-03-19T16:31:44Z</time>
      </trkpt>
      <trkpt lat="43.85989" lon="5.58592">
        <ele>355.8</ele>
        <time>2012-03-19T16:32:16Z</time>
      </trkpt>
      <trkpt lat="43.85991" lon="5.58586">
        <ele>356.1</ele>
        <time>2012-03-19T16:32:18Z</time>
      </trkpt>
      <trkpt lat="43.86006" lon="5.58522">
        <ele>357.1</ele>
        <time>2012-03-19T16:32:37Z</time>
      </trkpt>
      <trkpt lat="43.86023" lon="5.58475">
        <ele>351.8</ele>
        <time>2012-03-19T16:32:53Z</time>
      </trkpt>
      <trkpt lat="43.86043" lon="5.58449">
        <ele>354.5</ele>
        <time>2012-03-19T16:33:04Z</time>
      </trkpt>
      <trkpt lat="43.86065" lon="5.58388">
        <ele>356.8</ele>
        <time>2012-03-19T16:33:23Z</time>
      </trkpt>
      <trkpt lat="43.86073" lon="5.58379">
        <ele>358.6</ele>
        <time>2012-03-19T16:33:27Z</time>
      </trkpt>
      <trkpt lat="43.86099" lon="5.58307">
        <ele>359.8</ele>
        <time>2012-03-19T16:33:50Z</time>
      </trkpt>
      <trkpt lat="43.86114" lon="5.58244">
        <ele>358.4</ele>
        <time>2012-03-19T16:34:10Z</time>
      </trkpt>
      <trkpt lat="43.86123" lon="5.58183">
        <ele>360.7</ele>
        <time>2012-03-19T16:34:28Z</time>
      </trkpt>
      <trkpt lat="43.86135" lon="5.58165">
        <ele>363.9</ele>
        <time>2012-03-19T16:34:35Z</time>
      </trkpt>
      <trkpt lat="43.86152" lon="5.5811">
        <ele>361.6</ele>
        <time>2012-03-19T16:34:52Z</time>
      </trkpt>
      <trkpt lat="43.86169" lon="5.58043">
        <ele>364</ele>
        <time>2012-03-19T16:35:12Z</time>
      </trkpt>
      <trkpt lat="43.86185" lon="5.57978">
        <ele>374.2</ele>
        <time>2012-03-19T16:35:32Z</time>
      </trkpt>
      <trkpt lat="43.86192" lon="5.57922">
        <ele>370.3</ele>
        <time>2012-03-19T16:35:49Z</time>
      </trkpt>
      <trkpt lat="43.86209" lon="5.57818">
        <ele>365.5</ele>
        <time>2012-03-19T16:36:19Z</time>
      </trkpt>
      <trkpt lat="43.86233" lon="5.57758">
        <ele>363.9</ele>
        <time>2012-03-19T16:36:39Z</time>
      </trkpt>
      <trkpt lat="43.86272" lon="5.57611">
        <ele>363.4</ele>
        <time>2012-03-19T16:37:24Z</time>
      </trkpt>
      <trkpt lat="43.86285" lon="5.57566">
        <ele>365</ele>
        <time>2012-03-19T16:37:38Z</time>
      </trkpt>
      <trkpt lat="43.86302" lon="5.57524">
        <ele>364.6</ele>
        <time>2012-03-19T16:37:52Z</time>
      </trkpt>
      <trkpt lat="43.86321" lon="5.57502">
        <ele>362.4</ele>
        <time>2012-03-19T16:38:02Z</time>
      </trkpt>
      <trkpt lat="43.86335" lon="5.57541">
        <ele>371.5</ele>
        <time>2012-03-19T16:38:14Z</time>
      </trkpt>
      <trkpt lat="43.86388" lon="5.57541">
        <ele>376.4</ele>
        <time>2012-03-19T16:38:36Z</time>
      </trkpt>
      <trkpt lat="43.86441" lon="5.57571">
        <ele>381.9</ele>
        <time>2012-03-19T16:38:59Z</time>
      </trkpt>
      <trkpt lat="43.86506" lon="5.57597">
        <ele>382.9</ele>
        <time>2012-03-19T16:39:26Z</time>
      </trkpt>
      <trkpt lat="43.86531" lon="5.57607">
        <ele>384.3</ele>
        <time>2012-03-19T16:39:36Z</time>
      </trkpt>
      <trkpt lat="43.86551" lon="5.57632">
        <ele>389.7</ele>
        <time>2012-03-19T16:39:47Z</time>
      </trkpt>
      <trkpt lat="43.86567" lon="5.57659">
        <ele>395.1</ele>
        <time>2012-03-19T16:39:57Z</time>
      </trkpt>
      <trkpt lat="43.86583" lon="5.57673">
        <ele>397.2</ele>
        <time>2012-03-19T16:40:05Z</time>
      </trkpt>
      <trkpt lat="43.86598" lon="5.57678">
        <ele>397.1</ele>
        <time>2012-03-19T16:40:11Z</time>
      </trkpt>
      <trkpt lat="43.86635" lon="5.5768">
        <ele>394.2</ele>
        <time>2012-03-19T16:40:26Z</time>
      </trkpt>
      <trkpt lat="43.86659" lon="5.57686">
        <ele>394.5</ele>
        <time>2012-03-19T16:40:35Z</time>
      </trkpt>
      <trkpt lat="43.86688" lon="5.57699">
        <ele>397.1</ele>
        <time>2012-03-19T16:40:47Z</time>
      </trkpt>
      <trkpt lat="43.86727" lon="5.57709">
        <ele>395</ele>
        <time>2012-03-19T16:41:03Z</time>
      </trkpt>
      <trkpt lat="43.86743" lon="5.5771">
        <ele>394.7</ele>
        <time>2012-03-19T16:41:10Z</time>
      </trkpt>
      <trkpt lat="43.86757" lon="5.5771">
        <ele>394.2</ele>
        <time>2012-03-19T16:41:15Z</time>
      </trkpt>
      <trkpt lat="43.86764" lon="5.57709">
        <ele>393.5</ele>
        <time>2012-03-19T16:41:18Z</time>
      </trkpt>
      <trkpt lat="43.86781" lon="5.5767">
        <ele>386.1</ele>
        <time>2012-03-19T16:41:31Z</time>
      </trkpt>
      <trkpt lat="43.86809" lon="5.57666">
        <ele>382.6</ele>
        <time>2012-03-19T16:41:43Z</time>
      </trkpt>
      <trkpt lat="43.86835" lon="5.57685">
        <ele>384.1</ele>
        <time>2012-03-19T16:41:54Z</time>
      </trkpt>
      <trkpt lat="43.86869" lon="5.57695">
        <ele>382.9</ele>
        <time>2012-03-19T16:42:08Z</time>
      </trkpt>
      <trkpt lat="43.8688" lon="5.57699">
        <ele>382.3</ele>
        <time>2012-03-19T16:42:13Z</time>
      </trkpt>
      <trkpt lat="43.86884" lon="5.57703">
        <ele>382.6</ele>
        <time>2012-03-19T16:42:15Z</time>
      </trkpt>
      <trkpt lat="43.8691" lon="5.57752">
        <ele>385.3</ele>
        <time>2012-03-19T16:42:32Z</time>
      </trkpt>
      <trkpt lat="43.86925" lon="5.57778">
        <ele>387.1</ele>
        <time>2012-03-19T16:42:42Z</time>
      </trkpt>
      <trkpt lat="43.86957" lon="5.57816">
        <ele>385.9</ele>
        <time>2012-03-19T16:42:59Z</time>
      </trkpt>
      <trkpt lat="43.86963" lon="5.57823">
        <ele>386.1</ele>
        <time>2012-03-19T16:43:02Z</time>
      </trkpt>
      <trkpt lat="43.87006" lon="5.57836">
        <ele>379.7</ele>
        <time>2012-03-19T16:43:20Z</time>
      </trkpt>
      <trkpt lat="43.8705" lon="5.57845">
        <ele>373.2</ele>
        <time>2012-03-19T16:43:38Z</time>
      </trkpt>
      <trkpt lat="43.87084" lon="5.57858">
        <ele>371.2</ele>
        <time>2012-03-19T16:43:52Z</time>
      </trkpt>
      <trkpt lat="43.87115" lon="5.57871">
        <ele>367.4</ele>
        <time>2012-03-19T16:44:04Z</time>
      </trkpt>
      <trkpt lat="43.87132" lon="5.5788">
        <ele>365</ele>
        <time>2012-03-19T16:44:12Z</time>
      </trkpt>
      <trkpt lat="43.87144" lon="5.579">
        <ele>365.5</ele>
        <time>2012-03-19T16:44:19Z</time>
      </trkpt>
      <trkpt lat="43.87163" lon="5.57911">
        <ele>363</ele>
        <time>2012-03-19T16:44:28Z</time>
      </trkpt>
      <trkpt lat="43.87172" lon="5.57923">
        <ele>362.4</ele>
        <time>2012-03-19T16:44:32Z</time>
      </trkpt>
      <trkpt lat="43.87177" lon="5.57937">
        <ele>362.3</ele>
        <time>2012-03-19T16:44:37Z</time>
      </trkpt>
      <trkpt lat="43.87186" lon="5.5795">
        <ele>361.6</ele>
        <time>2012-03-19T16:44:42Z</time>
      </trkpt>
      <trkpt lat="43.8719" lon="5.57959">
        <ele>362.1</ele>
        <time>2012-03-19T16:44:45Z</time>
      </trkpt>
      <trkpt lat="43.8721" lon="5.57976">
        <ele>365.3</ele>
        <time>2012-03-19T16:44:55Z</time>
      </trkpt>
      <trkpt lat="43.87244" lon="5.57979">
        <ele>364.8</ele>
        <time>2012-03-19T16:45:08Z</time>
      </trkpt>
      <trkpt lat="43.8726" lon="5.57984">
        <ele>363.3</ele>
        <time>2012-03-19T16:45:15Z</time>
      </trkpt>
      <trkpt lat="43.87274" lon="5.58005">
        <ele>364</ele>
        <time>2012-03-19T16:45:23Z</time>
      </trkpt>
      <trkpt lat="43.87293" lon="5.58036">
        <ele>364.3</ele>
        <time>2012-03-19T16:45:35Z</time>
      </trkpt>
      <trkpt lat="43.87299" lon="5.58043">
        <ele>363.3</ele>
        <time>2012-03-19T16:45:38Z</time>
      </trkpt>
      <trkpt lat="43.87328" lon="5.58069">
        <ele>361.2</ele>
        <time>2012-03-19T16:45:52Z</time>
      </trkpt>
      <trkpt lat="43.87357" lon="5.58079">
        <ele>357.3</ele>
        <time>2012-03-19T16:46:04Z</time>
      </trkpt>
      <trkpt lat="43.87368" lon="5.5808">
        <ele>355.9</ele>
        <time>2012-03-19T16:46:08Z</time>
      </trkpt>
      <trkpt lat="43.87391" lon="5.58088">
        <ele>355</ele>
        <time>2012-03-19T16:46:18Z</time>
      </trkpt>
      <trkpt lat="43.87402" lon="5.58091">
        <ele>354</ele>
        <time>2012-03-19T16:46:22Z</time>
      </trkpt>
      <trkpt lat="43.87412" lon="5.58096">
        <ele>353.5</ele>
        <time>2012-03-19T16:46:26Z</time>
      </trkpt>
      <trkpt lat="43.8743" lon="5.58105">
        <ele>352.6</ele>
        <time>2012-03-19T16:46:34Z</time>
      </trkpt>
      <trkpt lat="43.8746" lon="5.58113">
        <ele>349.5</ele>
        <time>2012-03-19T16:46:46Z</time>
      </trkpt>
      <trkpt lat="43.87486" lon="5.58115">
        <ele>349.4</ele>
        <time>2012-03-19T16:46:57Z</time>
      </trkpt>
      <trkpt lat="43.87526" lon="5.58111">
        <ele>350</ele>
        <time>2012-03-19T16:47:13Z</time>
      </trkpt>
      <trkpt lat="43.87551" lon="5.58088">
        <ele>349.9</ele>
        <time>2012-03-19T16:47:25Z</time>
      </trkpt>
      <trkpt lat="43.87591" lon="5.58067">
        <ele>351</ele>
        <time>2012-03-19T16:47:42Z</time>
      </trkpt>
      <trkpt lat="43.87593" lon="5.58067">
        <ele>351</ele>
        <time>2012-03-19T16:47:43Z</time>
      </trkpt>
      <trkpt lat="43.87629" lon="5.58044">
        <ele>351.6</ele>
        <time>2012-03-19T16:47:59Z</time>
      </trkpt>
      <trkpt lat="43.87683" lon="5.57981">
        <ele>356.2</ele>
        <time>2012-03-19T16:48:27Z</time>
      </trkpt>
      <trkpt lat="43.87629" lon="5.57917">
        <ele>357.3</ele>
        <time>2012-03-19T16:48:56Z</time>
      </trkpt>
      <trkpt lat="43.87598" lon="5.57873">
        <ele>358.4</ele>
        <time>2012-03-19T16:49:13Z</time>
      </trkpt>
      <trkpt lat="43.87539" lon="5.57806">
        <ele>360.6</ele>
        <time>2012-03-19T16:49:44Z</time>
      </trkpt>
      <trkpt lat="43.87531" lon="5.57774">
        <ele>361.3</ele>
        <time>2012-03-19T16:49:54Z</time>
      </trkpt>
      <trkpt lat="43.87546" lon="5.57764">
        <ele>363.2</ele>
        <time>2012-03-19T16:50:00Z</time>
      </trkpt>
      <trkpt lat="43.87569" lon="5.57748">
        <ele>366.5</ele>
        <time>2012-03-19T16:50:10Z</time>
      </trkpt>
      <trkpt lat="43.87575" lon="5.57699">
        <ele>367.7</ele>
        <time>2012-03-19T16:50:25Z</time>
      </trkpt>
      <trkpt lat="43.87576" lon="5.57653">
        <ele>370.5</ele>
        <time>2012-03-19T16:50:38Z</time>
      </trkpt>
      <trkpt lat="43.87575" lon="5.57584">
        <ele>373.1</ele>
        <time>2012-03-19T16:50:58Z</time>
      </trkpt>
      <trkpt lat="43.87563" lon="5.57541">
        <ele>374.6</ele>
        <time>2012-03-19T16:51:11Z</time>
      </trkpt>
      <trkpt lat="43.87539" lon="5.57461">
        <ele>378.6</ele>
        <time>2012-03-19T16:51:36Z</time>
      </trkpt>
      <trkpt lat="43.87522" lon="5.57366">
        <ele>384.7</ele>
        <time>2012-03-19T16:52:04Z</time>
      </trkpt>
      <trkpt lat="43.87518" lon="5.57274">
        <ele>388.5</ele>
        <time>2012-03-19T16:52:31Z</time>
      </trkpt>
      <trkpt lat="43.87511" lon="5.57189">
        <ele>392.7</ele>
        <time>2012-03-19T16:52:56Z</time>
      </trkpt>
      <trkpt lat="43.87506" lon="5.57095">
        <ele>396.6</ele>
        <time>2012-03-19T16:53:23Z</time>
      </trkpt>
      <trkpt lat="43.8751" lon="5.57005">
        <ele>402</ele>
        <time>2012-03-19T16:53:49Z</time>
      </trkpt>
      <trkpt lat="43.87521" lon="5.56982">
        <ele>404.7</ele>
        <time>2012-03-19T16:53:57Z</time>
      </trkpt>
      <trkpt lat="43.87505" lon="5.56943">
        <ele>407.4</ele>
        <time>2012-03-19T16:54:10Z</time>
      </trkpt>
      <trkpt lat="43.87477" lon="5.56893">
        <ele>410.9</ele>
        <time>2012-03-19T16:54:28Z</time>
      </trkpt>
      <trkpt lat="43.87483" lon="5.56887">
        <ele>411</ele>
        <time>2012-03-19T16:54:31Z</time>
      </trkpt>
      <trkpt lat="43.87497" lon="5.5688">
        <ele>411</ele>
        <time>2012-03-19T16:54:37Z</time>
      </trkpt>
      <trkpt lat="43.8752" lon="5.56873">
        <ele>412.8</ele>
        <time>2012-03-19T16:54:46Z</time>
      </trkpt>
      <trkpt lat="43.87542" lon="5.5685">
        <ele>415.1</ele>
        <time>2012-03-19T16:54:58Z</time>
      </trkpt>
      <trkpt lat="43.87546" lon="5.56824">
        <ele>416.9</ele>
        <time>2012-03-19T16:55:05Z</time>
      </trkpt>
      <trkpt lat="43.87532" lon="5.56775">
        <ele>416.1</ele>
        <time>2012-03-19T16:55:20Z</time>
      </trkpt>
      <trkpt lat="43.87526" lon="5.56716">
        <ele>415.6</ele>
        <time>2012-03-19T16:55:37Z</time>
      </trkpt>
      <trkpt lat="43.87525" lon="5.56676">
        <ele>415.7</ele>
        <time>2012-03-19T16:55:49Z</time>
      </trkpt>
      <trkpt lat="43.87534" lon="5.5663">
        <ele>414.8</ele>
        <time>2012-03-19T16:56:03Z</time>
      </trkpt>
      <trkpt lat="43.87543" lon="5.56552">
        <ele>414.1</ele>
        <time>2012-03-19T16:56:26Z</time>
      </trkpt>
      <trkpt lat="43.87557" lon="5.5649">
        <ele>415.2</ele>
        <time>2012-03-19T16:56:44Z</time>
      </trkpt>
      <trkpt lat="43.87574" lon="5.56452">
        <ele>416.8</ele>
        <time>2012-03-19T16:56:57Z</time>
      </trkpt>
      <trkpt lat="43.87594" lon="5.56436">
        <ele>418.7</ele>
        <time>2012-03-19T16:57:07Z</time>
      </trkpt>
      <trkpt lat="43.87602" lon="5.56447">
        <ele>420.1</ele>
        <time>2012-03-19T16:57:11Z</time>
      </trkpt>
      <trkpt lat="43.87613" lon="5.56479">
        <ele>422.2</ele>
        <time>2012-03-19T16:57:21Z</time>
      </trkpt>
      <trkpt lat="43.87617" lon="5.56491">
        <ele>422.5</ele>
        <time>2012-03-19T16:57:25Z</time>
      </trkpt>
      <trkpt lat="43.87636" lon="5.56513">
        <ele>424.3</ele>
        <time>2012-03-19T16:57:35Z</time>
      </trkpt>
      <trkpt lat="43.87652" lon="5.56516">
        <ele>426</ele>
        <time>2012-03-19T16:57:41Z</time>
      </trkpt>
      <trkpt lat="43.87716" lon="5.56503">
        <ele>432.9</ele>
        <time>2012-03-19T16:58:07Z</time>
      </trkpt>
      <trkpt lat="43.87753" lon="5.5649">
        <ele>440.2</ele>
        <time>2012-03-19T16:58:23Z</time>
      </trkpt>
      <trkpt lat="43.87753" lon="5.56445">
        <ele>444</ele>
        <time>2012-03-19T16:58:36Z</time>
      </trkpt>
      <trkpt lat="43.87753" lon="5.56421">
        <ele>447</ele>
        <time>2012-03-19T16:58:43Z</time>
      </trkpt>
      <trkpt lat="43.87755" lon="5.56406">
        <ele>447.8</ele>
        <time>2012-03-19T16:58:47Z</time>
      </trkpt>
      <trkpt lat="43.87775" lon="5.56402">
        <ele>451.1</ele>
        <time>2012-03-19T16:58:55Z</time>
      </trkpt>
      <trkpt lat="43.87779" lon="5.56401">
        <ele>451.8</ele>
        <time>2012-03-19T16:58:57Z</time>
      </trkpt>
      <trkpt lat="43.87814" lon="5.5638">
        <ele>456.8</ele>
        <time>2012-03-19T16:59:12Z</time>
      </trkpt>
      <trkpt lat="43.87821" lon="5.56391">
        <ele>460.8</ele>
        <time>2012-03-19T16:59:16Z</time>
      </trkpt>
      <trkpt lat="43.87819" lon="5.56401">
        <ele>462</ele>
        <time>2012-03-19T16:59:19Z</time>
      </trkpt>
      <trkpt lat="43.87814" lon="5.56409">
        <ele>462.3</ele>
        <time>2012-03-19T16:59:22Z</time>
      </trkpt>
      <trkpt lat="43.87811" lon="5.56431">
        <ele>464.2</ele>
        <time>2012-03-19T16:59:28Z</time>
      </trkpt>
      <trkpt lat="43.87815" lon="5.56432">
        <ele>465</ele>
        <time>2012-03-19T16:59:30Z</time>
      </trkpt>
      <trkpt lat="43.87826" lon="5.56435">
        <ele>467.2</ele>
        <time>2012-03-19T16:59:34Z</time>
      </trkpt>
      <trkpt lat="43.87834" lon="5.56431">
        <ele>468.6</ele>
        <time>2012-03-19T16:59:38Z</time>
      </trkpt>
      <trkpt lat="43.87841" lon="5.5643">
        <ele>469.8</ele>
        <time>2012-03-19T16:59:41Z</time>
      </trkpt>
      <trkpt lat="43.87871" lon="5.56405">
        <ele>473.5</ele>
        <time>2012-03-19T16:59:55Z</time>
      </trkpt>
      <trkpt lat="43.87904" lon="5.56388">
        <ele>477.2</ele>
        <time>2012-03-19T17:00:09Z</time>
      </trkpt>
      <trkpt lat="43.87945" lon="5.5639">
        <ele>483</ele>
        <time>2012-03-19T17:00:25Z</time>
      </trkpt>
      <trkpt lat="43.8797" lon="5.56388">
        <ele>486.7</ele>
        <time>2012-03-19T17:00:35Z</time>
      </trkpt>
      <trkpt lat="43.87995" lon="5.56363">
        <ele>491.3</ele>
        <time>2012-03-19T17:00:48Z</time>
      </trkpt>
      <trkpt lat="43.88048" lon="5.56363">
        <ele>498.3</ele>
        <time>2012-03-19T17:01:09Z</time>
      </trkpt>
      <trkpt lat="43.88083" lon="5.56367">
        <ele>503.3</ele>
        <time>2012-03-19T17:01:23Z</time>
      </trkpt>
      <trkpt lat="43.88091" lon="5.56354">
        <ele>504.2</ele>
        <time>2012-03-19T17:01:28Z</time>
      </trkpt>
      <trkpt lat="43.88099" lon="5.56331">
        <ele>505.5</ele>
        <time>2012-03-19T17:01:35Z</time>
      </trkpt>
      <trkpt lat="43.88131" lon="5.56305">
        <ele>511.1</ele>
        <time>2012-03-19T17:01:50Z</time>
      </trkpt>
      <trkpt lat="43.88152" lon="5.56277">
        <ele>515.4</ele>
        <time>2012-03-19T17:02:02Z</time>
      </trkpt>
      <trkpt lat="43.88179" lon="5.56253">
        <ele>519.8</ele>
        <time>2012-03-19T17:02:14Z</time>
      </trkpt>
      <trkpt lat="43.88212" lon="5.56228">
        <ele>523.8</ele>
        <time>2012-03-19T17:02:30Z</time>
      </trkpt>
      <trkpt lat="43.88215" lon="5.56229">
        <ele>524.2</ele>
        <time>2012-03-19T17:02:31Z</time>
      </trkpt>
      <trkpt lat="43.88268" lon="5.56232">
        <ele>529.3</ele>
        <time>2012-03-19T17:02:52Z</time>
      </trkpt>
      <trkpt lat="43.88306" lon="5.56241">
        <ele>532.8</ele>
        <time>2012-03-19T17:03:08Z</time>
      </trkpt>
      <trkpt lat="43.88338" lon="5.56235">
        <ele>536</ele>
        <time>2012-03-19T17:03:20Z</time>
      </trkpt>
      <trkpt lat="43.88358" lon="5.56239">
        <ele>538.6</ele>
        <time>2012-03-19T17:03:28Z</time>
      </trkpt>
      <trkpt lat="43.88394" lon="5.56242">
        <ele>539.2</ele>
        <time>2012-03-19T17:03:43Z</time>
      </trkpt>
      <trkpt lat="43.88457" lon="5.56225">
        <ele>543.4</ele>
        <time>2012-03-19T17:04:09Z</time>
      </trkpt>
      <trkpt lat="43.8853" lon="5.56226">
        <ele>549</ele>
        <time>2012-03-19T17:04:38Z</time>
      </trkpt>
      <trkpt lat="43.88567" lon="5.56232">
        <ele>550.1</ele>
        <time>2012-03-19T17:04:53Z</time>
      </trkpt>
      <trkpt lat="43.88585" lon="5.5623">
        <ele>548.6</ele>
        <time>2012-03-19T17:05:00Z</time>
      </trkpt>
      <trkpt lat="43.88705" lon="5.56176">
        <ele>547</ele>
        <time>2012-03-19T17:05:50Z</time>
      </trkpt>
      <trkpt lat="43.88755" lon="5.56148">
        <ele>551</ele>
        <time>2012-03-19T17:06:12Z</time>
      </trkpt>
      <trkpt lat="43.88802" lon="5.5612">
        <ele>554.4</ele>
        <time>2012-03-19T17:06:32Z</time>
      </trkpt>
      <trkpt lat="43.88809" lon="5.56123">
        <ele>555</ele>
        <time>2012-03-19T17:06:35Z</time>
      </trkpt>
      <trkpt lat="43.88827" lon="5.56156">
        <ele>555.5</ele>
        <time>2012-03-19T17:06:47Z</time>
      </trkpt>
      <trkpt lat="43.88851" lon="5.56211">
        <ele>555.7</ele>
        <time>2012-03-19T17:07:06Z</time>
      </trkpt>
      <trkpt lat="43.88877" lon="5.56264">
        <ele>557.5</ele>
        <time>2012-03-19T17:07:24Z</time>
      </trkpt>
      <trkpt lat="43.88896" lon="5.563">
        <ele>559</ele>
        <time>2012-03-19T17:07:37Z</time>
      </trkpt>
      <trkpt lat="43.88909" lon="5.56345">
        <ele>560.4</ele>
        <time>2012-03-19T17:07:51Z</time>
      </trkpt>
      <trkpt lat="43.88917" lon="5.56375">
        <ele>560.5</ele>
        <time>2012-03-19T17:08:00Z</time>
      </trkpt>
      <trkpt lat="43.88933" lon="5.56383">
        <ele>560.8</ele>
        <time>2012-03-19T17:08:07Z</time>
      </trkpt>
      <trkpt lat="43.88955" lon="5.56387">
        <ele>561.8</ele>
        <time>2012-03-19T17:08:16Z</time>
      </trkpt>
      <trkpt lat="43.88993" lon="5.56422">
        <ele>563.5</ele>
        <time>2012-03-19T17:08:34Z</time>
      </trkpt>
      <trkpt lat="43.89043" lon="5.56451">
        <ele>568.6</ele>
        <time>2012-03-19T17:08:56Z</time>
      </trkpt>
      <trkpt lat="43.89079" lon="5.56494">
        <ele>574.1</ele>
        <time>2012-03-19T17:09:15Z</time>
      </trkpt>
      <trkpt lat="43.89108" lon="5.56524">
        <ele>579.5</ele>
        <time>2012-03-19T17:09:29Z</time>
      </trkpt>
      <trkpt lat="43.89143" lon="5.56559">
        <ele>585.5</ele>
        <time>2012-03-19T17:09:47Z</time>
      </trkpt>
      <trkpt lat="43.89158" lon="5.56569">
        <ele>587.1</ele>
        <time>2012-03-19T17:09:53Z</time>
      </trkpt>
      <trkpt lat="43.89201" lon="5.56579">
        <ele>590.3</ele>
        <time>2012-03-19T17:10:11Z</time>
      </trkpt>
      <trkpt lat="43.8925" lon="5.56587">
        <ele>592</ele>
        <time>2012-03-19T17:10:30Z</time>
      </trkpt>
      <trkpt lat="43.89273" lon="5.56604">
        <ele>592.8</ele>
        <time>2012-03-19T17:10:41Z</time>
      </trkpt>
      <trkpt lat="43.89284" lon="5.5662">
        <ele>592.6</ele>
        <time>2012-03-19T17:10:47Z</time>
      </trkpt>
      <trkpt lat="43.89291" lon="5.5663">
        <ele>592</ele>
        <time>2012-03-19T17:10:51Z</time>
      </trkpt>
      <trkpt lat="43.89297" lon="5.56642">
        <ele>591.1</ele>
        <time>2012-03-19T17:10:56Z</time>
      </trkpt>
      <trkpt lat="43.89307" lon="5.56661">
        <ele>589.3</ele>
        <time>2012-03-19T17:11:02Z</time>
      </trkpt>
      <trkpt lat="43.89313" lon="5.56665">
        <ele>588.6</ele>
        <time>2012-03-19T17:11:05Z</time>
      </trkpt>
      <trkpt lat="43.89338" lon="5.56649">
        <ele>588.4</ele>
        <time>2012-03-19T17:11:16Z</time>
      </trkpt>
      <trkpt lat="43.89342" lon="5.56654">
        <ele>588.3</ele>
        <time>2012-03-19T17:11:18Z</time>
      </trkpt>
      <trkpt lat="43.89342" lon="5.56676">
        <ele>587</ele>
        <time>2012-03-19T17:11:25Z</time>
      </trkpt>
      <trkpt lat="43.89345" lon="5.56699">
        <ele>585.9</ele>
        <time>2012-03-19T17:11:31Z</time>
      </trkpt>
      <trkpt lat="43.89354" lon="5.56712">
        <ele>586.4</ele>
        <time>2012-03-19T17:11:36Z</time>
      </trkpt>
      <trkpt lat="43.89364" lon="5.56721">
        <ele>587.6</ele>
        <time>2012-03-19T17:11:41Z</time>
      </trkpt>
      <trkpt lat="43.89376" lon="5.5675">
        <ele>589.8</ele>
        <time>2012-03-19T17:11:51Z</time>
      </trkpt>
      <trkpt lat="43.8939" lon="5.56773">
        <ele>590.6</ele>
        <time>2012-03-19T17:12:00Z</time>
      </trkpt>
      <trkpt lat="43.89403" lon="5.56779">
        <ele>591.2</ele>
        <time>2012-03-19T17:12:05Z</time>
      </trkpt>
      <trkpt lat="43.89413" lon="5.56772">
        <ele>593.3</ele>
        <time>2012-03-19T17:12:10Z</time>
      </trkpt>
      <trkpt lat="43.89422" lon="5.56765">
        <ele>595.2</ele>
        <time>2012-03-19T17:12:14Z</time>
      </trkpt>
      <trkpt lat="43.89433" lon="5.56777">
        <ele>596</ele>
        <time>2012-03-19T17:12:19Z</time>
      </trkpt>
      <trkpt lat="43.89444" lon="5.56785">
        <ele>595.4</ele>
        <time>2012-03-19T17:12:24Z</time>
      </trkpt>
      <trkpt lat="43.89461" lon="5.56788">
        <ele>595.7</ele>
        <time>2012-03-19T17:12:31Z</time>
      </trkpt>
      <trkpt lat="43.89469" lon="5.56783">
        <ele>598.6</ele>
        <time>2012-03-19T17:12:35Z</time>
      </trkpt>
      <trkpt lat="43.8946" lon="5.56766">
        <ele>600.8</ele>
        <time>2012-03-19T17:12:41Z</time>
      </trkpt>
      <trkpt lat="43.89462" lon="5.5675">
        <ele>602.5</ele>
        <time>2012-03-19T17:12:45Z</time>
      </trkpt>
      <trkpt lat="43.89467" lon="5.56722">
        <ele>604.1</ele>
        <time>2012-03-19T17:12:54Z</time>
      </trkpt>
      <trkpt lat="43.89468" lon="5.5672">
        <ele>604.2</ele>
        <time>2012-03-19T17:12:55Z</time>
      </trkpt>
      <trkpt lat="43.89475" lon="5.56715">
        <ele>605.3</ele>
        <time>2012-03-19T17:12:58Z</time>
      </trkpt>
      <trkpt lat="43.89484" lon="5.56712">
        <ele>606.8</ele>
        <time>2012-03-19T17:13:01Z</time>
      </trkpt>
      <trkpt lat="43.89505" lon="5.56705">
        <ele>610.1</ele>
        <time>2012-03-19T17:13:10Z</time>
      </trkpt>
      <trkpt lat="43.89514" lon="5.56716">
        <ele>611.4</ele>
        <time>2012-03-19T17:13:15Z</time>
      </trkpt>
      <trkpt lat="43.8953" lon="5.56732">
        <ele>613</ele>
        <time>2012-03-19T17:13:23Z</time>
      </trkpt>
      <trkpt lat="43.89537" lon="5.56733">
        <ele>613.9</ele>
        <time>2012-03-19T17:13:25Z</time>
      </trkpt>
      <trkpt lat="43.89547" lon="5.56739">
        <ele>614.7</ele>
        <time>2012-03-19T17:13:30Z</time>
      </trkpt>
      <trkpt lat="43.89553" lon="5.56743">
        <ele>614.8</ele>
        <time>2012-03-19T17:13:32Z</time>
      </trkpt>
      <trkpt lat="43.89554" lon="5.56744">
        <ele>614.8</ele>
        <time>2012-03-19T17:13:33Z</time>
      </trkpt>
      <trkpt lat="43.8958" lon="5.56745">
        <ele>616</ele>
        <time>2012-03-19T17:13:43Z</time>
      </trkpt>
      <trkpt lat="43.8959" lon="5.56743">
        <ele>615.3</ele>
        <time>2012-03-19T17:13:47Z</time>
      </trkpt>
      <trkpt lat="43.89594" lon="5.56731">
        <ele>618</ele>
        <time>2012-03-19T17:13:51Z</time>
      </trkpt>
      <trkpt lat="43.89594" lon="5.56729">
        <ele>618.5</ele>
        <time>2012-03-19T17:13:52Z</time>
      </trkpt>
      <trkpt lat="43.89594" lon="5.56717">
        <ele>620.8</ele>
        <time>2012-03-19T17:13:55Z</time>
      </trkpt>
      <trkpt lat="43.89594" lon="5.56699">
        <ele>622</ele>
        <time>2012-03-19T17:14:00Z</time>
      </trkpt>
      <trkpt lat="43.89592" lon="5.5669">
        <ele>622.2</ele>
        <time>2012-03-19T17:14:03Z</time>
      </trkpt>
      <trkpt lat="43.89591" lon="5.56685">
        <ele>622</ele>
        <time>2012-03-19T17:14:05Z</time>
      </trkpt>
      <trkpt lat="43.89585" lon="5.56667">
        <ele>620.3</ele>
        <time>2012-03-19T17:14:10Z</time>
      </trkpt>
      <trkpt lat="43.89587" lon="5.56662">
        <ele>620.3</ele>
        <time>2012-03-19T17:14:12Z</time>
      </trkpt>
      <trkpt lat="43.89588" lon="5.56661">
        <ele>620.3</ele>
        <time>2012-03-19T17:14:12Z</time>
      </trkpt>
      <trkpt lat="43.89588" lon="5.56659">
        <ele>620.4</ele>
        <time>2012-03-19T17:14:13Z</time>
      </trkpt>
      <trkpt lat="43.89589" lon="5.56656">
        <ele>620.3</ele>
        <time>2012-03-19T17:14:14Z</time>
      </trkpt>
      <trkpt lat="43.89597" lon="5.56643">
        <ele>620.3</ele>
        <time>2012-03-19T17:14:19Z</time>
      </trkpt>
      <trkpt lat="43.89602" lon="5.56626">
        <ele>620</ele>
        <time>2012-03-19T17:14:24Z</time>
      </trkpt>
      <trkpt lat="43.89597" lon="5.56594">
        <ele>618.1</ele>
        <time>2012-03-19T17:14:33Z</time>
      </trkpt>
      <trkpt lat="43.89596" lon="5.56591">
        <ele>617.8</ele>
        <time>2012-03-19T17:14:34Z</time>
      </trkpt>
      <trkpt lat="43.89595" lon="5.56574">
        <ele>617.3</ele>
        <time>2012-03-19T17:14:39Z</time>
      </trkpt>
      <trkpt lat="43.89604" lon="5.56553">
        <ele>618.4</ele>
        <time>2012-03-19T17:14:46Z</time>
      </trkpt>
      <trkpt lat="43.89618" lon="5.56548">
        <ele>620.1</ele>
        <time>2012-03-19T17:14:52Z</time>
      </trkpt>
      <trkpt lat="43.89642" lon="5.56532">
        <ele>621.4</ele>
        <time>2012-03-19T17:15:03Z</time>
      </trkpt>
      <trkpt lat="43.89644" lon="5.56532">
        <ele>621.5</ele>
        <time>2012-03-19T17:15:03Z</time>
      </trkpt>
      <trkpt lat="43.89678" lon="5.56521">
        <ele>623.6</ele>
        <time>2012-03-19T17:15:17Z</time>
      </trkpt>
      <trkpt lat="43.89689" lon="5.5649">
        <ele>626.3</ele>
        <time>2012-03-19T17:15:27Z</time>
      </trkpt>
      <trkpt lat="43.89699" lon="5.56472">
        <ele>627.8</ele>
        <time>2012-03-19T17:15:34Z</time>
      </trkpt>
      <trkpt lat="43.89702" lon="5.56468">
        <ele>627.7</ele>
        <time>2012-03-19T17:15:35Z</time>
      </trkpt>
      <trkpt lat="43.89708" lon="5.56455">
        <ele>628.5</ele>
        <time>2012-03-19T17:15:40Z</time>
      </trkpt>
      <trkpt lat="43.89721" lon="5.56419">
        <ele>636.1</ele>
        <time>2012-03-19T17:15:51Z</time>
      </trkpt>
      <trkpt lat="43.89726" lon="5.56408">
        <ele>635.9</ele>
        <time>2012-03-19T17:15:55Z</time>
      </trkpt>
      <trkpt lat="43.89734" lon="5.56379">
        <ele>635.3</ele>
        <time>2012-03-19T17:16:04Z</time>
      </trkpt>
      <trkpt lat="43.89735" lon="5.56356">
        <ele>638.4</ele>
        <time>2012-03-19T17:16:11Z</time>
      </trkpt>
      <trkpt lat="43.89741" lon="5.56334">
        <ele>641.9</ele>
        <time>2012-03-19T17:16:18Z</time>
      </trkpt>
      <trkpt lat="43.89755" lon="5.56301">
        <ele>643.5</ele>
        <time>2012-03-19T17:16:29Z</time>
      </trkpt>
      <trkpt lat="43.89777" lon="5.56264">
        <ele>647</ele>
        <time>2012-03-19T17:16:42Z</time>
      </trkpt>
      <trkpt lat="43.89797" lon="5.56227">
        <ele>652.7</ele>
        <time>2012-03-19T17:16:56Z</time>
      </trkpt>
      <trkpt lat="43.89799" lon="5.56227">
        <ele>652.9</ele>
        <time>2012-03-19T17:16:56Z</time>
      </trkpt>
      <trkpt lat="43.89821" lon="5.56198">
        <ele>656.7</ele>
        <time>2012-03-19T17:17:09Z</time>
      </trkpt>
      <trkpt lat="43.89843" lon="5.56171">
        <ele>658.6</ele>
        <time>2012-03-19T17:17:20Z</time>
      </trkpt>
      <trkpt lat="43.89852" lon="5.56139">
        <ele>662.4</ele>
        <time>2012-03-19T17:17:30Z</time>
      </trkpt>
      <trkpt lat="43.89864" lon="5.56113">
        <ele>665.7</ele>
        <time>2012-03-19T17:17:39Z</time>
      </trkpt>
      <trkpt lat="43.89881" lon="5.56075">
        <ele>667.6</ele>
        <time>2012-03-19T17:17:52Z</time>
      </trkpt>
      <trkpt lat="43.89891" lon="5.56053">
        <ele>669.3</ele>
        <time>2012-03-19T17:18:00Z</time>
      </trkpt>
      <trkpt lat="43.89932" lon="5.55989">
        <ele>670.4</ele>
        <time>2012-03-19T17:18:24Z</time>
      </trkpt>
      <trkpt lat="43.89948" lon="5.55961">
        <ele>672.6</ele>
        <time>2012-03-19T17:18:34Z</time>
      </trkpt>
      <trkpt lat="43.89963" lon="5.55931">
        <ele>672.1</ele>
        <time>2012-03-19T17:18:45Z</time>
      </trkpt>
      <trkpt lat="43.89977" lon="5.55909">
        <ele>673.6</ele>
        <time>2012-03-19T17:18:54Z</time>
      </trkpt>
      <trkpt lat="43.89993" lon="5.55891">
        <ele>675.3</ele>
        <time>2012-03-19T17:19:02Z</time>
      </trkpt>
      <trkpt lat="43.89995" lon="5.5589">
        <ele>675.5</ele>
        <time>2012-03-19T17:19:03Z</time>
      </trkpt>
      <trkpt lat="43.90019" lon="5.55874">
        <ele>676</ele>
        <time>2012-03-19T17:19:13Z</time>
      </trkpt>
      <trkpt lat="43.90034" lon="5.55854">
        <ele>677.7</ele>
        <time>2012-03-19T17:19:22Z</time>
      </trkpt>
      <trkpt lat="43.90051" lon="5.55833">
        <ele>676</ele>
        <time>2012-03-19T17:19:31Z</time>
      </trkpt>
      <trkpt lat="43.90074" lon="5.55812">
        <ele>675.8</ele>
        <time>2012-03-19T17:19:42Z</time>
      </trkpt>
      <trkpt lat="43.9008" lon="5.55799">
        <ele>677.2</ele>
        <time>2012-03-19T17:19:46Z</time>
      </trkpt>
      <trkpt lat="43.90082" lon="5.55798">
        <ele>677.2</ele>
        <time>2012-03-19T17:19:47Z</time>
      </trkpt>
      <trkpt lat="43.9009" lon="5.55782">
        <ele>678.5</ele>
        <time>2012-03-19T17:19:53Z</time>
      </trkpt>
      <trkpt lat="43.90089" lon="5.55765">
        <ele>680</ele>
        <time>2012-03-19T17:19:58Z</time>
      </trkpt>
      <trkpt lat="43.90096" lon="5.55753">
        <ele>680.3</ele>
        <time>2012-03-19T17:20:02Z</time>
      </trkpt>
      <trkpt lat="43.90097" lon="5.55733">
        <ele>680.8</ele>
        <time>2012-03-19T17:20:08Z</time>
      </trkpt>
      <trkpt lat="43.90103" lon="5.55691">
        <ele>681.7</ele>
        <time>2012-03-19T17:20:20Z</time>
      </trkpt>
      <trkpt lat="43.90109" lon="5.55653">
        <ele>682.9</ele>
        <time>2012-03-19T17:20:31Z</time>
      </trkpt>
      <trkpt lat="43.90116" lon="5.55626">
        <ele>683</ele>
        <time>2012-03-19T17:20:39Z</time>
      </trkpt>
      <trkpt lat="43.90116" lon="5.55625">
        <ele>682.8</ele>
        <time>2012-03-19T17:20:40Z</time>
      </trkpt>
      <trkpt lat="43.90128" lon="5.55593">
        <ele>683</ele>
        <time>2012-03-19T17:20:50Z</time>
      </trkpt>
      <trkpt lat="43.90134" lon="5.55555">
        <ele>686.4</ele>
        <time>2012-03-19T17:21:01Z</time>
      </trkpt>
      <trkpt lat="43.90145" lon="5.55516">
        <ele>687.1</ele>
        <time>2012-03-19T17:21:14Z</time>
      </trkpt>
      <trkpt lat="43.90151" lon="5.555">
        <ele>687.5</ele>
        <time>2012-03-19T17:21:19Z</time>
      </trkpt>
      <trkpt lat="43.90155" lon="5.55473">
        <ele>689.7</ele>
        <time>2012-03-19T17:21:27Z</time>
      </trkpt>
      <trkpt lat="43.90161" lon="5.55457">
        <ele>690.9</ele>
        <time>2012-03-19T17:21:32Z</time>
      </trkpt>
      <trkpt lat="43.90162" lon="5.55456">
        <ele>691</ele>
        <time>2012-03-19T17:21:32Z</time>
      </trkpt>
      <trkpt lat="43.90172" lon="5.5544">
        <ele>690.8</ele>
        <time>2012-03-19T17:21:38Z</time>
      </trkpt>
      <trkpt lat="43.90181" lon="5.55413">
        <ele>690.7</ele>
        <time>2012-03-19T17:21:47Z</time>
      </trkpt>
      <trkpt lat="43.90185" lon="5.55398">
        <ele>691.8</ele>
        <time>2012-03-19T17:21:52Z</time>
      </trkpt>
      <trkpt lat="43.90191" lon="5.55366">
        <ele>694.4</ele>
        <time>2012-03-19T17:22:01Z</time>
      </trkpt>
      <trkpt lat="43.90192" lon="5.55365">
        <ele>694.5</ele>
        <time>2012-03-19T17:22:02Z</time>
      </trkpt>
      <trkpt lat="43.90202" lon="5.5535">
        <ele>694</ele>
        <time>2012-03-19T17:22:07Z</time>
      </trkpt>
      <trkpt lat="43.90215" lon="5.55337">
        <ele>692.7</ele>
        <time>2012-03-19T17:22:14Z</time>
      </trkpt>
      <trkpt lat="43.90219" lon="5.55327">
        <ele>693.1</ele>
        <time>2012-03-19T17:22:17Z</time>
      </trkpt>
      <trkpt lat="43.90233" lon="5.55282">
        <ele>694.6</ele>
        <time>2012-03-19T17:22:31Z</time>
      </trkpt>
      <trkpt lat="43.90236" lon="5.55279">
        <ele>694.5</ele>
        <time>2012-03-19T17:22:33Z</time>
      </trkpt>
      <trkpt lat="43.90245" lon="5.55241">
        <ele>696.7</ele>
        <time>2012-03-19T17:22:44Z</time>
      </trkpt>
      <trkpt lat="43.90247" lon="5.55238">
        <ele>696.9</ele>
        <time>2012-03-19T17:22:46Z</time>
      </trkpt>
      <trkpt lat="43.90262" lon="5.5521">
        <ele>695.1</ele>
        <time>2012-03-19T17:22:55Z</time>
      </trkpt>
      <trkpt lat="43.90278" lon="5.55193">
        <ele>693</ele>
        <time>2012-03-19T17:23:04Z</time>
      </trkpt>
      <trkpt lat="43.90285" lon="5.55168">
        <ele>693.7</ele>
        <time>2012-03-19T17:23:11Z</time>
      </trkpt>
      <trkpt lat="43.90284" lon="5.55164">
        <ele>693.9</ele>
        <time>2012-03-19T17:23:12Z</time>
      </trkpt>
      <trkpt lat="43.90299" lon="5.55137">
        <ele>695.8</ele>
        <time>2012-03-19T17:23:22Z</time>
      </trkpt>
      <trkpt lat="43.90318" lon="5.55082">
        <ele>696.5</ele>
        <time>2012-03-19T17:23:40Z</time>
      </trkpt>
      <trkpt lat="43.90328" lon="5.55041">
        <ele>697.7</ele>
        <time>2012-03-19T17:23:52Z</time>
      </trkpt>
      <trkpt lat="43.90336" lon="5.55013">
        <ele>698.4</ele>
        <time>2012-03-19T17:24:01Z</time>
      </trkpt>
      <trkpt lat="43.90354" lon="5.54995">
        <ele>696.5</ele>
        <time>2012-03-19T17:24:10Z</time>
      </trkpt>
      <trkpt lat="43.90368" lon="5.54974">
        <ele>695</ele>
        <time>2012-03-19T17:24:18Z</time>
      </trkpt>
      <trkpt lat="43.90369" lon="5.54974">
        <ele>694.5</ele>
        <time>2012-03-19T17:24:18Z</time>
      </trkpt>
      <trkpt lat="43.90371" lon="5.54959">
        <ele>695.3</ele>
        <time>2012-03-19T17:24:23Z</time>
      </trkpt>
      <trkpt lat="43.90378" lon="5.54948">
        <ele>693.7</ele>
        <time>2012-03-19T17:24:27Z</time>
      </trkpt>
      <trkpt lat="43.90392" lon="5.54938">
        <ele>690</ele>
        <time>2012-03-19T17:24:34Z</time>
      </trkpt>
      <trkpt lat="43.90394" lon="5.54938">
        <ele>689.8</ele>
        <time>2012-03-19T17:24:34Z</time>
      </trkpt>
      <trkpt lat="43.90406" lon="5.54935">
        <ele>687.5</ele>
        <time>2012-03-19T17:24:39Z</time>
      </trkpt>
      <trkpt lat="43.90426" lon="5.54923">
        <ele>683.9</ele>
        <time>2012-03-19T17:24:48Z</time>
      </trkpt>
      <trkpt lat="43.9044" lon="5.54904">
        <ele>683</ele>
        <time>2012-03-19T17:24:56Z</time>
      </trkpt>
      <trkpt lat="43.9045" lon="5.54898">
        <ele>681.9</ele>
        <time>2012-03-19T17:25:00Z</time>
      </trkpt>
      <trkpt lat="43.90462" lon="5.54903">
        <ele>678.9</ele>
        <time>2012-03-19T17:25:05Z</time>
      </trkpt>
      <trkpt lat="43.90489" lon="5.54884">
        <ele>674.1</ele>
        <time>2012-03-19T17:25:17Z</time>
      </trkpt>
      <trkpt lat="43.90505" lon="5.5487">
        <ele>672.2</ele>
        <time>2012-03-19T17:25:25Z</time>
      </trkpt>
      <trkpt lat="43.90524" lon="5.54853">
        <ele>670.6</ele>
        <time>2012-03-19T17:25:34Z</time>
      </trkpt>
      <trkpt lat="43.90539" lon="5.54845">
        <ele>668.9</ele>
        <time>2012-03-19T17:25:40Z</time>
      </trkpt>
      <trkpt lat="43.90574" lon="5.54824">
        <ele>664.6</ele>
        <time>2012-03-19T17:25:55Z</time>
      </trkpt>
      <trkpt lat="43.90602" lon="5.54779">
        <ele>663.2</ele>
        <time>2012-03-19T17:26:13Z</time>
      </trkpt>
      <trkpt lat="43.90698" lon="5.54638">
        <ele>659.6</ele>
        <time>2012-03-19T17:27:09Z</time>
      </trkpt>
      <trkpt lat="43.90771" lon="5.54535">
        <ele>653.4</ele>
        <time>2012-03-19T17:27:50Z</time>
      </trkpt>
      <trkpt lat="43.9079" lon="5.54489">
        <ele>647.9</ele>
        <time>2012-03-19T17:28:06Z</time>
      </trkpt>
      <trkpt lat="43.90825" lon="5.54422">
        <ele>643.2</ele>
        <time>2012-03-19T17:28:29Z</time>
      </trkpt>
      <trkpt lat="43.90846" lon="5.54412">
        <ele>642.2</ele>
        <time>2012-03-19T17:28:38Z</time>
      </trkpt>
      <trkpt lat="43.9089" lon="5.54405">
        <ele>643</ele>
        <time>2012-03-19T17:28:56Z</time>
      </trkpt>
      <trkpt lat="43.90913" lon="5.54444">
        <ele>643.4</ele>
        <time>2012-03-19T17:29:11Z</time>
      </trkpt>
      <trkpt lat="43.90931" lon="5.54508">
        <ele>643.1</ele>
        <time>2012-03-19T17:29:30Z</time>
      </trkpt>
      <trkpt lat="43.90941" lon="5.54587">
        <ele>639.9</ele>
        <time>2012-03-19T17:29:53Z</time>
      </trkpt>
      <trkpt lat="43.90946" lon="5.54604">
        <ele>640.6</ele>
        <time>2012-03-19T17:29:59Z</time>
      </trkpt>
      <trkpt lat="43.90975" lon="5.54636">
        <ele>643.4</ele>
        <time>2012-03-19T17:30:14Z</time>
      </trkpt>
      <trkpt lat="43.91016" lon="5.54628">
        <ele>647.2</ele>
        <time>2012-03-19T17:30:30Z</time>
      </trkpt>
      <trkpt lat="43.91078" lon="5.54627">
        <ele>657.9</ele>
        <time>2012-03-19T17:30:55Z</time>
      </trkpt>
      <trkpt lat="43.91112" lon="5.54688">
        <ele>660.4</ele>
        <time>2012-03-19T17:31:17Z</time>
      </trkpt>
      <trkpt lat="43.91175" lon="5.54765">
        <ele>663.7</ele>
        <time>2012-03-19T17:31:51Z</time>
      </trkpt>
      <trkpt lat="43.91257" lon="5.54808">
        <ele>668.7</ele>
        <time>2012-03-19T17:32:26Z</time>
      </trkpt>
      <trkpt lat="43.91336" lon="5.54778">
        <ele>668.6</ele>
        <time>2012-03-19T17:32:59Z</time>
      </trkpt>
      <trkpt lat="43.91401" lon="5.54775">
        <ele>664.1</ele>
        <time>2012-03-19T17:33:25Z</time>
      </trkpt>
      <trkpt lat="43.91482" lon="5.54798">
        <ele>656.9</ele>
        <time>2012-03-19T17:33:58Z</time>
      </trkpt>
      <trkpt lat="43.91528" lon="5.548">
        <ele>651.8</ele>
        <time>2012-03-19T17:34:16Z</time>
      </trkpt>
      <trkpt lat="43.91552" lon="5.54794">
        <ele>650.3</ele>
        <time>2012-03-19T17:34:26Z</time>
      </trkpt>
      <trkpt lat="43.9154" lon="5.54749">
        <ele>648.6</ele>
        <time>2012-03-19T17:34:40Z</time>
      </trkpt>
      <trkpt lat="43.91532" lon="5.54705">
        <ele>647</ele>
        <time>2012-03-19T17:34:53Z</time>
      </trkpt>
      <trkpt lat="43.91541" lon="5.54668">
        <ele>645.1</ele>
        <time>2012-03-19T17:35:04Z</time>
      </trkpt>
      <trkpt lat="43.91544" lon="5.54639">
        <ele>642.7</ele>
        <time>2012-03-19T17:35:13Z</time>
      </trkpt>
      <trkpt lat="43.91537" lon="5.54597">
        <ele>641.2</ele>
        <time>2012-03-19T17:35:25Z</time>
      </trkpt>
      <trkpt lat="43.91513" lon="5.54555">
        <ele>642.6</ele>
        <time>2012-03-19T17:35:41Z</time>
      </trkpt>
      <trkpt lat="43.91497" lon="5.54531">
        <ele>643.8</ele>
        <time>2012-03-19T17:35:50Z</time>
      </trkpt>
      <trkpt lat="43.91487" lon="5.54478">
        <ele>643.5</ele>
        <time>2012-03-19T17:36:06Z</time>
      </trkpt>
      <trkpt lat="43.91477" lon="5.54435">
        <ele>645.6</ele>
        <time>2012-03-19T17:36:19Z</time>
      </trkpt>
      <trkpt lat="43.91468" lon="5.54385">
        <ele>647.6</ele>
        <time>2012-03-19T17:36:34Z</time>
      </trkpt>
      <trkpt lat="43.91441" lon="5.54332">
        <ele>645.8</ele>
        <time>2012-03-19T17:36:52Z</time>
      </trkpt>
      <trkpt lat="43.91414" lon="5.54273">
        <ele>648.1</ele>
        <time>2012-03-19T17:37:13Z</time>
      </trkpt>
      <trkpt lat="43.91391" lon="5.54228">
        <ele>644</ele>
        <time>2012-03-19T17:37:28Z</time>
      </trkpt>
      <trkpt lat="43.9137" lon="5.54189">
        <ele>640.7</ele>
        <time>2012-03-19T17:37:42Z</time>
      </trkpt>
      <trkpt lat="43.9136" lon="5.54148">
        <ele>636.3</ele>
        <time>2012-03-19T17:37:55Z</time>
      </trkpt>
      <trkpt lat="43.91347" lon="5.54096">
        <ele>631.8</ele>
        <time>2012-03-19T17:38:11Z</time>
      </trkpt>
      <trkpt lat="43.91337" lon="5.54073">
        <ele>631.3</ele>
        <time>2012-03-19T17:38:19Z</time>
      </trkpt>
      <trkpt lat="43.91293" lon="5.54004">
        <ele>624.1</ele>
        <time>2012-03-19T17:38:45Z</time>
      </trkpt>
      <trkpt lat="43.91274" lon="5.53986">
        <ele>620.4</ele>
        <time>2012-03-19T17:38:54Z</time>
      </trkpt>
      <trkpt lat="43.91256" lon="5.53963">
        <ele>616.1</ele>
        <time>2012-03-19T17:39:04Z</time>
      </trkpt>
      <trkpt lat="43.91229" lon="5.53914">
        <ele>608.8</ele>
        <time>2012-03-19T17:39:22Z</time>
      </trkpt>
      <trkpt lat="43.91206" lon="5.53878">
        <ele>606</ele>
        <time>2012-03-19T17:39:36Z</time>
      </trkpt>
      <trkpt lat="43.91189" lon="5.53821">
        <ele>603.1</ele>
        <time>2012-03-19T17:39:53Z</time>
      </trkpt>
      <trkpt lat="43.91187" lon="5.53786">
        <ele>603.3</ele>
        <time>2012-03-19T17:40:03Z</time>
      </trkpt>
      <trkpt lat="43.9116" lon="5.53737">
        <ele>606.4</ele>
        <time>2012-03-19T17:40:21Z</time>
      </trkpt>
      <trkpt lat="43.91138" lon="5.53716">
        <ele>606.8</ele>
        <time>2012-03-19T17:40:32Z</time>
      </trkpt>
      <trkpt lat="43.91112" lon="5.5359">
        <ele>598.3</ele>
        <time>2012-03-19T17:41:10Z</time>
      </trkpt>
      <trkpt lat="43.91143" lon="5.53534">
        <ele>594.4</ele>
        <time>2012-03-19T17:41:30Z</time>
      </trkpt>
      <trkpt lat="43.9114" lon="5.53479">
        <ele>590.5</ele>
        <time>2012-03-19T17:41:46Z</time>
      </trkpt>
      <trkpt lat="43.9113" lon="5.53425">
        <ele>585.6</ele>
        <time>2012-03-19T17:42:02Z</time>
      </trkpt>
      <trkpt lat="43.91128" lon="5.53396">
        <ele>585.1</ele>
        <time>2012-03-19T17:42:10Z</time>
      </trkpt>
      <trkpt lat="43.91087" lon="5.53169">
        <ele>583.6</ele>
        <time>2012-03-19T17:43:18Z</time>
      </trkpt>
      <trkpt lat="43.91043" lon="5.53046">
        <ele>580.6</ele>
        <time>2012-03-19T17:43:58Z</time>
      </trkpt>
      <trkpt lat="43.91032" lon="5.52942">
        <ele>574</ele>
        <time>2012-03-19T17:44:28Z</time>
      </trkpt>
      <trkpt lat="43.91025" lon="5.52861">
        <ele>569.5</ele>
        <time>2012-03-19T17:44:51Z</time>
      </trkpt>
      <trkpt lat="43.90954" lon="5.52691">
        <ele>564.9</ele>
        <time>2012-03-19T17:45:48Z</time>
      </trkpt>
      <trkpt lat="43.90921" lon="5.52553">
        <ele>559.4</ele>
        <time>2012-03-19T17:46:30Z</time>
      </trkpt>
      <trkpt lat="43.90913" lon="5.52463">
        <ele>563.6</ele>
        <time>2012-03-19T17:46:56Z</time>
      </trkpt>
      <trkpt lat="43.90911" lon="5.52427">
        <ele>564</ele>
        <time>2012-03-19T17:47:06Z</time>
      </trkpt>
      <trkpt lat="43.90924" lon="5.52404">
        <ele>562.8</ele>
        <time>2012-03-19T17:47:15Z</time>
      </trkpt>
      <trkpt lat="43.90945" lon="5.52343">
        <ele>554.5</ele>
        <time>2012-03-19T17:47:34Z</time>
      </trkpt>
      <trkpt lat="43.90958" lon="5.52305">
        <ele>549</ele>
        <time>2012-03-19T17:47:46Z</time>
      </trkpt>
      <trkpt lat="43.9097" lon="5.5225">
        <ele>542.9</ele>
        <time>2012-03-19T17:48:03Z</time>
      </trkpt>
      <trkpt lat="43.90989" lon="5.52218">
        <ele>536</ele>
        <time>2012-03-19T17:48:15Z</time>
      </trkpt>
      <trkpt lat="43.91027" lon="5.52173">
        <ele>523.9</ele>
        <time>2012-03-19T17:48:35Z</time>
      </trkpt>
      <trkpt lat="43.9106" lon="5.52156">
        <ele>513.8</ele>
        <time>2012-03-19T17:48:49Z</time>
      </trkpt>
      <trkpt lat="43.91076" lon="5.52142">
        <ele>510.2</ele>
        <time>2012-03-19T17:48:57Z</time>
      </trkpt>
      <trkpt lat="43.91078" lon="5.521">
        <ele>507.1</ele>
        <time>2012-03-19T17:49:09Z</time>
      </trkpt>
      <trkpt lat="43.91076" lon="5.52073">
        <ele>504.6</ele>
        <time>2012-03-19T17:49:16Z</time>
      </trkpt>
      <trkpt lat="43.91079" lon="5.52055">
        <ele>503.3</ele>
        <time>2012-03-19T17:49:22Z</time>
      </trkpt>
      <trkpt lat="43.91091" lon="5.5207">
        <ele>500.9</ele>
        <time>2012-03-19T17:49:28Z</time>
      </trkpt>
      <trkpt lat="43.91102" lon="5.52083">
        <ele>498.4</ele>
        <time>2012-03-19T17:49:34Z</time>
      </trkpt>
      <trkpt lat="43.91123" lon="5.52069">
        <ele>493.7</ele>
        <time>2012-03-19T17:49:43Z</time>
      </trkpt>
      <trkpt lat="43.91129" lon="5.52052">
        <ele>493.9</ele>
        <time>2012-03-19T17:49:48Z</time>
      </trkpt>
      <trkpt lat="43.91124" lon="5.52016">
        <ele>494</ele>
        <time>2012-03-19T17:49:59Z</time>
      </trkpt>
      <trkpt lat="43.91118" lon="5.51972">
        <ele>496.4</ele>
        <time>2012-03-19T17:50:12Z</time>
      </trkpt>
      <trkpt lat="43.91105" lon="5.51941">
        <ele>496.5</ele>
        <time>2012-03-19T17:50:22Z</time>
      </trkpt>
      <trkpt lat="43.91105" lon="5.51893">
        <ele>495.3</ele>
        <time>2012-03-19T17:50:36Z</time>
      </trkpt>
      <trkpt lat="43.91101" lon="5.51867">
        <ele>496.9</ele>
        <time>2012-03-19T17:50:44Z</time>
      </trkpt>
      <trkpt lat="43.91101" lon="5.51828">
        <ele>495.4</ele>
        <time>2012-03-19T17:50:55Z</time>
      </trkpt>
      <trkpt lat="43.91098" lon="5.51797">
        <ele>492.8</ele>
        <time>2012-03-19T17:51:04Z</time>
      </trkpt>
      <trkpt lat="43.91088" lon="5.51765">
        <ele>493</ele>
        <time>2012-03-19T17:51:14Z</time>
      </trkpt>
      <trkpt lat="43.91073" lon="5.51713">
        <ele>494.5</ele>
        <time>2012-03-19T17:51:30Z</time>
      </trkpt>
      <trkpt lat="43.91064" lon="5.51681">
        <ele>494.1</ele>
        <time>2012-03-19T17:51:40Z</time>
      </trkpt>
      <trkpt lat="43.91062" lon="5.51664">
        <ele>493.9</ele>
        <time>2012-03-19T17:51:45Z</time>
      </trkpt>
      <trkpt lat="43.91065" lon="5.51641">
        <ele>493.9</ele>
        <time>2012-03-19T17:51:52Z</time>
      </trkpt>
      <trkpt lat="43.91065" lon="5.51639">
        <ele>493.9</ele>
        <time>2012-03-19T17:51:52Z</time>
      </trkpt>
      <trkpt lat="43.91062" lon="5.51617">
        <ele>493.2</ele>
        <time>2012-03-19T17:51:59Z</time>
      </trkpt>
      <trkpt lat="43.9105" lon="5.51598">
        <ele>493.3</ele>
        <time>2012-03-19T17:52:06Z</time>
      </trkpt>
      <trkpt lat="43.91044" lon="5.5157">
        <ele>490.8</ele>
        <time>2012-03-19T17:52:14Z</time>
      </trkpt>
      <trkpt lat="43.91029" lon="5.5155">
        <ele>489.2</ele>
        <time>2012-03-19T17:52:23Z</time>
      </trkpt>
      <trkpt lat="43.91027" lon="5.51527">
        <ele>487.2</ele>
        <time>2012-03-19T17:52:29Z</time>
      </trkpt>
      <trkpt lat="43.91021" lon="5.515">
        <ele>486.4</ele>
        <time>2012-03-19T17:52:38Z</time>
      </trkpt>
      <trkpt lat="43.91018" lon="5.51478">
        <ele>484.3</ele>
        <time>2012-03-19T17:52:44Z</time>
      </trkpt>
      <trkpt lat="43.91022" lon="5.51454">
        <ele>481.3</ele>
        <time>2012-03-19T17:52:51Z</time>
      </trkpt>
      <trkpt lat="43.91019" lon="5.51427">
        <ele>476.9</ele>
        <time>2012-03-19T17:52:59Z</time>
      </trkpt>
      <trkpt lat="43.91002" lon="5.51402">
        <ele>473</ele>
        <time>2012-03-19T17:53:09Z</time>
      </trkpt>
      <trkpt lat="43.90983" lon="5.51389">
        <ele>471.3</ele>
        <time>2012-03-19T17:53:17Z</time>
      </trkpt>
      <trkpt lat="43.90965" lon="5.51384">
        <ele>470.1</ele>
        <time>2012-03-19T17:53:25Z</time>
      </trkpt>
      <trkpt lat="43.90946" lon="5.5138">
        <ele>470.8</ele>
        <time>2012-03-19T17:53:33Z</time>
      </trkpt>
      <trkpt lat="43.90933" lon="5.51369">
        <ele>471.7</ele>
        <time>2012-03-19T17:53:39Z</time>
      </trkpt>
      <trkpt lat="43.90943" lon="5.51359">
        <ele>469.4</ele>
        <time>2012-03-19T17:53:44Z</time>
      </trkpt>
      <trkpt lat="43.90952" lon="5.51344">
        <ele>464.5</ele>
        <time>2012-03-19T17:53:49Z</time>
      </trkpt>
      <trkpt lat="43.90952" lon="5.51321">
        <ele>464</ele>
        <time>2012-03-19T17:53:56Z</time>
      </trkpt>
      <trkpt lat="43.90943" lon="5.51303">
        <ele>467.9</ele>
        <time>2012-03-19T17:54:02Z</time>
      </trkpt>
      <trkpt lat="43.90931" lon="5.51293">
        <ele>467.4</ele>
        <time>2012-03-19T17:54:08Z</time>
      </trkpt>
      <trkpt lat="43.909" lon="5.51297">
        <ele>468.2</ele>
        <time>2012-03-19T17:54:20Z</time>
      </trkpt>
      <trkpt lat="43.90871" lon="5.51303">
        <ele>467.3</ele>
        <time>2012-03-19T17:54:32Z</time>
      </trkpt>
      <trkpt lat="43.90851" lon="5.51306">
        <ele>467.5</ele>
        <time>2012-03-19T17:54:40Z</time>
      </trkpt>
      <trkpt lat="43.90829" lon="5.51297">
        <ele>466.8</ele>
        <time>2012-03-19T17:54:49Z</time>
      </trkpt>
      <trkpt lat="43.90806" lon="5.51282">
        <ele>465.7</ele>
        <time>2012-03-19T17:54:59Z</time>
      </trkpt>
      <trkpt lat="43.90782" lon="5.51267">
        <ele>466.5</ele>
        <time>2012-03-19T17:55:10Z</time>
      </trkpt>
      <trkpt lat="43.90752" lon="5.51256">
        <ele>468.1</ele>
        <time>2012-03-19T17:55:23Z</time>
      </trkpt>
      <trkpt lat="43.90738" lon="5.5125">
        <ele>468.3</ele>
        <time>2012-03-19T17:55:28Z</time>
      </trkpt>
      <trkpt lat="43.90726" lon="5.51258">
        <ele>471.3</ele>
        <time>2012-03-19T17:55:34Z</time>
      </trkpt>
      <trkpt lat="43.90716" lon="5.51249">
        <ele>472.3</ele>
        <time>2012-03-19T17:55:38Z</time>
      </trkpt>
      <trkpt lat="43.90707" lon="5.51224">
        <ele>472.5</ele>
        <time>2012-03-19T17:55:46Z</time>
      </trkpt>
      <trkpt lat="43.90699" lon="5.51216">
        <ele>474.5</ele>
        <time>2012-03-19T17:55:50Z</time>
      </trkpt>
      <trkpt lat="43.90685" lon="5.51207">
        <ele>478.7</ele>
        <time>2012-03-19T17:55:57Z</time>
      </trkpt>
      <trkpt lat="43.90665" lon="5.51185">
        <ele>482.6</ele>
        <time>2012-03-19T17:56:07Z</time>
      </trkpt>
      <trkpt lat="43.90637" lon="5.51165">
        <ele>490.3</ele>
        <time>2012-03-19T17:56:19Z</time>
      </trkpt>
      <trkpt lat="43.90606" lon="5.51131">
        <ele>496</ele>
        <time>2012-03-19T17:56:35Z</time>
      </trkpt>
      <trkpt lat="43.90582" lon="5.51107">
        <ele>500.5</ele>
        <time>2012-03-19T17:56:47Z</time>
      </trkpt>
      <trkpt lat="43.90557" lon="5.51082">
        <ele>504.2</ele>
        <time>2012-03-19T17:57:00Z</time>
      </trkpt>
      <trkpt lat="43.9054" lon="5.51077">
        <ele>505.6</ele>
        <time>2012-03-19T17:57:06Z</time>
      </trkpt>
      <trkpt lat="43.90526" lon="5.51085">
        <ele>509.4</ele>
        <time>2012-03-19T17:57:12Z</time>
      </trkpt>
      <trkpt lat="43.9051" lon="5.51102">
        <ele>514.7</ele>
        <time>2012-03-19T17:57:20Z</time>
      </trkpt>
      <trkpt lat="43.90512" lon="5.5112">
        <ele>518</ele>
        <time>2012-03-19T17:57:26Z</time>
      </trkpt>
      <trkpt lat="43.90517" lon="5.51146">
        <ele>521.2</ele>
        <time>2012-03-19T17:57:33Z</time>
      </trkpt>
      <trkpt lat="43.90507" lon="5.51146">
        <ele>521.8</ele>
        <time>2012-03-19T17:57:37Z</time>
      </trkpt>
      <trkpt lat="43.9049" lon="5.51109">
        <ele>518.7</ele>
        <time>2012-03-19T17:57:50Z</time>
      </trkpt>
      <trkpt lat="43.90479" lon="5.51069">
        <ele>517.2</ele>
        <time>2012-03-19T17:58:02Z</time>
      </trkpt>
      <trkpt lat="43.90465" lon="5.50998">
        <ele>516.9</ele>
        <time>2012-03-19T17:58:23Z</time>
      </trkpt>
      <trkpt lat="43.90445" lon="5.50946">
        <ele>517.1</ele>
        <time>2012-03-19T17:58:41Z</time>
      </trkpt>
      <trkpt lat="43.90436" lon="5.50916">
        <ele>517.9</ele>
        <time>2012-03-19T17:58:50Z</time>
      </trkpt>
      <trkpt lat="43.9043" lon="5.50872">
        <ele>522.6</ele>
        <time>2012-03-19T17:59:03Z</time>
      </trkpt>
      <trkpt lat="43.90418" lon="5.50837">
        <ele>526.6</ele>
        <time>2012-03-19T17:59:14Z</time>
      </trkpt>
      <trkpt lat="43.90407" lon="5.50837">
        <ele>529.5</ele>
        <time>2012-03-19T17:59:18Z</time>
      </trkpt>
      <trkpt lat="43.90385" lon="5.50863">
        <ele>533.3</ele>
        <time>2012-03-19T17:59:30Z</time>
      </trkpt>
      <trkpt lat="43.90367" lon="5.509">
        <ele>537.6</ele>
        <time>2012-03-19T17:59:43Z</time>
      </trkpt>
      <trkpt lat="43.90347" lon="5.5091">
        <ele>543.7</ele>
        <time>2012-03-19T17:59:52Z</time>
      </trkpt>
      <trkpt lat="43.90324" lon="5.50865">
        <ele>551.1</ele>
        <time>2012-03-19T18:00:08Z</time>
      </trkpt>
      <trkpt lat="43.90324" lon="5.50795">
        <ele>554.1</ele>
        <time>2012-03-19T18:00:28Z</time>
      </trkpt>
      <trkpt lat="43.90336" lon="5.50725">
        <ele>558.1</ele>
        <time>2012-03-19T18:00:48Z</time>
      </trkpt>
      <trkpt lat="43.90369" lon="5.50676">
        <ele>560.1</ele>
        <time>2012-03-19T18:01:08Z</time>
      </trkpt>
      <trkpt lat="43.90394" lon="5.5063">
        <ele>561.2</ele>
        <time>2012-03-19T18:01:24Z</time>
      </trkpt>
      <trkpt lat="43.90402" lon="5.50583">
        <ele>562.2</ele>
        <time>2012-03-19T18:01:38Z</time>
      </trkpt>
      <trkpt lat="43.90399" lon="5.50519">
        <ele>563.9</ele>
        <time>2012-03-19T18:01:57Z</time>
      </trkpt>
      <trkpt lat="43.90411" lon="5.50438">
        <ele>566.2</ele>
        <time>2012-03-19T18:02:21Z</time>
      </trkpt>
      <trkpt lat="43.90426" lon="5.50335">
        <ele>567.6</ele>
        <time>2012-03-19T18:02:51Z</time>
      </trkpt>
      <trkpt lat="43.90436" lon="5.50258">
        <ele>571</ele>
        <time>2012-03-19T18:03:13Z</time>
      </trkpt>
      <trkpt lat="43.90431" lon="5.50198">
        <ele>572.5</ele>
        <time>2012-03-19T18:03:31Z</time>
      </trkpt>
      <trkpt lat="43.90415" lon="5.50083">
        <ele>570</ele>
        <time>2012-03-19T18:04:05Z</time>
      </trkpt>
      <trkpt lat="43.90398" lon="5.49947">
        <ele>569.4</ele>
        <time>2012-03-19T18:04:45Z</time>
      </trkpt>
      <trkpt lat="43.90393" lon="5.49889">
        <ele>570.9</ele>
        <time>2012-03-19T18:05:01Z</time>
      </trkpt>
      <trkpt lat="43.90396" lon="5.49816">
        <ele>568.9</ele>
        <time>2012-03-19T18:05:22Z</time>
      </trkpt>
      <trkpt lat="43.90387" lon="5.49745">
        <ele>563.6</ele>
        <time>2012-03-19T18:05:43Z</time>
      </trkpt>
      <trkpt lat="43.90382" lon="5.49694">
        <ele>558</ele>
        <time>2012-03-19T18:05:58Z</time>
      </trkpt>
      <trkpt lat="43.90389" lon="5.49682">
        <ele>556.5</ele>
        <time>2012-03-19T18:06:03Z</time>
      </trkpt>
      <trkpt lat="43.90392" lon="5.49683">
        <ele>556.2</ele>
        <time>2012-03-19T18:06:04Z</time>
      </trkpt>
      <trkpt lat="43.90411" lon="5.49699">
        <ele>553.4</ele>
        <time>2012-03-19T18:06:13Z</time>
      </trkpt>
      <trkpt lat="43.90414" lon="5.49703">
        <ele>553.2</ele>
        <time>2012-03-19T18:06:14Z</time>
      </trkpt>
      <trkpt lat="43.90466" lon="5.49743">
        <ele>546.3</ele>
        <time>2012-03-19T18:06:38Z</time>
      </trkpt>
      <trkpt lat="43.90485" lon="5.49742">
        <ele>544.5</ele>
        <time>2012-03-19T18:06:46Z</time>
      </trkpt>
      <trkpt lat="43.90519" lon="5.49748">
        <ele>543.1</ele>
        <time>2012-03-19T18:06:59Z</time>
      </trkpt>
      <trkpt lat="43.90522" lon="5.49751">
        <ele>542.9</ele>
        <time>2012-03-19T18:07:01Z</time>
      </trkpt>
      <trkpt lat="43.90545" lon="5.49749">
        <ele>541.9</ele>
        <time>2012-03-19T18:07:10Z</time>
      </trkpt>
      <trkpt lat="43.9055" lon="5.49745">
        <ele>542.2</ele>
        <time>2012-03-19T18:07:13Z</time>
      </trkpt>
      <trkpt lat="43.90582" lon="5.49695">
        <ele>544.9</ele>
        <time>2012-03-19T18:07:32Z</time>
      </trkpt>
      <trkpt lat="43.90617" lon="5.49652">
        <ele>545.3</ele>
        <time>2012-03-19T18:07:50Z</time>
      </trkpt>
      <trkpt lat="43.90621" lon="5.49649">
        <ele>545</ele>
        <time>2012-03-19T18:07:52Z</time>
      </trkpt>
      <trkpt lat="43.90644" lon="5.49596">
        <ele>548.3</ele>
        <time>2012-03-19T18:08:10Z</time>
      </trkpt>
      <trkpt lat="43.90663" lon="5.49551">
        <ele>545.5</ele>
        <time>2012-03-19T18:08:25Z</time>
      </trkpt>
      <trkpt lat="43.90681" lon="5.49546">
        <ele>540.2</ele>
        <time>2012-03-19T18:08:32Z</time>
      </trkpt>
      <trkpt lat="43.90706" lon="5.49518">
        <ele>537.7</ele>
        <time>2012-03-19T18:08:45Z</time>
      </trkpt>
      <trkpt lat="43.90707" lon="5.49492">
        <ele>539.2</ele>
        <time>2012-03-19T18:08:53Z</time>
      </trkpt>
      <trkpt lat="43.90699" lon="5.49429">
        <ele>536.1</ele>
        <time>2012-03-19T18:09:11Z</time>
      </trkpt>
      <trkpt lat="43.90674" lon="5.49374">
        <ele>534.8</ele>
        <time>2012-03-19T18:09:30Z</time>
      </trkpt>
      <trkpt lat="43.90638" lon="5.49291">
        <ele>530</ele>
        <time>2012-03-19T18:09:58Z</time>
      </trkpt>
      <trkpt lat="43.90607" lon="5.49205">
        <ele>525.1</ele>
        <time>2012-03-19T18:10:26Z</time>
      </trkpt>
      <trkpt lat="43.90602" lon="5.49131">
        <ele>527</ele>
        <time>2012-03-19T18:10:47Z</time>
      </trkpt>
      <trkpt lat="43.90611" lon="5.49052">
        <ele>531.2</ele>
        <time>2012-03-19T18:11:10Z</time>
      </trkpt>
      <trkpt lat="43.90611" lon="5.48999">
        <ele>531.9</ele>
        <time>2012-03-19T18:11:25Z</time>
      </trkpt>
      <trkpt lat="43.90571" lon="5.48899">
        <ele>526.9</ele>
        <time>2012-03-19T18:11:58Z</time>
      </trkpt>
      <trkpt lat="43.90541" lon="5.48826">
        <ele>526.4</ele>
        <time>2012-03-19T18:12:23Z</time>
      </trkpt>
      <trkpt lat="43.90508" lon="5.48738">
        <ele>518.3</ele>
        <time>2012-03-19T18:12:51Z</time>
      </trkpt>
      <trkpt lat="43.90464" lon="5.48678">
        <ele>516.9</ele>
        <time>2012-03-19T18:13:16Z</time>
      </trkpt>
      <trkpt lat="43.90429" lon="5.48587">
        <ele>514.4</ele>
        <time>2012-03-19T18:13:46Z</time>
      </trkpt>
      <trkpt lat="43.90416" lon="5.48476">
        <ele>514</ele>
        <time>2012-03-19T18:14:18Z</time>
      </trkpt>
      <trkpt lat="43.90389" lon="5.48403">
        <ele>512.4</ele>
        <time>2012-03-19T18:14:42Z</time>
      </trkpt>
      <trkpt lat="43.90368" lon="5.48305">
        <ele>513.3</ele>
        <time>2012-03-19T18:15:11Z</time>
      </trkpt>
      <trkpt lat="43.90376" lon="5.48275">
        <ele>512.1</ele>
        <time>2012-03-19T18:15:21Z</time>
      </trkpt>
      <trkpt lat="43.90346" lon="5.48218">
        <ele>511</ele>
        <time>2012-03-19T18:15:41Z</time>
      </trkpt>
      <trkpt lat="43.90298" lon="5.48154">
        <ele>512</ele>
        <time>2012-03-19T18:16:07Z</time>
      </trkpt>
      <trkpt lat="43.90285" lon="5.48112">
        <ele>513.6</ele>
        <time>2012-03-19T18:16:21Z</time>
      </trkpt>
      <trkpt lat="43.90283" lon="5.48068">
        <ele>515.2</ele>
        <time>2012-03-19T18:16:33Z</time>
      </trkpt>
      <trkpt lat="43.90321" lon="5.48007">
        <ele>502.1</ele>
        <time>2012-03-19T18:16:57Z</time>
      </trkpt>
      <trkpt lat="43.90325" lon="5.48001">
        <ele>501</ele>
        <time>2012-03-19T18:16:59Z</time>
      </trkpt>
      <trkpt lat="43.90379" lon="5.47927">
        <ele>488.1</ele>
        <time>2012-03-19T18:17:30Z</time>
      </trkpt>
      <trkpt lat="43.9047" lon="5.47892">
        <ele>472.1</ele>
        <time>2012-03-19T18:18:08Z</time>
      </trkpt>
      <trkpt lat="43.9052" lon="5.47852">
        <ele>447.7</ele>
        <time>2012-03-19T18:18:31Z</time>
      </trkpt>
      <trkpt lat="43.9056" lon="5.47874">
        <ele>439.4</ele>
        <time>2012-03-19T18:18:48Z</time>
      </trkpt>
      <trkpt lat="43.90573" lon="5.47884">
        <ele>437</ele>
        <time>2012-03-19T18:18:54Z</time>
      </trkpt>
      <trkpt lat="43.90642" lon="5.47877">
        <ele>433</ele>
        <time>2012-03-19T18:19:22Z</time>
      </trkpt>
      <trkpt lat="43.90745" lon="5.47908">
        <ele>416.5</ele>
        <time>2012-03-19T18:20:04Z</time>
      </trkpt>
      <trkpt lat="43.90809" lon="5.4793">
        <ele>404.6</ele>
        <time>2012-03-19T18:20:30Z</time>
      </trkpt>
      <trkpt lat="43.90853" lon="5.47975">
        <ele>396.2</ele>
        <time>2012-03-19T18:20:52Z</time>
      </trkpt>
      <trkpt lat="43.909" lon="5.47994">
        <ele>385.4</ele>
        <time>2012-03-19T18:21:11Z</time>
      </trkpt>
      <trkpt lat="43.90907" lon="5.47998">
        <ele>384.5</ele>
        <time>2012-03-19T18:21:14Z</time>
      </trkpt>
      <trkpt lat="43.90955" lon="5.48019">
        <ele>377.6</ele>
        <time>2012-03-19T18:21:35Z</time>
      </trkpt>
      <trkpt lat="43.90999" lon="5.48043">
        <ele>370.8</ele>
        <time>2012-03-19T18:21:53Z</time>
      </trkpt>
      <trkpt lat="43.91005" lon="5.48046">
        <ele>370.1</ele>
        <time>2012-03-19T18:21:56Z</time>
      </trkpt>
      <trkpt lat="43.91045" lon="5.48038">
        <ele>362.9</ele>
        <time>2012-03-19T18:22:12Z</time>
      </trkpt>
      <trkpt lat="43.91105" lon="5.48036">
        <ele>366.6</ele>
        <time>2012-03-19T18:22:36Z</time>
      </trkpt>
      <trkpt lat="43.91156" lon="5.48028">
        <ele>361.5</ele>
        <time>2012-03-19T18:22:57Z</time>
      </trkpt>
      <trkpt lat="43.91227" lon="5.48065">
        <ele>344.5</ele>
        <time>2012-03-19T18:23:27Z</time>
      </trkpt>
      <trkpt lat="43.91289" lon="5.4807">
        <ele>327.1</ele>
        <time>2012-03-19T18:23:52Z</time>
      </trkpt>
      <trkpt lat="43.91293" lon="5.48108">
        <ele>326.5</ele>
        <time>2012-03-19T18:24:03Z</time>
      </trkpt>
      <trkpt lat="43.91317" lon="5.48199">
        <ele>328.2</ele>
        <time>2012-03-19T18:24:31Z</time>
      </trkpt>
      <trkpt lat="43.91344" lon="5.48279">
        <ele>327.7</ele>
        <time>2012-03-19T18:24:57Z</time>
      </trkpt>
      <trkpt lat="43.91341" lon="5.48305">
        <ele>330.2</ele>
        <time>2012-03-19T18:25:04Z</time>
      </trkpt>
      <trkpt lat="43.91368" lon="5.48321">
        <ele>333.6</ele>
        <time>2012-03-19T18:25:16Z</time>
      </trkpt>
      <trkpt lat="43.91376" lon="5.48374">
        <ele>337.5</ele>
        <time>2012-03-19T18:25:32Z</time>
      </trkpt>
      <trkpt lat="43.91377" lon="5.48429">
        <ele>334.6</ele>
        <time>2012-03-19T18:25:47Z</time>
      </trkpt>
      <trkpt lat="43.91381" lon="5.48469">
        <ele>332.7</ele>
        <time>2012-03-19T18:25:59Z</time>
      </trkpt>
      <trkpt lat="43.91404" lon="5.4851">
        <ele>332.3</ele>
        <time>2012-03-19T18:26:14Z</time>
      </trkpt>
      <trkpt lat="43.91427" lon="5.48567">
        <ele>333.3</ele>
        <time>2012-03-19T18:26:33Z</time>
      </trkpt>
      <trkpt lat="43.9144" lon="5.48632">
        <ele>334.3</ele>
        <time>2012-03-19T18:26:52Z</time>
      </trkpt>
      <trkpt lat="43.91464" lon="5.48739">
        <ele>335.6</ele>
        <time>2012-03-19T18:27:25Z</time>
      </trkpt>
      <trkpt lat="43.91493" lon="5.48818">
        <ele>335.2</ele>
        <time>2012-03-19T18:27:50Z</time>
      </trkpt>
      <trkpt lat="43.91482" lon="5.48848">
        <ele>335.8</ele>
        <time>2012-03-19T18:28:00Z</time>
      </trkpt>
      <trkpt lat="43.91473" lon="5.4886">
        <ele>336</ele>
        <time>2012-03-19T18:28:05Z</time>
      </trkpt>
      <trkpt lat="43.91472" lon="5.48881">
        <ele>336</ele>
        <time>2012-03-19T18:28:11Z</time>
      </trkpt>
      <trkpt lat="43.91472" lon="5.48902">
        <ele>337</ele>
        <time>2012-03-19T18:28:17Z</time>
      </trkpt>
      <trkpt lat="43.91482" lon="5.48937">
        <ele>340</ele>
        <time>2012-03-19T18:28:28Z</time>
      </trkpt>
      <trkpt lat="43.91485" lon="5.48954">
        <ele>339.4</ele>
        <time>2012-03-19T18:28:33Z</time>
      </trkpt>
      <trkpt lat="43.91479" lon="5.48962">
        <ele>339.3</ele>
        <time>2012-03-19T18:28:36Z</time>
      </trkpt>
      <trkpt lat="43.91462" lon="5.48972">
        <ele>340.2</ele>
        <time>2012-03-19T18:28:44Z</time>
      </trkpt>
      <trkpt lat="43.91447" lon="5.48984">
        <ele>341.5</ele>
        <time>2012-03-19T18:28:51Z</time>
      </trkpt>
      <trkpt lat="43.91436" lon="5.49017">
        <ele>341.3</ele>
        <time>2012-03-19T18:29:01Z</time>
      </trkpt>
      <trkpt lat="43.91425" lon="5.49139">
        <ele>341.7</ele>
        <time>2012-03-19T18:29:37Z</time>
      </trkpt>
      <trkpt lat="43.91415" lon="5.49208">
        <ele>340.6</ele>
        <time>2012-03-19T18:29:57Z</time>
      </trkpt>
      <trkpt lat="43.91396" lon="5.49253">
        <ele>341.9</ele>
        <time>2012-03-19T18:30:12Z</time>
      </trkpt>
      <trkpt lat="43.91391" lon="5.49272">
        <ele>341.2</ele>
        <time>2012-03-19T18:30:18Z</time>
      </trkpt>
      <trkpt lat="43.91405" lon="5.49308">
        <ele>344.8</ele>
        <time>2012-03-19T18:30:30Z</time>
      </trkpt>
      <trkpt lat="43.91417" lon="5.49319">
        <ele>344.4</ele>
        <time>2012-03-19T18:30:35Z</time>
      </trkpt>
      <trkpt lat="43.9144" lon="5.49335">
        <ele>346.2</ele>
        <time>2012-03-19T18:30:46Z</time>
      </trkpt>
      <trkpt lat="43.91498" lon="5.49383">
        <ele>345.8</ele>
        <time>2012-03-19T18:31:13Z</time>
      </trkpt>
      <trkpt lat="43.91552" lon="5.49462">
        <ele>347.1</ele>
        <time>2012-03-19T18:31:44Z</time>
      </trkpt>
      <trkpt lat="43.91567" lon="5.49488">
        <ele>346.4</ele>
        <time>2012-03-19T18:31:54Z</time>
      </trkpt>
      <trkpt lat="43.91558" lon="5.49506">
        <ele>346.9</ele>
        <time>2012-03-19T18:32:00Z</time>
      </trkpt>
      <trkpt lat="43.91513" lon="5.49519">
        <ele>348.8</ele>
        <time>2012-03-19T18:32:18Z</time>
      </trkpt>
      <trkpt lat="43.9148" lon="5.49517">
        <ele>352.2</ele>
        <time>2012-03-19T18:32:32Z</time>
      </trkpt>
      <trkpt lat="43.9145" lon="5.49526">
        <ele>354</ele>
        <time>2012-03-19T18:32:44Z</time>
      </trkpt>
      <trkpt lat="43.91443" lon="5.49526">
        <ele>353.9</ele>
        <time>2012-03-19T18:32:46Z</time>
      </trkpt>
      <trkpt lat="43.9143" lon="5.49523">
        <ele>354.4</ele>
        <time>2012-03-19T18:32:52Z</time>
      </trkpt>
      <trkpt lat="43.91398" lon="5.49516">
        <ele>356.4</ele>
        <time>2012-03-19T18:33:05Z</time>
      </trkpt>
      <trkpt lat="43.9139" lon="5.4952">
        <ele>356.5</ele>
        <time>2012-03-19T18:33:08Z</time>
      </trkpt>
      <trkpt lat="43.91379" lon="5.49527">
        <ele>356.8</ele>
        <time>2012-03-19T18:33:13Z</time>
      </trkpt>
      <trkpt lat="43.91366" lon="5.49543">
        <ele>358.3</ele>
        <time>2012-03-19T18:33:20Z</time>
      </trkpt>
      <trkpt lat="43.9136" lon="5.49554">
        <ele>359.3</ele>
        <time>2012-03-19T18:33:24Z</time>
      </trkpt>
      <trkpt lat="43.91344" lon="5.49574">
        <ele>360.2</ele>
        <time>2012-03-19T18:33:33Z</time>
      </trkpt>
      <trkpt lat="43.9133" lon="5.49596">
        <ele>359.8</ele>
        <time>2012-03-19T18:33:41Z</time>
      </trkpt>
      <trkpt lat="43.9132" lon="5.49614">
        <ele>361.4</ele>
        <time>2012-03-19T18:33:47Z</time>
      </trkpt>
      <trkpt lat="43.91314" lon="5.49651">
        <ele>361.7</ele>
        <time>2012-03-19T18:33:58Z</time>
      </trkpt>
      <trkpt lat="43.91319" lon="5.4966">
        <ele>362.6</ele>
        <time>2012-03-19T18:34:02Z</time>
      </trkpt>
      <trkpt lat="43.91321" lon="5.49682">
        <ele>362.3</ele>
        <time>2012-03-19T18:34:08Z</time>
      </trkpt>
      <trkpt lat="43.9132" lon="5.49695">
        <ele>361.5</ele>
        <time>2012-03-19T18:34:12Z</time>
      </trkpt>
      <trkpt lat="43.9132" lon="5.49709">
        <ele>360.7</ele>
        <time>2012-03-19T18:34:16Z</time>
      </trkpt>
      <trkpt lat="43.9132" lon="5.49715">
        <ele>360.4</ele>
        <time>2012-03-19T18:34:18Z</time>
      </trkpt>
      <trkpt lat="43.9132" lon="5.49732">
        <ele>359.5</ele>
        <time>2012-03-19T18:34:23Z</time>
      </trkpt>
      <trkpt lat="43.9132" lon="5.4975">
        <ele>358.5</ele>
        <time>2012-03-19T18:34:28Z</time>
      </trkpt>
      <trkpt lat="43.91333" lon="5.49778">
        <ele>358</ele>
        <time>2012-03-19T18:34:37Z</time>
      </trkpt>
      <trkpt lat="43.91346" lon="5.49789">
        <ele>358.4</ele>
        <time>2012-03-19T18:34:43Z</time>
      </trkpt>
      <trkpt lat="43.91357" lon="5.49799">
        <ele>358.2</ele>
        <time>2012-03-19T18:34:48Z</time>
      </trkpt>
      <trkpt lat="43.91367" lon="5.49797">
        <ele>357.4</ele>
        <time>2012-03-19T18:34:53Z</time>
      </trkpt>
      <trkpt lat="43.91375" lon="5.49795">
        <ele>357</ele>
        <time>2012-03-19T18:34:56Z</time>
      </trkpt>
      <trkpt lat="43.91391" lon="5.49792">
        <ele>356.5</ele>
        <time>2012-03-19T18:35:02Z</time>
      </trkpt>
      <trkpt lat="43.91403" lon="5.49789">
        <ele>356.2</ele>
        <time>2012-03-19T18:35:07Z</time>
      </trkpt>
      <trkpt lat="43.91446" lon="5.49783">
        <ele>360.9</ele>
        <time>2012-03-19T18:35:24Z</time>
      </trkpt>
      <trkpt lat="43.91468" lon="5.49769">
        <ele>364.8</ele>
        <time>2012-03-19T18:35:34Z</time>
      </trkpt>
      <trkpt lat="43.91494" lon="5.49749">
        <ele>368.9</ele>
        <time>2012-03-19T18:35:46Z</time>
      </trkpt>
      <trkpt lat="43.91516" lon="5.49733">
        <ele>360.3</ele>
        <time>2012-03-19T18:35:56Z</time>
      </trkpt>
      <trkpt lat="43.9153" lon="5.49723">
        <ele>357.2</ele>
        <time>2012-03-19T18:36:02Z</time>
      </trkpt>
      <trkpt lat="43.9154" lon="5.4974">
        <ele>353.4</ele>
        <time>2012-03-19T18:36:09Z</time>
      </trkpt>
      <trkpt lat="43.91551" lon="5.49756">
        <ele>351.9</ele>
        <time>2012-03-19T18:36:15Z</time>
      </trkpt>
      <trkpt lat="43.91569" lon="5.49775">
        <ele>352.3</ele>
        <time>2012-03-19T18:36:24Z</time>
      </trkpt>
      <trkpt lat="43.91598" lon="5.49789">
        <ele>351.8</ele>
        <time>2012-03-19T18:36:37Z</time>
      </trkpt>
      <trkpt lat="43.91616" lon="5.49798">
        <ele>352</ele>
        <time>2012-03-19T18:36:44Z</time>
      </trkpt>
      <trkpt lat="43.91645" lon="5.49804">
        <ele>353.8</ele>
        <time>2012-03-19T18:36:56Z</time>
      </trkpt>
      <trkpt lat="43.91659" lon="5.49814">
        <ele>355.1</ele>
        <time>2012-03-19T18:37:02Z</time>
      </trkpt>
      <trkpt lat="43.9167" lon="5.49821">
        <ele>355.6</ele>
        <time>2012-03-19T18:37:07Z</time>
      </trkpt>
      <trkpt lat="43.9169" lon="5.49838">
        <ele>357.2</ele>
        <time>2012-03-19T18:37:16Z</time>
      </trkpt>
      <trkpt lat="43.91705" lon="5.49847">
        <ele>357.9</ele>
        <time>2012-03-19T18:37:23Z</time>
      </trkpt>
      <trkpt lat="43.91719" lon="5.49866">
        <ele>355.6</ele>
        <time>2012-03-19T18:37:31Z</time>
      </trkpt>
      <trkpt lat="43.91725" lon="5.49884">
        <ele>356.3</ele>
        <time>2012-03-19T18:37:37Z</time>
      </trkpt>
      <trkpt lat="43.91729" lon="5.49912">
        <ele>356.5</ele>
        <time>2012-03-19T18:37:45Z</time>
      </trkpt>
      <trkpt lat="43.91733" lon="5.49926">
        <ele>356.6</ele>
        <time>2012-03-19T18:37:49Z</time>
      </trkpt>
      <trkpt lat="43.91751" lon="5.49989">
        <ele>358.1</ele>
        <time>2012-03-19T18:38:09Z</time>
      </trkpt>
      <trkpt lat="43.9176" lon="5.50001">
        <ele>358.1</ele>
        <time>2012-03-19T18:38:14Z</time>
      </trkpt>
      <trkpt lat="43.91765" lon="5.50008">
        <ele>358.8</ele>
        <time>2012-03-19T18:38:16Z</time>
      </trkpt>
      <trkpt lat="43.91769" lon="5.50021">
        <ele>359.5</ele>
        <time>2012-03-19T18:38:21Z</time>
      </trkpt>
      <trkpt lat="43.91773" lon="5.50033">
        <ele>359.3</ele>
        <time>2012-03-19T18:38:24Z</time>
      </trkpt>
      <trkpt lat="43.91774" lon="5.50056">
        <ele>361.5</ele>
        <time>2012-03-19T18:38:31Z</time>
      </trkpt>
      <trkpt lat="43.91781" lon="5.50072">
        <ele>361.7</ele>
        <time>2012-03-19T18:38:36Z</time>
      </trkpt>
      <trkpt lat="43.91791" lon="5.50096">
        <ele>361.7</ele>
        <time>2012-03-19T18:38:44Z</time>
      </trkpt>
      <trkpt lat="43.91793" lon="5.50105">
        <ele>361.6</ele>
        <time>2012-03-19T18:38:47Z</time>
      </trkpt>
      <trkpt lat="43.91795" lon="5.50115">
        <ele>360.7</ele>
        <time>2012-03-19T18:38:50Z</time>
      </trkpt>
      <trkpt lat="43.91795" lon="5.5013">
        <ele>359.7</ele>
        <time>2012-03-19T18:38:54Z</time>
      </trkpt>
      <trkpt lat="43.91794" lon="5.50136">
        <ele>359.4</ele>
        <time>2012-03-19T18:38:56Z</time>
      </trkpt>
      <trkpt lat="43.91788" lon="5.50157">
        <ele>358.9</ele>
        <time>2012-03-19T18:39:03Z</time>
      </trkpt>
      <trkpt lat="43.91806" lon="5.50156">
        <ele>357</ele>
        <time>2012-03-19T18:39:10Z</time>
      </trkpt>
      <trkpt lat="43.9181" lon="5.50173">
        <ele>357.9</ele>
        <time>2012-03-19T18:39:15Z</time>
      </trkpt>
      <trkpt lat="43.91818" lon="5.50192">
        <ele>358.9</ele>
        <time>2012-03-19T18:39:21Z</time>
      </trkpt>
      <trkpt lat="43.91834" lon="5.50165">
        <ele>360.3</ele>
        <time>2012-03-19T18:39:31Z</time>
      </trkpt>
      <trkpt lat="43.91857" lon="5.50124">
        <ele>364.5</ele>
        <time>2012-03-19T18:39:46Z</time>
      </trkpt>
      <trkpt lat="43.91892" lon="5.50053">
        <ele>370.4</ele>
        <time>2012-03-19T18:40:11Z</time>
      </trkpt>
      <trkpt lat="43.91908" lon="5.50029">
        <ele>372.7</ele>
        <time>2012-03-19T18:40:20Z</time>
      </trkpt>
      <trkpt lat="43.92027" lon="5.49822">
        <ele>374.6</ele>
        <time>2012-03-19T18:41:37Z</time>
      </trkpt>
      <trkpt lat="43.92188" lon="5.49535">
        <ele>383.5</ele>
        <time>2012-03-19T18:43:21Z</time>
      </trkpt>
      <trkpt lat="43.92306" lon="5.49349">
        <ele>385.2</ele>
        <time>2012-03-19T18:44:33Z</time>
      </trkpt>
      <trkpt lat="43.9234" lon="5.49239">
        <ele>384.7</ele>
        <time>2012-03-19T18:45:07Z</time>
      </trkpt>
      <trkpt lat="43.92364" lon="5.49097">
        <ele>388.9</ele>
        <time>2012-03-19T18:45:50Z</time>
      </trkpt>
      <trkpt lat="43.92421" lon="5.48885">
        <ele>401.5</ele>
        <time>2012-03-19T18:46:55Z</time>
      </trkpt>
      <trkpt lat="43.92441" lon="5.48757">
        <ele>408.5</ele>
        <time>2012-03-19T18:47:32Z</time>
      </trkpt>
      <trkpt lat="43.92431" lon="5.48667">
        <ele>412.1</ele>
        <time>2012-03-19T18:47:59Z</time>
      </trkpt>
      <trkpt lat="43.92417" lon="5.48559">
        <ele>413</ele>
        <time>2012-03-19T18:48:30Z</time>
      </trkpt>
      <trkpt lat="43.92414" lon="5.48507">
        <ele>409.4</ele>
        <time>2012-03-19T18:48:45Z</time>
      </trkpt>
      <trkpt lat="43.92443" lon="5.48454">
        <ele>409.2</ele>
        <time>2012-03-19T18:49:04Z</time>
      </trkpt>
    </trkseg>
  </trk>
</gpx>